[[{"header":{"parameterUnit":"m.s-1","parameterCategory":1,"la1":30.6,"la2":28.766,"lo1":-90.7593,"lo2":-88.6598,"dy":0.0162,"dx":0.0183,"nx":116,"ny":114,"refTime":"2023-10-11T12:00:00:Z","depth":0,"parameterNumber":2,"parameterNumberName":"U-component_of_WINDS"},"data":[0.0,0.0,0.0,0.0,0.0,0.0,0.0,0.0,0.0,0.0,0.0,0.0,0.0,0.0,0.0,0.0,0.0,0.0,0.0,0.0,0.0,0.0,0.0,0.0,0.0,0.0,0.0,0.0,0.0,0.0,0.0,0.0,0.0,0.0,0.0,0.0,0.0,0.0,0.0,0.0,0.0,0.0,0.0,0.0,0.0,0.0,0.0,0.0,0.0,0.0,0.0,0.0,0.0,0.0,0.0,0.0,0.0,0.0,0.0,0.0,0.0,0.0,0.0,0.0,0.0,0.0,0.0,0.0,0.0,0.0,0.0,0.0,0.0,0.0,0.0,0.0,0.0,0.0,0.0,0.0,0.0,0.0,0.0,0.0,0.0,0.0,0.0,0.0,0.0,0.0,0.0,0.0,0.0,0.0,0.0,0.0,0.0,0.0,0.0,0.0,0.0,0.0,0.0,0.0,0.0,0.0,0.0,0.0,0.0,0.0,0.0,0.0,0.0,0.0,0.0,0.0,0.0,0.0,0.0,0.0,0.0,0.0,0.0,0.0,0.0,0.0,0.0,0.0,0.0,0.0,0.0,0.0,0.0,0.0,0.0,0.0,0.0,0.0,0.0,0.0,0.0,0.0,0.0,0.0,0.0,0.0,0.0,0.0,0.0,0.0,0.0,0.0,0.0,0.0,0.0,0.0,0.0,0.0,0.0,0.0,0.0,0.0,0.0,0.0,0.0,0.0,0.0,0.0,0.0,0.0,0.0,0.0,0.0,0.0,0.0,0.0,0.0,0.0,0.0,0.0,0.0,0.0,0.0,0.0,0.0,0.0,0.0,0.0,0.0,0.0,0.0,0.0,0.0,0.0,0.0,0.0,0.0,0.0,0.0,0.0,0.0,0.0,0.0,0.0,0.0,0.0,0.0,0.0,0.0,0.0,0.0,0.0,0.0,0.0,0.0,0.0,0.0,0.0,0.0,0.0,0.0,0.0,0.0,0.0,0.0,0.0,0.0,0.0,0.0,0.0,0.0,0.0,0.0,0.0,0.0,0.0,0.0,0.0,0.0,0.0,0.0,0.0,0.0,0.0,0.0,0.0,0.0,0.0,0.0,0.0,0.0,0.0,0.0,0.0,0.0,0.0,0.0,0.0,0.0,0.0,0.0,0.0,0.0,0.0,0.0,0.0,0.0,0.0,0.0,0.0,0.0,0.0,0.0,0.0,0.0,0.0,0.0,0.0,0.0,0.0,0.0,0.0,0.0,0.0,0.0,0.0,0.0,0.0,0.0,0.0,0.0,0.0,0.0,0.0,0.0,0.0,0.0,0.0,0.0,0.0,0.0,0.0,0.0,0.0,0.0,0.0,0.0,0.0,0.0,0.0,0.0,0.0,0.0,0.0,0.0,0.0,0.0,0.0,0.0,0.0,0.0,0.0,0.0,0.0,0.0,0.0,0.0,0.0,0.0,0.0,0.0,0.0,0.0,0.0,0.0,0.0,0.0,0.0,0.0,0.0,0.0,0.0,0.0,0.0,0.0,0.0,0.0,0.0,0.0,0.0,0.0,0.0,0.0,0.0,0.0,0.0,0.0,0.0,0.0,0.0,0.0,0.0,0.0,0.0,0.0,0.0,0.0,0.0,0.0,0.0,0.0,0.0,0.0,0.0,0.0,0.0,0.0,0.0,0.0,0.0,0.0,0.0,0.0,0.0,0.0,0.0,0.0,0.0,0.0,0.0,0.0,0.0,0.0,0.0,0.0,0.0,0.0,0.0,0.0,0.0,0.0,0.0,0.0,0.0,0.0,0.0,0.0,0.0,0.0,0.0,0.0,0.0,0.0,0.0,0.0,0.0,0.0,0.0,0.0,0.0,0.0,0.0,0.0,0.0,0.0,0.0,0.0,0.0,0.0,0.0,0.0,0.0,0.0,0.0,0.0,0.0,0.0,0.0,0.0,0.0,0.0,0.0,0.0,0.0,0.0,0.0,0.0,0.0,0.0,0.0,0.0,0.0,0.0,0.0,0.0,0.0,0.0,0.0,0.0,0.0,0.0,0.0,0.0,0.0,0.0,0.0,0.0,0.0,0.0,0.0,0.0,0.0,0.0,0.0,0.0,0.0,0.0,0.0,0.0,0.0,0.0,0.0,0.0,0.0,0.0,0.0,0.0,0.0,0.0,0.0,0.0,0.0,0.0,0.0,0.0,0.0,0.0,0.0,0.0,0.0,0.0,0.0,0.0,0.0,0.0,0.0,0.0,0.0,0.0,0.0,0.0,0.0,0.0,0.0,0.0,0.0,0.0,0.0,0.0,0.0,0.0,0.0,0.0,0.0,0.0,0.0,0.0,0.0,0.0,0.0,0.0,0.0,0.0,0.0,0.0,0.0,0.0,0.0,0.0,0.0,0.0,0.0,0.0,0.0,0.0,0.0,0.0,0.0,0.0,0.0,0.0,0.0,0.0,0.0,0.0,0.0,0.0,0.0,0.0,0.0,0.0,0.0,0.0,0.0,0.0,0.0,0.0,0.0,0.0,0.0,0.0,0.0,0.0,0.0,0.0,0.0,0.0,0.0,0.0,0.0,0.0,0.0,0.0,0.0,0.0,0.0,0.0,0.0,0.0,0.0,0.0,0.0,0.0,0.0,0.0,0.0,0.0,0.0,0.0,0.0,0.0,0.0,0.0,0.0,0.0,0.0,0.0,0.0,0.0,0.0,0.0,0.0,0.0,0.0,0.0,0.0,0.0,0.0,0.0,0.0,0.0,0.0,0.0,0.0,0.0,0.0,0.0,0.0,0.0,0.0,0.0,0.0,0.0,0.0,0.0,0.0,0.0,0.0,0.0,0.0,0.0,0.0,0.0,0.0,0.0,0.0,0.0,0.0,0.0,0.0,0.0,0.0,0.0,0.0,0.0,0.0,0.0,0.0,0.0,0.0,0.0,0.0,0.0,0.0,0.0,0.0,0.0,0.0,0.0,0.0,0.0,0.0,0.0,0.0,0.0,0.0,0.0,0.0,0.0,0.0,0.0,0.0,0.0,0.0,0.0,0.0,0.0,0.0,0.0,0.0,0.0,0.0,0.0,0.0,0.0,0.0,0.0,0.0,0.0,0.0,0.0,0.0,0.0,0.0,0.0,0.0,0.0,0.0,0.0,0.0,0.0,0.0,0.0,0.0,0.0,0.0,0.0,0.0,0.0,0.0,0.0,0.0,0.0,0.0,0.0,0.0,0.0,0.0,0.0,0.0,0.0,0.0,0.0,0.0,0.0,0.0,0.0,0.0,0.0,0.0,0.0,0.0,0.0,0.0,0.0,0.0,0.0,0.0,0.0,0.0,0.0,0.0,0.0,0.0,0.0,0.0,0.0,0.0,0.0,0.0,0.0,0.0,0.0,0.0,0.0,0.0,0.0,0.0,0.0,0.0,0.0,0.0,0.0,0.0,0.0,0.0,0.0,0.0,0.0,0.0,0.0,0.0,0.0,0.0,0.0,0.0,0.0,0.0,0.0,0.0,0.0,0.0,0.0,0.0,0.0,0.0,0.0,0.0,0.0,0.0,0.0,0.0,0.0,0.0,0.0,0.0,0.0,0.0,0.0,0.0,0.0,0.0,0.0,0.0,0.0,0.0,0.0,0.0,0.0,0.0,0.0,0.0,0.0,0.0,0.0,0.0,0.0,0.0,0.0,0.0,0.0,0.0,0.0,0.0,0.0,0.0,0.0,0.0,0.0,0.0,0.0,0.0,0.0,0.0,0.0,0.0,0.0,0.0,0.0,0.0,0.0,0.0,0.0,0.0,0.0,0.0,0.0,0.0,0.0,0.0,0.0,0.0,0.0,0.0,0.0,0.0,0.0,0.0,0.0,0.0,0.0,0.0,0.0,0.0,0.0,0.0,0.0,0.0,0.0,0.0,0.0,0.0,0.0,0.0,0.0,0.0,0.0,0.0,0.0,0.0,0.0,0.0,0.0,0.0,0.0,0.0,0.0,0.0,0.0,0.0,0.0,0.0,0.0,0.0,0.0,0.0,0.0,0.0,0.0,0.0,0.0,0.0,0.0,0.0,0.0,0.0,0.0,0.0,0.0,0.0,0.0,0.0,0.0,0.0,0.0,0.0,0.0,0.0,0.0,0.0,0.0,0.0,0.0,0.0,0.0,0.0,0.0,0.0,0.0,0.0,0.0,0.0,0.0,0.0,0.0,0.0,0.0,0.0,0.0,0.0,0.0,0.0,0.0,0.0,0.0,0.0,0.0,0.0,0.0,0.0,0.0,0.0,0.0,0.0,0.0,0.0,0.0,0.0,0.0,0.0,0.0,0.0,0.0,0.0,0.0,0.0,0.0,0.0,0.0,0.0,0.0,0.0,0.0,0.0,0.0,0.0,0.0,0.0,0.0,0.0,0.0,0.0,0.0,0.0,0.0,0.0,0.0,0.0,0.0,0.0,0.0,0.0,0.0,0.0,0.0,0.0,0.0,0.0,0.0,0.0,0.0,0.0,0.0,0.0,0.0,0.0,0.0,0.0,0.0,0.0,0.0,0.0,0.0,0.0,0.0,0.0,0.0,0.0,0.0,0.0,0.0,0.0,0.0,0.0,0.0,0.0,0.0,0.0,0.0,0.0,0.0,0.0,0.0,0.0,0.0,0.0,0.0,0.0,0.0,0.0,0.0,0.0,0.0,0.0,0.0,0.0,0.0,0.0,0.0,0.0,0.0,0.0,0.0,0.0,0.0,0.0,0.0,0.0,0.0,0.0,0.0,0.0,0.0,0.0,0.0,0.0,0.0,0.0,0.0,0.0,0.0,0.0,0.0,0.0,0.0,0.0,0.0,0.0,0.0,0.0,0.0,0.0,0.0,0.0,0.0,0.0,0.0,0.0,0.0,0.0,0.0,0.0,0.0,0.0,0.0,0.0,0.0,0.0,0.0,0.0,0.0,0.0,0.0,0.0,0.0,0.0,0.0,0.0,0.0,0.0,0.0,0.0,0.0,0.0,0.0,0.0,0.0,0.0,0.0,0.0,0.0,0.0,0.0,0.0,0.0,0.0,0.0,0.0,0.0,0.0,0.0,0.0,0.0,0.0,0.0,0.0,0.0,0.0,0.0,0.0,0.0,0.0,0.0,0.0,0.0,0.0,0.0,0.0,0.0,0.0,0.0,0.0,0.0,0.0,0.0,0.0,0.0,0.0,0.0,0.0,0.0,0.0,0.0,0.0,0.0,0.0,0.0,0.0,0.0,0.0,0.0,0.0,0.0,0.0,0.0,0.0,0.0,0.0,0.0,0.0,0.0,0.0,0.0,0.0,0.0,0.0,0.0,0.0,0.0,0.0,0.0,0.0,0.0,0.0,0.0,0.0,0.0,0.0,0.0,0.0,0.0,0.0,0.0,0.0,0.0,0.0,0.0,0.0,0.0,0.0,0.0,0.0,0.0,0.0,0.0,0.0,0.0,0.0,0.0,0.0,0.0,0.0,0.0,0.0,0.0,0.0,0.0,0.0,0.0,0.0,0.0,0.0,0.0,0.0,0.0,0.0,0.0,0.0,0.0,0.0,0.0,0.0,0.0,0.0,0.0,0.0,0.0,0.0,0.0,0.0,0.0,0.0,0.0,0.0,0.0,0.0,0.0,0.0,0.0,0.0,0.0,0.0,0.0,0.0,0.0,0.0,0.0,0.0,0.0,0.0,0.0,0.0,0.0,0.0,0.0,0.0,0.0,0.0,0.0,0.0,0.0,0.0,0.0,0.0,0.0,0.0,0.0,0.0,0.0,0.0,0.0,0.0,0.0,0.0,0.0,0.0,0.0,0.0,0.0,0.0,0.0,0.0,0.0,0.0,0.0,0.0,0.0,0.0,0.0,0.0,0.0,0.0,0.0,0.0,0.0,0.0,0.0,0.0,0.0,0.0,0.0,0.0,0.0,0.0,0.0,0.0,0.0,0.0,0.0,0.0,0.0,0.0,0.0,0.0,0.0,0.0,0.0,0.0,0.0,0.0,0.0,0.0,0.0,0.0,0.0,0.0,0.0,0.0,0.0,0.0,0.0,0.0,0.0,0.0,0.0,0.0,0.0,0.0,0.0,0.0,0.0,0.0,0.0,0.0,0.0,0.0,0.0,0.0,0.0,0.0,4.4846,4.4718,0.0,0.0,0.0,0.0,0.0,0.0,0.0,0.0,0.0,0.0,0.0,0.0,0.0,0.0,0.0,0.0,0.0,0.0,0.0,0.0,0.0,0.0,0.0,0.0,0.0,0.0,0.0,0.0,0.0,0.0,0.0,0.0,0.0,0.0,0.0,0.0,0.0,0.0,6.1806,6.1119,6.051,6.0814,0.0,0.0,0.0,0.0,0.0,0.0,0.0,0.0,0.0,0.0,0.0,0.0,0.0,0.0,0.0,0.0,0.0,0.0,0.0,0.0,0.0,0.0,0.0,0.0,0.0,0.0,0.0,0.0,0.0,0.0,0.0,0.0,0.0,0.0,0.0,0.0,0.0,0.0,0.0,0.0,0.0,0.0,0.0,0.0,0.0,0.0,0.0,0.0,0.0,0.0,0.0,0.0,0.0,0.0,0.0,0.0,0.0,0.0,0.0,0.0,0.0,0.0,0.0,0.0,0.0,0.0,0.0,0.0,0.0,0.0,0.0,0.0,4.4143,4.3935,0.0,0.0,0.0,0.0,0.0,0.0,0.0,0.0,0.0,0.0,0.0,0.0,0.0,0.0,0.0,0.0,0.0,0.0,0.0,0.0,0.0,0.0,0.0,0.0,0.0,0.0,0.0,0.0,0.0,0.0,0.0,0.0,0.0,0.0,0.0,0.0,0.0,0.0,6.0993,6.0441,6.1463,6.1882,0.0,0.0,0.0,0.0,0.0,0.0,0.0,0.0,0.0,0.0,0.0,0.0,0.0,0.0,0.0,0.0,0.0,0.0,0.0,0.0,0.0,0.0,0.0,0.0,0.0,0.0,0.0,0.0,0.0,0.0,0.0,0.0,0.0,0.0,0.0,0.0,0.0,0.0,0.0,0.0,0.0,0.0,0.0,0.0,0.0,0.0,0.0,0.0,0.0,0.0,0.0,0.0,0.0,0.0,0.0,0.0,0.0,0.0,0.0,0.0,0.0,0.0,0.0,0.0,0.0,0.0,4.7038,4.6483,4.7223,4.6366,4.523,4.3973,4.354,4.2806,4.178,3.9441,0.0,0.0,0.0,0.0,0.0,0.0,0.0,0.0,0.0,0.0,0.0,0.0,0.0,0.0,0.0,0.0,0.0,0.0,0.0,0.0,0.0,5.8671,6.0604,6.2111,6.2598,6.3168,0.0,0.0,0.0,0.0,0.0,0.0,0.0,6.3913,6.3167,6.0397,6.0205,6.0971,6.2839,6.2301,6.2301,6.266,6.2181,0.0,0.0,0.0,0.0,0.0,0.0,0.0,0.0,0.0,0.0,0.0,0.0,0.0,0.0,0.0,0.0,0.0,0.0,0.0,0.0,0.0,0.0,0.0,0.0,0.0,0.0,0.0,0.0,0.0,0.0,0.0,0.0,0.0,0.0,0.0,0.0,0.0,0.0,0.0,0.0,0.0,0.0,0.0,5.0367,4.9405,0.0,0.0,0.0,0.0,0.0,0.0,0.0,0.0,0.0,0.0,0.0,0.0,0.0,5.3914,5.4752,5.3538,5.0879,4.6865,4.7086,4.6082,4.4253,4.4134,4.4129,4.4194,4.1936,0.0,3.7309,3.5305,0.0,0.0,0.0,0.0,0.0,0.0,0.0,0.0,0.0,0.0,0.0,0.0,0.0,0.0,0.0,0.0,0.0,0.0,0.0,0.0,0.0,6.0892,6.1815,6.3091,6.298,6.3193,6.3937,0.0,0.0,0.0,0.0,6.3733,6.389,6.308,6.1997,6.0593,6.2104,6.3318,6.4156,6.4635,6.4814,6.4695,6.4036,6.3199,6.2181,6.1822,0.0,0.0,0.0,0.0,0.0,0.0,0.0,0.0,0.0,0.0,0.0,0.0,0.0,0.0,0.0,0.0,0.0,0.0,0.0,0.0,0.0,0.0,0.0,0.0,0.0,0.0,0.0,0.0,0.0,0.0,0.0,0.0,0.0,0.0,0.0,0.0,0.0,0.0,0.0,5.1888,5.1915,5.0233,5.1373,5.1825,0.0,0.0,0.0,0.0,0.0,0.0,0.0,0.0,0.0,5.7077,5.5955,5.54,5.5746,5.3125,5.1181,4.9853,4.8769,4.7758,4.6953,4.6719,4.5768,4.4145,4.1439,3.8669,3.5896,3.4157,3.3166,3.2422,0.0,0.0,0.0,0.0,2.843,2.8457,0.0,0.0,0.0,0.0,0.0,0.0,0.0,0.0,0.0,0.0,0.0,0.0,6.2727,6.2832,6.3208,6.4532,6.3802,6.3666,6.4546,6.3937,0.0,0.0,6.4461,6.426,6.4616,6.2613,6.1788,6.2361,6.4515,6.5772,6.6311,6.7148,6.7268,6.6729,6.6071,6.4755,6.3019,6.254,6.2241,0.0,0.0,0.0,0.0,0.0,0.0,0.0,0.0,0.0,0.0,0.0,0.0,0.0,0.0,0.0,0.0,0.0,0.0,0.0,0.0,0.0,0.0,0.0,0.0,0.0,0.0,0.0,0.0,0.0,0.0,0.0,0.0,0.0,0.0,0.0,0.0,0.0,0.0,5.2427,5.3632,5.1724,5.3683,5.4386,0.0,0.0,0.0,0.0,0.0,0.0,5.8252,5.9257,5.9448,5.8822,5.8228,5.7458,5.6468,5.3676,5.2403,5.2658,5.0873,5.0078,5.0156,4.905,4.7346,4.4893,4.1361,3.8601,3.6394,3.3886,3.2422,3.1698,2.9872,2.9018,2.8858,2.9072,2.9312,2.9499,0.0,0.0,0.0,0.0,0.0,0.0,0.0,0.0,0.0,0.0,0.0,6.1324,6.3606,6.4823,6.606,6.7523,6.6373,6.6102,6.759,6.5087,6.4478,6.6643,6.5415,6.4523,6.4094,6.3316,6.3855,6.5772,6.655,6.7867,6.9722,6.9183,6.8884,6.8824,6.8106,6.6071,6.3079,6.3019,6.266,6.2121,0.0,0.0,0.0,0.0,0.0,0.0,0.0,0.0,0.0,0.0,0.0,0.0,0.0,0.0,0.0,0.0,0.0,0.0,0.0,0.0,0.0,0.0,0.0,0.0,0.0,0.0,0.0,0.0,0.0,0.0,0.0,0.0,0.0,0.0,0.0,0.0,0.0,0.0,0.0,5.4486,5.7248,0.0,0.0,0.0,0.0,5.8353,5.991,6.1115,6.1718,6.232,6.2115,6.113,6.1434,6.0159,5.6933,5.7003,5.59,5.3365,5.3225,5.2734,5.1855,4.9169,4.7698,4.716,4.1588,3.9181,3.893,3.3893,3.1584,3.1169,3.0782,3.0675,3.0675,3.0675,3.0702,3.0702,0.0,0.0,0.0,0.0,0.0,0.0,0.0,0.0,0.0,6.1365,6.2749,6.4399,6.6943,6.7174,6.7523,6.8605,6.6846,6.5899,6.644,6.4756,6.4218,6.5481,6.3901,6.3139,6.3377,6.444,6.5712,6.7268,6.8764,7.0081,7.1218,7.1398,7.1278,7.0799,6.9722,6.8345,6.6729,6.4575,6.3558,6.3258,6.2421,6.2361,0.0,0.0,0.0,0.0,0.0,0.0,0.0,0.0,0.0,0.0,0.0,0.0,0.0,0.0,0.0,0.0,0.0,0.0,0.0,0.0,0.0,0.0,0.0,0.0,0.0,0.0,0.0,0.0,0.0,0.0,0.0,0.0,0.0,0.0,0.0,0.0,0.0,5.9408,6.227,0.0,6.1165,6.1667,6.2521,6.3375,6.4379,6.5283,6.6237,6.5321,6.4655,6.4312,6.1755,5.9954,5.9091,5.56,5.3541,5.2875,5.0509,4.9154,4.8524,4.7459,4.5802,4.3533,4.1514,3.9516,3.7643,3.545,3.3774,3.2572,3.1904,3.1396,3.1102,3.1289,3.1343,3.1396,0.0,0.0,0.0,0.0,0.0,0.0,0.0,0.0,6.0134,6.3405,6.4837,6.639,6.8506,6.8685,6.8953,6.9757,6.7971,6.705,6.7548,6.5658,6.4856,6.5535,6.4127,6.3794,6.4789,6.6433,6.7986,6.9303,7.1038,7.2235,7.2894,7.3373,7.3193,7.2535,7.1637,7.0799,6.9718,6.6645,6.499,6.4276,6.3199,6.2551,6.2085,0.0,0.0,0.0,0.0,0.0,0.0,0.0,0.0,0.0,0.0,0.0,0.0,0.0,0.0,0.0,0.0,0.0,0.0,0.0,0.0,0.0,0.0,0.0,0.0,0.0,0.0,0.0,0.0,0.0,0.0,0.0,0.0,0.0,0.0,6.0713,6.3475,6.3676,6.6639,6.7894,6.6036,6.6538,6.7342,6.8296,6.8098,6.8432,6.9318,6.7532,6.6002,6.5065,6.2464,6.0186,5.8435,5.4985,5.2717,5.1774,4.9215,4.7688,4.7118,4.6094,4.4355,4.2029,4.1047,3.9364,3.7489,3.6901,3.5912,3.4656,3.3454,3.2706,3.2305,3.2492,3.2572,3.2625,0.0,0.0,0.0,0.0,0.0,0.0,0.0,6.0522,6.21,6.527,6.6356,6.7121,6.7969,6.9337,7.0453,7.1175,6.9928,6.9651,7.1086,6.7874,6.6259,6.6954,6.6365,6.6771,6.8131,6.9393,7.0679,7.1996,7.3313,7.433,7.4929,7.4929,7.4569,7.3971,7.3903,7.3126,7.1738,6.9041,6.673,6.4934,6.4218,6.2498,6.0477,0.0,0.0,0.0,0.0,0.0,0.0,0.0,0.0,0.0,0.0,0.0,0.0,0.0,0.0,0.0,0.0,0.0,0.0,0.0,0.0,0.0,0.0,0.0,0.0,0.0,0.0,0.0,0.0,0.0,0.0,0.0,0.0,0.0,6.0613,6.3877,6.6538,6.7141,7.0104,7.1259,6.915,7.0907,7.2364,7.2676,7.1197,7.0324,7.0798,6.8486,6.6011,6.336,6.3492,6.0812,5.5042,5.5169,5.3496,5.003,4.9552,4.8913,4.7999,4.4927,4.3394,4.3133,4.0013,3.8771,3.8691,3.8103,3.7676,3.7248,3.5511,3.4629,3.4362,3.4362,3.4362,3.4362,0.0,0.0,0.0,0.0,0.0,0.0,0.0,6.0907,6.2815,6.6078,6.6799,6.7965,7.0732,7.1362,7.182,7.2581,7.135,6.9812,6.8221,6.729,6.6614,6.6322,6.7529,6.8836,7.0054,7.1833,7.3432,7.4809,7.5647,7.6125,7.6305,7.6305,7.6185,7.5936,7.3938,7.2599,7.1656,6.8455,6.6243,6.4752,6.2849,6.1127,5.9799,0.0,0.0,0.0,0.0,0.0,0.0,0.0,0.0,0.0,0.0,0.0,0.0,0.0,0.0,0.0,0.0,0.0,0.0,0.0,0.0,0.0,0.0,0.0,0.0,0.0,0.0,0.0,0.0,0.0,0.0,0.0,6.222,6.458,6.4028,6.7593,7.0958,7.2765,7.5176,7.6632,7.6431,7.6984,7.6427,7.443,7.3736,7.2559,7.0518,6.7823,6.6085,6.5677,6.1251,5.8203,5.6698,5.1913,4.8878,4.7437,4.5059,4.3614,4.2898,4.2091,4.1362,4.0949,4.0036,3.9573,3.9306,3.8718,3.829,3.7889,3.6553,3.5859,3.5565,3.5351,3.5271,3.4874,0.0,0.0,0.0,0.0,0.0,0.0,0.0,6.1011,6.254,6.5231,6.6955,6.8627,7.0642,7.1844,7.2459,7.2328,7.1036,6.97,6.8424,6.8994,6.9036,6.8257,7.0396,7.2398,7.3824,7.521,7.6485,7.7562,7.7921,7.7801,7.7263,7.7263,7.6599,7.5445,7.382,7.2466,7.1125,6.8229,6.6504,6.5457,6.2958,6.1025,5.9589,5.9481,5.8697,5.7674,5.8362,5.8587,5.8526,5.9718,0.0,0.0,0.0,0.0,0.0,0.0,0.0,0.0,0.0,0.0,0.0,0.0,0.0,0.0,0.0,0.0,0.0,0.0,0.0,0.0,0.0,0.0,0.0,0.0,6.6589,6.8999,6.821,7.136,7.4623,7.7335,7.8792,7.9326,7.8804,7.8747,7.7521,7.4336,7.2901,7.0801,6.7537,6.4568,6.3011,6.3405,5.8299,5.5651,5.5947,5.0469,4.6952,4.5217,4.2993,4.179,4.1443,4.1096,4.0722,4.0401,4.0267,4.0027,3.9733,3.9412,3.9092,3.8691,0.0,0.0,0.0,0.0,3.6179,3.5883,0.0,0.0,0.0,0.0,0.0,0.0,0.0,6.0931,6.1746,6.3864,6.6771,6.8737,6.8873,7.1227,7.2337,7.1287,6.9862,6.9422,7.0486,7.162,7.2091,7.183,7.4304,7.6413,7.8046,7.8871,7.9391,7.9767,7.9767,7.8965,7.744,7.744,7.6139,7.3856,7.3517,7.2327,7.0419,6.8359,6.7103,6.6366,6.4062,6.1808,5.9823,6.0169,5.9061,5.7346,5.8984,5.9195,5.8797,5.9521,0.0,0.0,0.0,0.0,0.0,0.0,0.0,0.0,0.0,0.0,0.0,0.0,0.0,0.0,0.0,0.0,0.0,0.0,0.0,0.0,0.0,0.0,0.0,0.0,7.0795,7.3207,7.2389,7.4249,7.687,7.9745,8.0142,7.9463,7.7695,7.7566,7.6172,7.3049,6.9952,6.6709,6.3296,6.0017,0.0,0.0,0.0,5.3256,5.3677,4.9971,4.6599,4.3554,4.2752,4.2325,4.2191,4.139,4.0989,4.0909,4.0615,4.0374,4.008,4.0027,3.984,3.9466,3.8076,3.7355,3.7088,3.7061,3.7034,3.7008,0.0,0.0,0.0,0.0,0.0,0.0,0.0,6.0695,6.1933,6.4502,6.5444,6.6595,6.8818,6.9945,7.0712,7.0889,6.9332,6.9351,7.1983,7.0662,7.1692,7.5991,7.7494,7.8573,7.937,8.1121,8.1159,7.9383,7.9383,7.8057,7.5572,7.5572,7.5275,7.4625,7.2477,7.1272,7.0774,6.8219,6.6568,6.5571,6.5503,6.3672,6.0858,6.0504,5.9514,5.8453,5.9237,5.8882,5.8368,6.023,5.9606,5.8144,5.8672,0.0,0.0,0.0,0.0,0.0,0.0,0.0,0.0,0.0,0.0,0.0,0.0,0.0,0.0,0.0,0.0,0.0,0.0,0.0,0.0,6.8205,7.1022,7.2992,7.2884,7.3744,7.4355,7.465,7.5016,7.529,7.5351,7.5396,7.4116,7.0931,6.7521,6.4223,6.1141,5.759,5.5844,5.6342,5.2797,5.1121,5.1314,4.7732,4.5264,4.3901,4.3501,0.0,4.2218,4.179,4.1336,4.0909,4.0829,4.0668,4.0374,4.0134,3.984,3.9519,3.8771,3.829,3.7969,3.7729,3.7622,3.7595,0.0,0.0,0.0,0.0,0.0,0.0,0.0,6.031,6.1194,6.2867,6.4236,6.5592,6.7331,6.8421,6.8824,6.8465,6.793,6.8886,7.1844,7.2811,7.509,7.9245,8.0803,8.1929,8.2709,8.288,8.2474,8.171,8.0414,7.8625,7.6315,7.6315,7.5399,7.376,7.2388,7.1165,7.0086,6.8739,6.7894,6.7392,6.7693,6.6789,6.5183,6.3776,6.2873,6.2421,6.2421,6.2069,6.1676,6.1886,6.0939,5.9562,5.9868,5.865,5.6997,0.0,0.0,0.0,0.0,0.0,0.0,0.0,0.0,0.0,0.0,0.0,0.0,0.0,0.0,5.863,6.1263,0.0,6.6848,6.9065,7.1483,7.2727,7.1964,7.2345,7.3144,7.4188,7.4779,7.468,7.3656,7.2092,7.0627,6.9305,6.406,6.0211,5.8767,5.4917,5.2918,5.3395,4.9844,4.8801,5.0795,4.7106,4.5024,4.4436,4.3955,4.3394,4.2619,4.3929,4.3331,4.146,4.2871,4.2498,4.0668,4.0374,4.0187,4.0,3.9573,3.9092,3.8691,3.8531,3.8397,3.821,0.0,0.0,0.0,0.0,0.0,0.0,0.0,5.9948,6.0326,6.1044,6.3258,6.5054,6.5533,6.667,6.6849,6.5533,6.6536,6.8593,7.1728,7.5206,7.8564,8.1853,8.3627,8.4711,8.513,8.4058,8.3219,8.2822,8.0908,7.8849,7.6802,7.6802,7.5355,7.28,7.2643,7.1769,7.0255,7.0154,7.0003,6.9953,7.0054,7.0003,6.9752,6.7945,6.7041,6.6689,6.6137,6.5735,6.5233,6.3927,6.2722,6.1768,6.1416,6.0563,5.9481,5.8467,5.8149,0.0,0.0,0.0,0.0,0.0,0.0,0.0,0.0,5.5771,5.5461,5.7592,5.803,5.8925,6.2063,6.4636,6.7065,6.9515,7.1318,7.1964,7.0171,7.0546,7.1699,7.4037,7.4496,7.3505,7.0665,6.8127,6.6436,6.6109,5.968,5.5919,5.602,5.1974,4.9782,5.0045,4.6974,4.6838,4.9986,4.6974,4.5237,4.4943,4.502,4.4815,4.437,4.7035,4.6532,4.3912,4.5397,4.4102,4.0882,4.0588,4.0481,4.0428,4.0214,3.9786,3.9306,3.9199,3.9012,3.8718,0.0,0.0,0.0,0.0,0.0,0.0,0.0,0.0,6.0326,6.1044,6.2839,6.4156,6.4216,6.4934,6.4814,6.3498,6.6192,6.9397,7.2944,7.5012,7.8399,8.3674,8.4954,8.4872,8.3448,8.4352,8.278,7.8589,7.8313,7.6752,7.4027,7.4027,7.3881,7.3446,7.2941,7.2803,7.3117,7.2565,7.2062,7.1661,7.2163,7.2062,7.161,7.1359,7.0355,6.8999,6.8447,6.7292,6.5986,6.5785,6.5032,6.4178,6.458,6.3977,6.2563,5.9892,5.8907,5.8096,5.5872,5.4992,5.4962,5.6247,5.4835,5.4131,0.0,5.834,5.8729,6.1126,6.2968,6.4724,6.6553,6.8608,6.9818,6.9354,6.9842,6.9756,6.8121,6.8245,6.8767,6.9469,6.9231,6.7673,6.41,6.352,6.1943,5.8623,5.4654,5.2508,5.2508,4.8792,4.6782,4.6672,4.5989,4.5829,4.6266,4.5829,4.5558,4.5237,4.776,4.8709,4.8455,5.0844,5.1654,5.0897,4.7403,4.3901,4.0882,4.0588,4.0481,4.0481,4.0428,4.0214,3.9893,3.9332,3.9118,3.9038,0.0,0.0,0.0,0.0,0.0,0.0,0.0,0.0,0.0,6.1583,6.272,6.3438,6.3438,6.3737,6.3677,6.3139,6.6071,6.9878,7.4315,7.6857,8.0634,8.6358,8.6773,8.621,8.4844,8.3928,8.1987,7.9012,7.7547,7.6093,7.4573,7.4573,7.4372,7.4071,7.382,7.387,7.4071,7.382,7.3569,7.3368,7.3619,7.3569,7.3318,7.2615,7.1761,7.0656,6.915,6.8196,0.0,0.0,6.5584,6.4778,6.3939,6.297,6.1571,5.8553,5.7437,5.6783,5.5785,5.5595,5.6012,5.675,5.7,5.7519,5.9511,5.9572,5.9894,6.208,6.3125,6.3927,6.5439,6.6716,6.7754,6.7883,6.8239,6.8505,6.8254,6.8437,6.8633,6.8828,6.8867,6.7507,6.4046,6.194,6.0177,5.8638,5.2798,5.0254,5.245,4.8606,4.636,4.6199,4.6066,4.684,4.8798,4.8769,4.9706,5.1456,5.2629,5.2971,5.2656,5.5256,5.4899,5.1936,4.7829,4.4016,4.0909,4.0775,4.0615,4.0481,4.0668,4.0535,4.0214,3.9626,3.9306,3.9092,0.0,0.0,0.0,0.0,0.0,0.0,0.0,0.0,0.0,0.0,6.254,6.3079,6.3079,6.3079,6.3079,6.3079,6.5772,6.9571,7.4487,7.7612,8.1744,8.7338,8.7177,8.6364,8.5045,8.2768,8.0627,7.8701,7.6963,7.5879,7.5477,7.5477,7.5226,7.4875,7.4875,7.4875,7.4875,7.4875,7.4875,7.4875,7.4875,7.4674,7.4272,7.3016,7.1861,7.0757,6.8848,6.7844,0.0,0.0,6.4831,6.4278,6.3311,6.2249,6.0671,5.7662,5.5932,5.5049,5.5842,5.6196,5.6614,5.738,5.8579,5.9798,6.0378,6.0572,6.1093,6.2751,6.3236,6.3594,6.4648,6.5547,6.6328,6.6914,6.7422,6.793,6.8555,6.875,6.875,6.8633,6.8984,6.789,6.431,6.2194,6.0158,5.8026,5.3516,5.1982,5.4523,5.0702,4.8216,4.7912,4.7829,4.8901,5.1303,5.2156,5.3843,5.6194,5.6942,5.7055,5.6733,5.9253,5.7439,5.2101,4.8985,4.5099,4.1122,4.0989,4.0802,4.0615,4.0829,4.0722,4.0401,3.9893,3.9599,3.9332,0.0,0.0,0.0,0.0,0.0,0.0,0.0,0.0,0.0,0.0,0.0,0.0,0.0,6.3079,6.3079,6.3079,6.4934,6.7986,7.2661,7.6006,8.0195,8.554,8.5345,8.4275,8.2512,8.0735,7.8605,7.6227,7.6128,7.603,7.603,7.603,7.603,7.5979,7.5979,7.5979,7.5979,7.5979,7.5979,7.5979,7.5979,7.5377,7.4222,7.2565,7.0606,6.8597,6.7442,0.0,0.0,6.3324,6.2571,6.237,6.3894,6.3253,6.1191,5.8339,5.5087,5.3093,5.6018,5.6235,5.6139,5.8055,5.8531,5.8822,6.0148,6.1718,6.3205,6.4066,6.4966,6.5625,6.6094,6.6836,6.7422,6.75,6.7851,6.8203,6.8203,6.8555,6.8633,6.8242,6.8594,6.7316,6.3515,6.3969,6.1681,5.4785,5.7433,5.9259,5.8863,5.5219,5.2858,5.2361,5.2033,5.1991,5.2098,5.5281,5.6855,5.6955,5.9649,6.0837,6.0893,6.2703,5.9598,5.2554,5.1407,4.7527,4.171,4.1122,4.0909,4.0909,4.0909,4.0722,4.0428,4.0134,4.0,3.9947,0.0,0.0,0.0,0.0,0.0,0.0,0.0,0.0,0.0,0.0,0.0,0.0,0.0,0.0,0.0,0.0,6.4874,6.7268,7.0141,7.3962,7.7503,8.0609,8.2426,8.2512,8.0695,7.9971,7.8717,7.6582,7.623,7.603,7.603,7.603,7.603,7.603,7.603,7.603,7.603,7.603,7.5829,7.5427,7.4724,7.377,7.2514,7.0506,6.8145,6.5464,0.0,0.0,5.9898,5.7348,5.6538,5.6488,5.5802,5.5575,5.522,5.2903,5.2255,5.2655,5.4463,5.6394,5.8292,5.9927,6.1118,6.2109,6.2851,6.3906,6.4844,6.5117,6.5156,6.5195,6.5351,6.5586,6.5976,6.6562,6.5502,6.5535,6.8295,6.7172,6.6249,6.6855,6.8281,6.7278,6.2264,6.3213,6.2224,5.7994,5.8832,5.8553,5.5933,5.433,5.2117,4.9023,4.8884,5.1019,5.5633,5.6748,5.9479,6.3917,6.4678,6.4654,6.4083,6.412,5.9941,5.2709,5.1615,4.7405,4.1497,4.1283,4.1096,4.0935,4.1122,4.0909,4.0481,4.0374,4.0321,4.0267,0.0,0.0,0.0,0.0,0.0,0.0,0.0,0.0,0.0,0.0,0.0,0.0,0.0,0.0,0.0,0.0,0.0,6.6011,6.8465,7.0828,7.3424,7.632,7.7037,7.6931,7.6184,7.5486,7.466,7.3619,7.3669,7.377,7.3971,7.4171,7.4272,7.4272,7.4272,7.4272,7.4272,7.4071,7.377,7.3368,7.2062,7.0857,6.9511,6.6551,6.3864,0.0,5.6362,5.4462,5.3886,5.2782,5.2673,5.2884,5.1998,5.2038,5.2104,5.0581,5.1445,5.3203,5.5117,5.7695,6.0234,6.1836,6.332,6.4492,6.4883,6.5547,6.5937,6.5664,6.5117,6.4609,6.4297,6.4258,6.4126,6.3635,6.2698,6.2727,6.4359,6.2983,6.2069,6.2645,6.3879,6.3258,5.9705,6.0481,6.1326,6.1234,6.1302,6.0402,5.8166,5.5216,5.2352,4.947,4.9302,5.2102,5.7945,5.9095,6.2314,6.75,6.7226,6.6562,6.5586,6.3546,5.9025,5.2875,5.0484,4.6492,4.163,4.1523,4.139,4.1229,4.131,4.1042,4.0615,4.0508,4.0481,4.0428,0.0,0.0,0.0,0.0,0.0,0.0,0.0,0.0,0.0,0.0,0.0,0.0,0.0,0.0,0.0,0.0,0.0,0.0,6.7446,6.6756,6.8151,7.2417,6.9443,6.8329,6.9524,6.7776,6.7091,6.7693,6.8698,6.9451,6.9953,7.0414,7.0665,7.0757,7.0665,7.0665,7.0757,7.0255,7.0054,6.9853,6.8246,6.6803,6.5293,6.1123,5.8174,5.5499,5.0295,4.7806,4.7293,4.9641,5.0854,5.1397,5.2464,5.2563,5.2155,5.1807,5.293,5.4961,5.789,6.0,6.1836,6.3906,6.5078,6.5781,6.6172,6.6523,6.6523,6.5664,6.4726,6.3828,6.2969,6.293,6.1972,5.9161,5.9901,5.9943,5.742,5.702,5.6753,5.6521,5.6425,5.626,5.6195,5.6656,5.8959,6.3788,6.4302,6.4445,6.4704,5.7736,5.3546,5.3122,5.3122,5.5031,5.8758,6.2045,6.4838,6.6989,6.7117,6.6418,6.4888,6.0913,5.6945,5.2777,4.851,4.5021,4.2191,4.1897,4.179,4.1737,4.1443,4.1149,4.0909,4.0588,4.0481,4.0508,0.0,0.0,0.0,0.0,0.0,0.0,0.0,0.0,0.0,0.0,0.0,0.0,0.0,0.0,0.0,0.0,0.0,0.0,6.2424,6.3282,6.3721,6.3659,6.4351,6.5123,6.5837,6.5369,6.5383,6.5936,6.5785,6.5785,6.5936,6.4604,6.4789,6.6187,6.5095,6.538,6.6789,6.7041,6.694,6.6438,6.5233,6.3191,6.0542,5.8612,5.5775,5.2399,4.9506,4.8017,4.7231,4.6657,4.7622,4.9276,5.0853,5.1878,5.2935,5.4776,5.6719,5.8789,6.0859,6.3125,6.5117,6.5976,6.664,6.6953,6.6758,6.6055,6.5117,6.3906,6.2226,6.0664,5.9844,6.0976,6.12,5.8562,5.8327,5.8422,5.8237,5.6442,5.5576,5.6864,5.8128,5.839,5.7331,5.7958,5.9034,6.0368,6.0581,6.082,6.1463,5.6935,5.2858,4.9817,4.9673,5.1482,5.5259,6.0551,6.214,6.0049,6.2141,6.1254,5.7808,5.6401,5.351,4.9433,4.7671,4.5193,4.2191,4.1897,4.179,4.1737,4.1443,4.131,4.1149,4.0668,4.0615,4.0775,0.0,0.0,0.0,0.0,0.0,0.0,0.0,0.0,0.0,0.0,0.0,0.0,0.0,0.0,0.0,0.0,0.0,0.0,0.0,5.9948,5.9326,5.8605,5.9078,5.9558,6.0111,6.0362,6.0763,6.1316,6.0614,6.0407,6.0653,5.8903,5.8664,5.9712,5.9148,5.947,6.0532,6.1663,6.1433,0.0,0.0,5.7991,5.5276,5.3393,5.1371,4.9344,4.7402,4.7308,4.8062,4.7711,4.8359,4.9766,5.207,5.3672,5.5195,5.7812,6.0,6.1875,6.3594,6.5547,6.707,6.7148,6.7305,6.7148,6.5781,6.4883,6.375,6.1523,5.9922,5.8672,5.7578,5.7831,5.7495,5.5062,5.4427,5.4205,5.4008,5.2537,5.2111,5.3635,5.4399,5.4692,5.3837,5.5806,5.7281,5.7565,5.6997,5.7012,5.7549,5.3923,5.0871,4.8696,4.8551,5.041,5.4061,5.9034,6.0211,5.7615,5.9048,5.8165,5.5306,5.3361,5.1024,4.8284,4.6117,4.404,4.2218,4.2031,4.1978,4.1924,4.163,4.1523,4.1497,4.1016,4.0882,4.0882,0.0,0.0,0.0,0.0,0.0,0.0,0.0,0.0,0.0,0.0,0.0,0.0,0.0,0.0,0.0,0.0,0.0,0.0,0.0,0.0,5.5432,5.5486,5.4018,5.3292,5.3576,5.4072,5.4518,5.5014,5.4207,5.4111,5.4585,5.3062,5.2439,5.2762,5.298,5.3251,5.3624,5.5332,5.4903,5.3034,5.3677,5.2557,5.0063,0.0,4.6727,4.6326,4.5004,4.6289,4.8867,5.0703,5.1445,5.207,5.4922,5.6758,5.8359,6.0937,6.2812,6.4375,6.6055,6.7383,6.8242,6.7734,6.75,6.6758,6.418,6.332,6.2148,5.8789,5.7695,5.6992,5.582,5.4906,5.3654,5.1581,5.1286,5.0733,4.909,4.8816,4.9051,4.9406,4.9326,4.9165,4.9219,5.2364,5.4403,5.4729,5.3819,5.3695,5.4448,5.061,4.8631,4.8871,4.8871,5.0396,5.3467,5.706,5.8001,5.6417,5.6572,5.5858,5.4163,5.0655,4.8621,4.7744,4.4224,4.2539,4.2298,4.2218,4.2218,4.2191,4.1897,4.1817,4.179,4.1443,4.1203,4.1016,0.0,0.0,0.0,0.0,0.0,0.0,0.0,0.0,0.0,0.0,6.3019,6.3079,0.0,0.0,0.0,0.0,0.0,0.0,0.0,0.0,0.0,5.1211,5.0789,4.9914,4.8301,4.8392,4.8484,4.8575,4.8464,4.8452,4.8469,4.6605,4.6648,4.8082,4.6973,4.7639,4.958,4.9995,5.0099,5.0029,5.0158,4.8941,4.706,4.688,0.0,0.0,4.5209,4.625,4.7969,5.25,5.4726,5.5937,5.789,5.9883,6.1914,6.414,6.5234,6.6094,6.75,6.8515,6.9023,6.8242,6.75,6.6289,6.375,6.1484,5.918,5.6445,5.5234,5.4492,5.3906,5.5398,5.6439,5.5791,5.7308,5.7519,5.4066,5.382,5.3171,5.0911,5.0875,5.1116,5.1356,5.1944,5.2241,5.1859,5.13,5.2327,5.5018,5.1425,4.9139,4.9219,4.9219,4.9352,4.9813,5.2767,5.2515,4.8967,5.1354,5.0568,4.713,4.6154,4.5394,4.4794,4.3546,4.2833,4.2565,4.2325,4.2218,4.2191,4.1897,4.1924,4.2084,4.1523,4.1443,4.1603,0.0,0.0,0.0,0.0,0.0,0.0,0.0,6.1702,6.2301,6.3019,6.3378,6.3438,6.3139,6.3079,6.273,0.0,0.0,0.0,0.0,0.0,0.0,5.0127,4.9009,4.7999,4.7051,4.7051,4.7051,4.7051,0.0,4.55,4.5425,4.3511,4.3096,4.3966,4.3469,4.4075,4.5383,4.6622,4.6597,4.5796,4.6966,4.5983,4.3974,0.0,0.0,0.0,4.5195,4.6797,4.875,5.1914,5.5039,5.8086,6.0976,6.2695,6.4101,6.6015,6.6914,6.7422,6.8281,6.8984,6.9219,6.8398,6.7383,6.5625,6.2187,5.9687,5.7305,5.4258,5.3281,5.293,5.2734,5.3463,5.4211,5.465,5.5408,5.5372,5.3417,5.3543,5.3208,5.1279,5.1276,5.157,5.1864,5.3697,5.3993,5.143,5.2908,5.3488,5.2717,5.0686,4.9432,4.9272,4.9272,4.9219,4.9058,5.0154,4.9545,4.7295,4.8467,4.7691,4.5531,4.5237,4.4703,4.3955,4.3527,4.2993,4.2405,4.2298,4.2218,4.2218,4.2084,4.2111,4.2191,4.1897,4.179,4.1764,0.0,0.0,0.0,0.0,0.0,0.0,0.0,6.2241,6.2899,6.3438,6.3917,6.3859,6.2852,6.2793,6.2145,0.0,0.0,0.0,0.0,0.0,0.0,0.0,0.0,0.0,4.5797,0.0,0.0,4.5797,4.4226,0.0,0.0,0.0,0.0,0.0,4.1523,4.1953,4.2502,4.3966,4.3771,0.0,0.0,4.3609,4.1875,0.0,0.0,0.0,0.0,4.6953,4.9101,5.0859,5.3984,5.7773,6.1601,6.3711,6.5117,6.6523,6.7383,6.8008,6.8515,6.8984,6.9101,6.8242,6.6914,6.4726,6.0625,5.8125,5.5781,5.2578,5.1875,5.1875,5.2031,5.1903,5.22,5.361,5.3739,5.3434,5.266,5.3347,5.315,5.1225,5.1463,5.1837,5.1971,5.4862,5.5155,5.1798,5.4015,5.3987,5.0251,4.9887,4.9646,4.9272,4.9352,4.9352,4.9272,4.8658,4.807,4.7509,4.6921,4.6333,4.5745,4.5451,4.4917,4.4142,4.3714,4.31,4.2405,4.2245,4.2218,4.2218,4.2218,4.2218,4.2218,4.2218,4.2084,4.1897,0.0,0.0,0.0,0.0,0.0,0.0,0.0,6.3977,6.4755,6.4814,6.4874,6.4099,6.1887,6.1646,6.1354,0.0,0.0,0.0,0.0,0.0,0.0,0.0,0.0,0.0,0.0,0.0,0.0,4.1753,4.156,0.0,0.0,0.0,0.0,0.0,0.0,4.168,4.2383,4.1837,0.0,0.0,0.0,0.0,0.0,0.0,0.0,0.0,0.0,4.5742,4.7109,5.0351,5.1992,5.3281,5.6758,6.0859,6.4492,6.5,6.6055,6.7148,6.8008,6.8555,6.8633,6.7773,6.5976,6.3555,6.0039,5.6992,5.4258,5.1953,5.1172,5.1172,5.1953,5.2729,5.4157,5.6987,5.8318,5.8307,5.5964,5.6932,5.6231,5.1556,5.1971,5.2559,5.2345,5.2578,5.2363,5.1517,5.1503,5.0938,4.978,4.9967,4.986,4.9299,4.9539,4.9539,4.9272,4.8658,4.807,4.7509,4.6921,4.6333,4.5745,4.5451,4.5131,4.473,4.3901,4.334,4.2993,4.2432,4.2218,4.2218,4.2218,4.2218,4.2218,4.2218,4.2218,4.2191,0.0,0.0,0.0,0.0,0.0,0.0,6.2421,6.3258,6.3977,6.4336,6.3504,6.254,6.1639,5.8595,5.6897,5.7432,0.0,0.0,0.0,0.0,0.0,0.0,0.0,0.0,0.0,0.0,4.1172,4.1172,4.1172,0.0,0.0,0.0,0.0,0.0,0.0,4.1641,4.2383,4.1523,0.0,0.0,0.0,0.0,0.0,0.0,0.0,0.0,0.0,0.0,4.6523,4.7891,4.9648,5.1445,5.2305,5.5312,5.9101,6.2109,6.3906,6.5312,6.6914,6.789,6.8281,6.7656,6.5508,6.2695,5.9531,5.625,5.3359,5.1445,5.0703,5.0781,5.1875,5.2578,5.3087,5.3185,5.4128,5.4297,5.2794,5.2142,5.1904,5.2076,5.1327,5.1169,5.2479,5.2585,5.2372,5.1757,5.1463,5.0982,5.0261,5.0181,4.9967,4.9566,4.9486,4.9326,4.8978,4.8604,4.799,4.7241,4.6814,4.6333,4.5745,4.5638,4.5237,4.4596,4.4035,4.3527,4.3046,4.2485,4.2325,4.2485,4.2298,4.0898,3.9068,3.9068,3.7792,3.5975,0.0,0.0,0.0,0.0,0.0,6.2241,6.26,6.3199,6.3621,6.3624,6.2482,6.1136,5.9289,5.5628,5.3117,5.2952,5.1684,0.0,0.0,0.0,0.0,0.0,0.0,0.0,0.0,0.0,4.1483,4.2062,4.2062,4.2062,0.0,0.0,4.1753,4.1172,0.0,0.0,0.0,0.0,0.0,0.0,0.0,0.0,0.0,0.0,0.0,0.0,0.0,0.0,0.0,0.0,0.0,4.957,4.9101,5.0781,5.3906,5.8789,6.1484,6.3398,6.5547,6.6836,6.75,6.7031,6.4883,6.1992,5.8867,5.5664,5.2891,5.1172,5.0469,5.0547,5.168,5.2226,5.2189,5.1311,5.1181,5.0952,5.0266,4.8572,4.8285,5.0394,4.9337,4.9352,5.1543,5.2131,5.2265,5.1944,5.1543,5.1223,5.0875,5.0394,4.9994,4.9726,4.9539,4.9219,4.8818,4.8337,4.7749,4.7054,4.6654,4.6226,4.5745,4.5745,4.5344,4.465,4.4222,4.3741,4.3314,4.2539,4.1716,4.1159,4.0748,3.8583,3.5462,3.5552,3.4002,3.1928,0.0,0.0,0.0,0.0,0.0,0.0,6.3797,6.4575,6.4336,6.2749,6.2505,6.0214,5.421,5.2898,5.101,4.7372,4.7124,0.0,0.0,0.0,0.0,0.0,0.0,0.0,0.0,0.0,4.2139,4.4075,4.4075,4.4075,4.4075,4.4075,4.3055,4.1172,0.0,0.0,0.0,0.0,0.0,0.0,0.0,0.0,0.0,0.0,0.0,0.0,0.0,0.0,0.0,0.0,0.0,0.0,0.0,4.8203,4.9922,5.5117,5.8789,6.1601,6.375,6.5273,6.6172,6.5703,6.3984,6.1484,5.8008,5.5234,5.2891,5.1172,5.0469,5.043,5.1289,5.1797,5.2383,5.3242,5.1891,5.0566,4.9754,4.851,4.7188,4.5563,4.6119,4.7348,4.9139,5.0635,5.1624,5.1864,5.1356,5.1169,5.1437,5.0635,4.9994,4.9726,4.9726,4.9432,4.8818,4.7936,4.7348,4.7054,4.6493,4.6039,4.5745,4.5745,4.5611,4.5237,4.4382,4.4008,4.3901,4.2699,4.0417,3.7506,3.7118,3.4947,3.1867,3.2089,3.217,3.208,0.0,0.0,0.0,0.0,0.0,0.0,0.0,6.2558,6.1895,6.1812,5.8218,5.5121,5.3626,4.9462,4.6301,4.5127,4.5052,0.0,0.0,0.0,0.0,0.0,0.0,0.0,0.0,0.0,4.1483,4.2139,4.2139,4.2139,4.2139,4.2139,4.1753,4.1172,4.1172,4.1406,0.0,0.0,0.0,0.0,0.0,0.0,4.2226,0.0,0.0,0.0,0.0,0.0,0.0,0.0,0.0,0.0,0.0,0.0,0.0,5.0937,5.4297,5.7461,5.9062,6.0625,6.164,6.0976,5.957,5.7812,5.5547,5.3476,5.1719,5.0625,5.0273,5.0508,5.168,5.1992,5.2019,5.1712,5.1108,5.0393,4.9112,4.7889,4.752,4.8504,4.9776,5.0849,5.1624,5.1891,5.2024,5.1891,5.1543,5.1223,5.0875,5.0581,5.0341,4.9994,4.9432,4.8818,4.823,4.7749,4.7135,4.6467,4.6253,4.6039,4.5745,4.5745,4.5478,4.4997,4.4516,4.4195,4.377,4.041,3.8482,3.7481,3.4563,3.1407,2.8417,2.8489,2.7137,2.5148,0.0,0.0,0.0,0.0,0.0,0.0,0.0,6.1198,5.9867,5.8273,5.4823,5.1872,5.0175,4.6433,4.3815,4.3055,4.3019,0.0,0.0,0.0,0.0,0.0,0.0,0.0,0.0,4.1172,4.1521,4.2253,4.2253,4.2253,4.2253,4.2454,4.2067,4.1172,4.1328,4.1484,0.0,0.0,0.0,0.0,0.0,0.0,4.2226,0.0,0.0,0.0,0.0,0.0,0.0,0.0,0.0,0.0,0.0,0.0,0.0,0.0,5.1094,5.3828,5.5937,5.7656,5.8672,5.7969,5.6953,5.5625,5.3711,5.2187,5.0976,5.0117,5.0078,5.0469,5.1406,5.0896,5.0616,5.1377,5.0078,4.8884,4.8502,4.7517,4.7314,4.8349,5.0205,5.1437,5.1624,5.1971,5.2078,5.1891,5.1543,5.0476,4.8428,4.8148,4.7338,4.5375,4.6207,4.6285,4.5724,4.5239,4.5434,4.6333,4.6119,4.5932,4.5745,4.5745,4.4712,4.3096,4.2611,4.1503,0.0,3.6843,3.4869,3.3662,3.101,2.7943,2.4976,2.5102,2.376,2.1977,0.0,0.0,0.0,0.0,0.0,0.0,0.0,6.0237,5.8154,5.3157,5.2185,4.9911,4.4635,4.3924,4.3131,4.1327,0.0,0.0,0.0,0.0,0.0,0.0,0.0,0.0,0.0,4.156,4.2483,4.4301,4.4193,4.4117,4.4159,4.4392,4.3392,4.125,4.1641,4.1601,0.0,0.0,0.0,0.0,4.2578,4.2617,0.0,0.0,0.0,0.0,0.0,0.0,0.0,0.0,0.0,0.0,0.0,0.0,0.0,0.0,0.0,0.0,0.0,5.5781,5.664,5.6211,5.5508,5.4414,5.2383,5.1289,0.0,4.9687,4.9883,5.0312,5.082,4.8955,4.8587,5.2335,4.9221,4.6828,4.7967,4.7372,4.6642,4.5992,4.8284,4.9833,4.9833,5.1062,5.1709,5.15,5.0868,4.8684,4.4284,4.3767,4.1687,3.7235,4.0328,4.208,4.2005,4.1276,4.2736,4.6547,4.6012,4.5581,4.5307,4.5307,4.3193,3.9592,3.8872,3.6742,3.3687,3.2456,3.0107,2.7207,2.6923,2.4731,2.1747,2.2004,2.2113,2.214,0.0,0.0,0.0,0.0,0.0,0.0,0.0,0.0,0.0,0.0,4.8751,4.5561,4.4226,4.279,4.1676,0.0,0.0,0.0,0.0,0.0,0.0,0.0,0.0,0.0,0.0,4.4902,4.5871,4.6315,4.5169,4.4545,4.4545,4.3412,4.2507,4.1641,4.1758,4.1758,0.0,0.0,0.0,0.0,4.2812,4.3164,0.0,0.0,0.0,0.0,4.5937,4.6562,0.0,0.0,0.0,0.0,0.0,0.0,0.0,0.0,4.8437,4.8906,5.0078,0.0,5.2148,5.1367,5.1289,5.1172,0.0,4.9961,4.9766,4.957,4.9883,5.0508,5.1601,4.9367,4.8954,5.3925,5.2022,4.9709,4.8865,4.7352,4.6948,4.8643,5.0127,5.0956,5.0742,5.1249,5.0201,4.6828,4.6372,4.414,3.9486,3.9265,3.7163,3.2385,3.3029,3.604,4.1578,4.1017,4.254,4.5959,4.5825,4.4182,4.1349,4.1349,3.9177,3.5213,3.5045,3.4281,3.2885,2.9722,2.7992,2.7056,2.4149,2.2503,2.2004,2.195,2.2072,2.2249,0.0,0.0,0.0,0.0,0.0,0.0,0.0,0.0,0.0,0.0,0.0,0.0,0.0,0.0,0.0,0.0,0.0,0.0,0.0,0.0,0.0,0.0,0.0,0.0,4.279,4.4677,4.5201,4.4344,4.3659,4.3363,4.3363,4.2862,4.25,4.207,4.207,0.0,0.0,0.0,0.0,0.0,4.3633,0.0,0.0,0.0,0.0,0.0,4.6758,4.7305,0.0,4.7851,4.7851,4.7891,0.0,0.0,0.0,0.0,4.8516,4.8516,4.8555,4.9375,5.0117,4.9648,4.9687,4.9805,4.957,4.9375,4.9297,4.9492,4.9883,5.0508,5.1601,4.8534,4.7465,5.2077,5.0076,4.8111,4.8927,4.7399,4.7054,4.9432,5.0528,5.1169,5.1383,5.1463,4.966,4.5384,4.4837,4.1694,3.5192,3.4884,3.2784,2.8134,2.7828,3.0366,3.5959,3.5756,3.7254,4.0708,4.0589,3.9547,3.7575,3.7575,3.5311,3.1605,3.1512,3.0264,2.8107,2.6044,2.5023,2.4689,2.268,2.1882,2.1923,2.1964,2.2045,2.2113,0.0,0.0,0.0,0.0,0.0,0.0,0.0,0.0,0.0,0.0,0.0,0.0,0.0,0.0,0.0,0.0,0.0,0.0,0.0,0.0,0.0,0.0,0.0,4.3966,4.1676,4.389,4.4042,4.2142,4.2348,4.2467,4.2586,4.3131,4.3125,4.2617,4.2539,4.2539,0.0,0.0,0.0,4.3398,4.4609,0.0,0.0,0.0,0.0,0.0,0.0,0.0,0.0,4.832,4.832,4.8359,4.875,0.0,0.0,0.0,0.0,0.0,4.8633,4.9258,4.9805,4.9414,4.9414,4.9492,4.9453,4.9141,4.8984,4.9453,4.9922,5.0586,5.1641,4.7796,4.5805,4.9904,4.7057,4.5473,4.894,4.7684,4.7215,4.9379,5.0181,5.0875,5.157,5.1463,4.9402,4.4475,4.3771,3.9671,3.1103,3.0644,2.8706,2.4912,2.4487,2.5953,2.9659,2.9456,3.1139,3.49,3.4577,3.4215,3.3633,3.3633,3.1519,2.7979,2.7782,2.5792,2.2696,2.252,2.2221,2.1896,2.2004,2.1896,2.172,2.195,2.1977,2.1896,0.0,0.0,0.0,0.0,0.0,0.0,0.0,0.0,0.0,0.0,0.0,0.0,0.0,0.0,0.0,0.0,0.0,0.0,0.0,0.0,0.0,4.1172,4.6241,4.7417,4.3739,4.7271,4.8328,4.6708,4.5778,4.554,4.5954,4.5131,4.4297,4.3476,4.3125,4.2969,4.3047,0.0,4.4258,4.4297,4.5195,0.0,0.0,0.0,0.0,0.0,0.0,0.0,0.0,4.875,4.875,4.8789,4.8828,0.0,0.0,0.0,0.0,0.0,5.0117,5.1016,5.1172,4.8945,4.8984,4.9414,4.9062,4.8906,4.8984,4.9453,5.0156,5.1289,5.3281,4.912,4.7072,5.2067,4.9212,4.7352,5.0185,4.8745,4.7803,4.9165,5.0074,5.0555,5.0448,5.0581,4.7488,3.965,3.8971,3.5076,2.6479,2.5986,2.5524,2.4596,2.4433,2.5895,2.9311,2.9143,3.0923,3.4536,3.4516,3.2788,2.9716,2.9716,2.7646,2.3876,2.3707,2.3216,2.2398,2.2099,2.195,2.1869,2.1774,2.1774,2.1842,2.176,2.1801,2.1896,0.0,0.0,0.0,0.0,0.0,0.0,0.0,0.0,0.0,0.0,0.0,0.0,0.0,0.0,0.0,0.0,0.0,0.0,0.0,0.0,0.0,4.125,4.6059,4.6936,4.2924,4.5923,4.6855,4.5528,4.5515,4.5712,4.6155,4.5345,4.4805,4.4375,4.3711,4.3672,4.4141,4.4336,4.4648,4.5117,0.0,0.0,0.0,0.0,0.0,0.0,0.0,0.0,0.0,0.0,4.8867,4.8867,4.8867,0.0,0.0,0.0,0.0,0.0,4.9297,5.0195,5.082,4.9844,4.9396,4.8725,4.6709,4.5985,4.5816,4.6634,4.6918,4.773,4.9689,4.7148,4.5665,4.808,4.7097,4.6567,4.8324,4.774,4.7535,4.8871,4.9539,5.002,5.0368,5.0528,4.8047,4.1846,4.1143,3.8292,3.2017,2.9475,2.8198,2.7859,2.7447,2.7833,2.9261,3.112,3.1772,3.1396,2.9432,2.7458,2.5762,2.5762,2.4889,2.3117,2.2981,2.2778,2.2574,2.2344,2.2099,2.1882,2.1815,2.172,2.1638,2.157,2.1638,2.1801,0.0,0.0,0.0,0.0,0.0,0.0,0.0,0.0,0.0,0.0,0.0,0.0,0.0,0.0,0.0,0.0,0.0,0.0,0.0,0.0,4.279,4.125,4.4503,4.4908,4.2032,4.4491,4.5268,4.418,4.5156,4.5781,4.6094,4.5586,4.5273,4.5156,4.4375,4.4375,4.5,4.4805,4.5078,4.5703,0.0,0.0,0.0,0.0,0.0,0.0,0.0,0.0,0.0,0.0,0.0,0.0,0.0,0.0,0.0,4.8867,4.8867,4.8867,4.8828,4.9217,4.98,5.0125,4.9841,4.8766,4.6092,4.4793,4.4251,4.4769,4.4899,4.5226,4.6661,4.5944,4.4951,4.4539,4.5318,4.6226,4.7135,4.7241,4.7749,4.9058,4.9326,4.9726,5.0528,5.0475,4.8678,4.4472,4.3767,4.1653,3.7539,3.4112,3.2189,3.2039,3.1317,3.1351,3.2004,3.2773,3.1716,2.8864,2.5905,2.4073,2.3225,2.3225,2.3225,2.3198,2.3022,2.2886,2.2764,2.2506,2.2194,2.1882,2.1815,2.1638,2.1435,2.1435,2.157,2.1747,0.0,0.0,0.0,0.0,0.0,0.0,0.0,0.0,0.0,0.0,0.0,0.0,0.0,0.0,0.0,0.0,0.0,0.0,0.0,0.0,4.1327,4.1172,4.1876,4.227,4.2383,4.5555,4.6659,4.5547,4.6797,4.7422,4.7422,4.6601,4.6016,4.5625,4.5156,4.4961,4.5039,4.543,4.5625,4.5703,4.6094,0.0,0.0,0.0,0.0,0.0,0.0,0.0,0.0,0.0,0.0,0.0,0.0,0.0,4.8867,4.8867,4.8867,4.9101,5.0312,4.9422,4.8244,4.8542,4.9715,5.0503,4.9863,4.8807,4.7652,4.6641,4.6735,4.7317,4.808,4.8044,4.7288,4.5184,4.6467,4.8043,4.8952,4.9112,4.9432,5.0341,5.002,4.994,5.0528,5.0074,4.8084,4.3951,4.3391,4.1406,3.7296,3.6441,3.6052,3.6012,3.5412,3.6536,3.9886,3.3069,2.9319,2.8864,2.8597,2.6619,2.3225,2.3225,2.3225,2.3198,2.2927,2.2805,2.2723,2.2167,2.1923,2.1842,2.1584,2.1462,2.1435,2.1435,2.1611,2.1869,0.0,0.0,0.0,0.0,0.0,0.0,0.0,0.0,0.0,0.0,0.0,0.0,0.0,0.0,0.0,0.0,0.0,0.0,0.0,4.1172,4.1172,4.1172,4.1836,4.2383,4.2812,4.5366,4.7153,4.8086,4.8555,4.8516,4.793,4.6836,4.6211,4.6016,4.5351,4.5312,4.582,4.5703,4.582,4.6094,4.6523,4.6523,0.0,0.0,0.0,0.0,0.0,0.0,0.0,0.0,4.8867,4.8867,4.8867,4.8867,4.8867,4.8867,4.8867,4.8984,4.9453,4.9915,5.0246,5.0663,5.0366,4.9205,4.6453,4.5694,4.514,4.3926,4.3907,4.431,4.4951,4.5701,4.6201,4.6315,4.7509,4.8791,4.9673,4.9673,4.9673,5.002,4.986,4.978,5.002,4.986,4.9103,4.7557,4.7153,4.628,4.4452,4.1868,4.0265,3.9975,3.9407,3.9703,4.0736,3.7777,3.5001,3.2385,2.7585,2.4632,2.3225,2.3225,2.3225,2.3198,2.29,2.2778,2.2751,2.2344,2.2059,2.1842,2.157,2.1435,2.1435,2.1435,2.157,2.176,0.0,0.0,0.0,0.0,0.0,0.0,0.0,0.0,0.0,0.0,0.0,0.0,0.0,0.0,0.0,0.0,0.0,0.0,4.1172,4.1172,4.1172,4.1172,4.1992,4.2773,4.3476,4.5586,4.75,4.9101,4.9375,4.9062,4.8164,4.7031,4.6445,4.6289,4.582,4.5937,4.6484,4.6211,4.6328,4.6719,4.6875,4.6836,0.0,0.0,0.0,0.0,0.0,0.0,0.0,0.0,4.8867,4.8867,4.8867,4.8867,4.8867,4.8867,4.8273,4.7903,4.8838,4.8747,4.8708,5.0322,4.9355,4.7382,4.4557,4.4166,4.4095,4.3121,4.2699,4.2699,4.3287,4.4115,4.5237,4.6814,4.8203,4.9379,5.0181,5.0047,4.986,4.986,4.9673,4.962,4.9726,4.9539,4.9432,4.9432,4.9165,4.8925,4.8711,4.5897,4.4185,4.3939,4.3354,4.2962,4.2595,3.9964,3.7331,3.4475,2.6888,2.3225,2.3225,2.3225,2.3225,2.3198,2.29,2.2778,2.2751,2.2411,2.2099,2.1801,2.1543,2.1435,2.1435,2.1435,2.1543,2.1692,0.0,0.0,0.0,0.0,0.0,0.0,0.0,0.0,0.0,0.0,0.0,0.0,0.0,0.0,0.0,0.0,0.0,0.0,4.1172,4.1172,4.1172,4.1172,4.1992,4.3047,4.4336,4.6484,4.7773,4.8242,4.9101,4.9062,4.8203,4.7344,4.6719,4.6328,4.6758,4.6953,4.6953,4.6953,4.7187,4.7539,4.7109,4.7187,4.7617,0.0,0.0,0.0,0.0,0.0,0.0,0.0,4.8867,4.8867,4.8867,4.8867,4.8867,4.8867,4.712,4.5659,4.8627,4.5634,4.2555,4.6546,4.6371,4.5147,4.5384,4.5401,4.5413,4.532,4.4142,4.3314,4.3928,4.4249,4.5024,4.6787,4.8551,4.994,5.0528,5.0341,5.0154,5.0154,4.9646,4.9379,4.9673,4.9165,4.8818,4.8818,4.8551,4.8364,4.8364,4.807,4.7936,4.7936,4.7081,4.6627,4.6487,3.8519,3.4475,3.4335,2.6746,2.3225,2.3225,2.3225,2.3225,2.3198,2.29,2.2778,2.2751,2.2289,2.1937,2.1652,2.1489,2.1435,2.1435,2.1435,2.1543,2.1692,0.0,0.0,0.0,0.0,0.0,0.0,0.0,0.0,0.0,0.0,0.0,0.0,0.0,0.0,0.0,0.0,0.0,0.0,4.1172,4.1172,4.1172,4.1172,4.168,4.2305,4.3008,4.5117,4.7344,4.9609,4.9219,4.8594,4.7773,4.7187,4.6875,4.6758,4.7187,4.7383,4.7383,4.7383,4.7461,4.7578,4.7773,4.7734,0.0,0.0,0.0,0.0,0.0,0.0,0.0,0.0,0.0,0.0,4.8867,4.9062,4.9258,4.8945,4.8598,4.7911,4.6653,4.5994,4.5591,4.5141,4.473,4.4758,4.5966,4.6578,4.6741,4.6674,4.5852,4.5318,4.5505,4.5799,4.6279,4.7215,4.8524,4.9673,5.0475,5.0341,5.0154,5.0154,4.9432,4.8978,4.9058,4.8738,4.8524,4.8524,4.8417,4.831,4.807,4.7963,4.7749,4.7322,4.7054,4.5419,4.2466,3.732,3.3366,3.0566,2.5634,2.3225,2.3225,2.3225,2.3171,2.3063,2.2873,2.2723,2.2588,2.2127,2.1896,2.1801,2.1543,2.1435,2.1435,2.1435,2.1543,2.1665,0.0,0.0,0.0,0.0,0.0,0.0,0.0,0.0,0.0,0.0,5.1163,0.0,0.0,0.0,0.0,0.0,0.0,0.0,0.0,4.1406,4.1367,4.1172,4.1719,4.2578,4.3711,4.5,4.6719,4.8906,4.8359,4.793,4.7578,4.7148,4.7031,4.7226,4.7656,4.7812,4.7812,4.7812,4.793,4.8086,4.8164,4.8164,4.8125,0.0,0.0,0.0,0.0,0.0,0.0,0.0,0.0,0.0,4.8867,4.9062,4.9297,4.9375,4.7855,4.6192,4.6308,4.5282,4.4088,4.3947,4.3966,4.4458,4.5872,4.6843,4.7596,4.7504,4.7028,4.676,4.7028,4.6921,4.7108,4.8043,4.8818,4.9513,5.0154,5.0074,4.994,4.9833,4.9219,4.8818,4.8818,4.8444,4.8203,4.8203,4.807,4.7936,4.7749,4.7642,4.7428,4.7054,4.5408,4.3249,4.0641,3.5162,3.1241,2.8864,2.5062,2.3185,2.313,2.3198,2.3158,2.2995,2.2723,2.2547,2.2425,2.1991,2.1828,2.1842,2.157,2.1435,2.1435,2.1435,2.1489,2.1584,0.0,0.0,0.0,0.0,0.0,0.0,0.0,0.0,0.0,0.0,5.2929,5.2189,0.0,0.0,0.0,0.0,0.0,0.0,0.0,0.0,4.1915,4.1561,4.215,4.3476,4.5469,4.5586,4.6016,4.6797,4.6875,4.7148,4.75,4.7148,4.7226,4.7656,4.8086,4.8281,4.8281,4.8281,4.8516,4.8828,4.8437,4.8516,4.8867,4.8867,0.0,0.0,0.0,0.0,0.0,0.0,0.0,0.0,4.8867,4.8906,4.9062,4.9883,4.6184,4.261,4.6799,4.3703,3.9953,4.2726,4.3985,4.4639,4.5266,4.6734,4.7963,4.7963,4.7829,4.7856,4.8444,4.7856,4.7749,4.9112,4.9326,4.9432,4.9673,4.9673,4.9566,4.9326,4.8952,4.8738,4.8738,4.823,4.7883,4.7856,4.7642,4.7455,4.7428,4.7215,4.6913,4.6552,4.2613,4.0221,3.9473,3.248,2.8722,2.8296,2.4904,2.313,2.3008,2.3158,2.3117,2.2927,2.2493,2.2303,2.2262,2.1842,2.1747,2.1828,2.1543,2.1435,2.1435,2.1435,2.1435,2.1462,0.0,0.0,0.0,0.0,0.0,0.0,0.0,0.0,0.0,0.0,0.0,0.0,0.0,0.0,0.0,0.0,0.0,0.0,0.0,0.0,4.4132,4.3973,4.3619,4.3633,4.4101,4.4805,4.543,4.5937,4.6601,4.6992,4.707,4.7305,4.7656,4.8086,4.8516,4.8711,4.8711,4.8711,4.8789,4.8867,4.875,4.8789,4.8867,4.8867,4.8867,0.0,0.0,0.0,0.0,0.0,0.0,0.0,4.8867,4.9101,4.9414,4.9609,4.7641,4.5305,4.497,4.2929,4.0891,4.1408,4.3512,4.5562,4.6204,4.7348,4.8257,4.8257,4.8818,4.9352,4.97,4.9432,4.9245,4.9566,4.962,4.9646,4.9726,4.9539,4.9352,4.9272,4.8577,4.8123,4.8123,4.7803,4.7509,4.7268,4.7402,4.7268,4.6841,4.7001,4.5549,4.2094,4.1133,3.758,3.147,2.9733,2.7458,2.436,2.3546,2.3049,2.3008,2.3049,2.2846,2.2466,2.2249,2.2099,2.1964,2.176,2.1692,2.1706,2.1516,2.1435,2.1435,2.1435,2.1435,2.1435,0.0,0.0,0.0,0.0,0.0,0.0,0.0,0.0,0.0,0.0,0.0,0.0,0.0,0.0,0.0,0.0,0.0,0.0,0.0,0.0,4.6158,4.5125,4.422,4.3906,4.4336,4.5,4.5625,4.6289,4.6719,4.7031,4.7266,4.7695,4.8125,4.8516,4.875,4.8867,4.8867,4.8867,4.8867,4.8867,4.8867,4.8867,4.8867,4.8867,4.8867,4.8867,4.8867,0.0,0.0,0.0,0.0,0.0,0.0,0.0,4.9297,4.9726,4.7273,4.4422,4.4672,4.2535,4.062,4.2247,4.4409,4.6279,4.6734,4.7642,4.8497,4.8925,4.9486,4.9967,5.01,5.0047,4.9833,4.9566,4.9379,4.9245,4.9112,4.9058,4.9005,4.8845,4.8444,4.807,4.7936,4.7669,4.7428,4.7295,4.7295,4.7161,4.6841,4.4972,4.2919,4.0641,3.6996,3.3064,2.9006,2.6952,2.5087,2.3117,2.2981,2.3651,2.5174,2.5174,2.5038,2.4904,2.4556,2.349,2.1869,2.1652,2.1597,2.1652,2.1489,2.1435,2.1435,2.1435,2.1435,2.1435,0.0,0.0,0.0,0.0,0.0,0.0,0.0,0.0,0.0,0.0,0.0,0.0,0.0,0.0,0.0,0.0,0.0,0.0,0.0,0.0,0.0,4.5628,4.4785,4.4596,4.5,4.5469,4.6094,4.6914,4.6992,4.7305,4.7812,4.8086,4.8437,4.8867,4.8867,4.8867,4.8867,4.8867,4.8906,4.8984,4.8906,4.8906,4.8984,4.8906,4.8867,4.8867,4.8867,4.8867,4.8867,4.8867,0.0,0.0,0.0,0.0,4.9023,4.9922,4.6634,4.3157,4.4948,4.2593,4.0333,4.3634,4.5531,4.6707,4.7001,4.7749,4.8631,4.9459,4.986,5.01,5.0234,5.01,4.9833,4.9352,4.8925,4.8577,4.8417,4.8471,4.8524,4.8337,4.8257,4.8123,4.7883,4.7642,4.7455,4.7348,4.7161,4.6719,4.5997,4.2564,4.0057,3.8586,3.2338,2.858,2.7886,2.463,2.3008,2.3008,2.3369,2.5578,2.9295,2.8528,2.7986,2.7579,2.7139,2.5023,2.1787,2.1543,2.1516,2.1625,2.1489,2.1435,2.1435,2.1435,2.1435,2.1435,0.0,0.0,0.0,0.0,0.0,0.0,0.0,0.0,0.0,0.0,5.3331,0.0,0.0,0.0,0.0,0.0,0.0,0.0,5.4518,0.0,0.0,4.6284,4.6649,4.6371,4.5,4.5469,4.6094,4.6914,4.7305,4.7891,4.8672,4.8359,4.8437,4.8867,4.8867,4.8867,4.8867,4.8867,4.9062,4.9414,4.9023,4.9101,4.9375,4.9023,4.8867,4.8867,4.8867,4.8867,4.8867,4.8867,4.8867,0.0,0.0,0.0,4.9023,4.9922,4.8148,4.576,4.5246,4.3456,4.2218,4.4008,4.5531,4.6707,4.7001,4.7749,4.8551,4.9219,4.9566,4.994,5.0448,4.9913,4.9379,4.9272,4.8577,4.8123,4.8337,4.7963,4.7749,4.7963,4.7749,4.7616,4.7562,4.7535,4.7268,4.676,4.6948,4.5304,4.1264,4.071,3.7418,3.0726,2.9432,2.7316,2.3929,2.3362,2.3008,2.3008,2.5609,3.0207,3.6163,3.2845,2.9619,2.7038,2.6953,2.4898,2.1489,2.1462,2.1462,2.1475,2.1435,2.1435,2.1435,2.1435,2.1435,2.1435,0.0,0.0,0.0,0.0,0.0,0.0,0.0,0.0,0.0,0.0,0.0,5.3632,0.0,0.0,0.0,5.4058,5.5133,5.5742,5.539,5.3472,5.1059,4.8327,4.8001,4.7028,4.5476,4.6055,4.668,4.7305,4.7734,4.8633,4.9961,5.0,4.9883,4.9609,4.9609,4.9453,4.9219,4.9219,4.9219,4.9141,4.8945,4.8828,4.8789,4.8828,4.8711,4.8516,4.8789,4.8867,4.8867,4.8867,4.8867,4.8867,4.8867,0.0,0.0,0.0,4.8437,4.6526,4.4917,4.4254,4.4054,4.4565,4.5531,4.652,4.6948,4.7749,4.8551,4.9165,4.9379,4.9539,4.9833,4.9539,4.9112,4.8631,4.8177,4.7936,4.7909,4.591,4.5232,4.7383,4.5781,4.5351,4.7366,4.7348,4.7135,4.6894,4.4806,4.254,4.0476,3.6326,3.248,2.9006,2.681,2.4802,2.3103,2.2805,2.2547,2.2371,2.3709,2.6755,3.1475,2.9713,2.9227,2.9788,2.7619,2.4679,2.1435,2.1435,2.1435,2.1435,2.1435,2.1435,2.1435,2.1435,2.1435,2.1435,0.0,0.0,0.0,0.0,0.0,0.0,0.0,0.0,0.0,0.0,0.0,0.0,0.0,0.0,0.0,0.0,5.5792,5.5842,5.544,5.4206,5.2434,5.0065,4.9313,4.7942,4.5907,4.6445,4.7109,4.7734,4.8047,4.9219,5.1133,5.1445,5.1562,5.1445,5.1016,5.0586,5.0156,4.9961,4.9805,4.9648,4.9062,4.8711,4.8555,4.8516,4.832,4.8125,4.8555,4.8711,4.8711,4.8828,4.8867,4.8867,4.8867,4.918,0.0,0.0,0.0,4.6842,4.4847,4.4577,4.4704,4.4179,4.4917,4.5959,4.676,4.7562,4.8337,4.8925,4.9058,4.9032,4.8952,4.9005,4.8818,4.8043,4.7829,4.7669,4.7535,4.5131,4.4413,4.7197,4.5181,4.4488,4.7224,4.7241,4.7028,4.6948,4.3034,4.0174,3.9124,3.2621,2.8421,2.7394,2.4601,2.2995,2.2954,2.2493,2.2523,2.3091,2.2947,2.4594,2.7799,2.6905,2.8018,3.0684,2.7704,2.4569,2.1435,2.1435,2.1435,2.1435,2.1435,2.1435,2.1435,2.1435,2.1435,2.1435,0.0,0.0,0.0,0.0,0.0,0.0,0.0,0.0,0.0,0.0,0.0,0.0,0.0,5.5039,5.539,5.539,5.544,5.544,5.539,5.6198,5.4902,5.076,5.1014,0.0,4.6337,4.6328,4.6953,4.8164,4.8203,4.9531,5.2031,5.2031,5.3125,5.4961,5.332,5.2344,5.1914,5.1094,5.1211,5.1719,4.9687,4.9101,4.9336,4.8125,4.7617,4.7656,4.8086,4.8242,0.0,0.0,0.0,4.8867,4.8867,4.918,4.9609,0.0,0.0,0.0,4.5445,4.4001,4.276,4.216,4.3233,4.4917,4.6333,4.7108,4.7722,4.831,4.8417,4.8337,4.8043,4.823,4.831,4.7963,4.7455,4.7215,4.7455,4.7126,4.6932,4.7455,4.7366,4.7224,4.7509,4.7241,4.6948,4.6654,4.2935,3.8984,3.5078,3.1114,2.7252,2.3449,2.3151,2.294,2.2805,2.2344,2.3505,2.642,2.6219,2.7973,3.1073,2.7775,2.6338,2.6655,2.6565,2.4563,2.1435,2.1435,2.1435,2.1435,2.1435,2.1435,2.1435,2.1435,2.1435,2.1435,0.0,0.0,0.0,0.0,0.0,0.0,0.0,0.0,0.0,0.0,0.0,0.0,0.0,5.5591,5.6043,5.6394,5.6796,5.6997,5.6997,5.7349,5.5901,5.207,5.2131,5.063,4.7198,4.7383,4.7734,4.8203,4.8476,4.9648,5.168,5.2226,5.3359,5.4883,5.3945,5.3164,5.2422,5.1562,5.1055,5.0742,4.9414,4.8789,4.8594,4.7851,4.7422,4.7226,4.7656,0.0,0.0,0.0,0.0,0.0,0.0,0.0,5.043,5.0859,5.0493,4.9653,4.8138,4.6133,4.4293,4.3454,4.3469,4.3821,4.473,4.6253,4.7562,4.7749,4.8123,4.831,4.7963,4.8016,4.8016,4.7722,4.7455,4.7402,4.7509,4.5213,4.4592,4.7171,4.529,4.4667,4.7073,4.6948,4.6654,4.636,4.0384,3.6122,3.4636,2.8597,2.4574,2.3008,2.2818,2.2466,2.1937,2.176,2.2167,2.2964,2.2917,2.3457,2.4533,2.3267,2.2783,2.2857,2.2994,2.2527,2.1435,2.134,2.1353,2.1435,2.1435,2.1435,2.1435,2.1435,2.1516,2.1584,0.0,0.0,0.0,0.0,0.0,0.0,0.0,0.0,0.0,0.0,0.0,0.0,0.0,0.0,5.7298,5.7801,5.8202,5.8353,5.8202,5.7767,5.6087,5.2794,5.2319,5.0759,4.7864,4.793,4.8125,4.8437,4.8555,4.9687,5.168,5.2226,5.3359,5.4883,5.4297,5.3789,5.332,5.2617,5.1797,5.0898,4.9609,4.8984,4.8828,4.8398,4.7969,4.7656,4.8242,0.0,0.0,0.0,0.0,0.0,0.0,0.0,0.0,5.1289,5.1445,5.0956,4.9071,4.6782,4.4838,4.406,4.2789,4.2191,4.3795,4.5264,4.6493,4.7108,4.7616,4.7909,4.7803,4.7776,4.7722,4.7535,4.7509,4.7509,4.7509,4.529,4.4575,4.7197,4.5147,4.4617,4.694,4.6814,4.652,4.6226,4.0104,3.5877,3.4636,2.858,2.4374,2.2873,2.252,2.2045,2.1435,2.1394,2.1218,2.0933,2.077,2.0702,2.0702,2.0756,2.077,2.0783,2.1041,2.1231,2.1353,2.1313,2.1353,2.1435,2.1435,2.1475,2.1516,2.1516,2.1611,2.1747,0.0,0.0,0.0,0.0,0.0,0.0,0.0,0.0,0.0,0.0,0.0,0.0,0.0,0.0,0.0,5.9508,5.9558,5.9307,5.8728,5.7539,5.5649,5.2846,5.1531,5.0107,4.8294,4.7812,4.8008,4.8867,4.8437,4.9531,5.2031,5.2031,5.3164,5.5195,5.4414,5.4258,5.4609,5.4141,5.3476,5.2539,5.043,4.9844,5.0195,4.9726,4.9258,4.9023,4.9883,4.9648,0.0,4.8945,0.0,0.0,0.0,0.0,0.0,0.0,5.1445,5.0822,0.0,0.0,0.0,4.3218,4.102,4.0027,4.3501,4.4115,4.4436,4.6199,4.6814,4.7108,4.7428,4.7509,4.7509,4.7509,4.7509,4.7509,4.7509,4.7455,4.7455,4.7455,4.7455,4.7348,4.7054,4.676,4.6467,4.6199,4.2375,3.855,3.4896,3.0972,2.6919,2.2673,2.2099,2.172,2.1421,2.1285,2.1055,2.077,2.0607,2.0539,2.0539,2.0702,2.077,2.077,2.0933,2.1082,2.1218,2.1367,2.1435,2.1435,2.1435,2.153,2.1665,2.1665,2.1774,2.1896,0.0,0.0,0.0,0.0,0.0,0.0,0.0,0.0,0.0,0.0,0.0,0.0,0.0,0.0,6.0563,6.0713,6.0713,5.998,5.8137,5.7649,5.5777,5.2001,5.1513,5.0469,4.8764,4.8555,4.8633,4.8867,4.875,4.9375,5.0703,5.1016,5.1953,5.3476,5.418,5.4023,5.3242,5.2812,5.2851,5.3008,5.1172,5.0898,5.1406,5.0039,4.9648,4.9844,5.0078,5.0625,5.1133,0.0,5.1328,5.2031,0.0,0.0,0.0,0.0,0.0,5.1208,4.8267,0.0,0.0,0.0,0.0,0.0,4.0294,4.171,4.3153,4.473,4.5451,4.6092,4.7028,4.7348,4.7509,4.7509,4.7322,4.7188,4.7188,4.7001,4.6867,4.6867,4.6867,4.6734,4.644,4.636,4.6199,4.5905,4.2276,3.9685,3.855,3.2087,2.65,2.2222,2.1747,2.1421,2.1123,2.096,2.0783,2.0607,2.0553,2.0539,2.0539,2.0702,2.0716,2.0634,2.1001,2.1123,2.1068,2.1218,2.134,2.1435,2.1435,2.153,2.1692,2.1801,2.1991,2.2235,0.0,0.0,0.0,0.0,0.0,5.7901,5.7901,5.7901,0.0,0.0,0.0,0.0,0.0,0.0,0.0,6.1868,6.1011,5.9674,5.8153,5.6422,5.4339,5.1673,5.0812,4.9924,4.8959,4.8867,4.8945,4.9141,4.9141,4.957,5.043,5.0703,5.1406,5.25,5.3242,5.3359,5.2969,5.2539,5.2539,5.2773,5.2148,5.2266,5.2752,5.0953,5.0303,5.0278,4.9083,0.0,4.9392,5.0053,5.1582,0.0,0.0,0.0,0.0,0.0,0.0,4.8361,4.6597,4.4221,4.2058,4.0951,0.0,0.0,3.9519,4.0615,4.1817,4.3661,4.4623,4.5424,4.6333,4.6841,4.7161,4.7295,4.6948,4.6787,4.7028,4.6814,4.6627,4.6627,4.6627,4.652,4.6226,4.6199,4.6066,4.5772,4.3504,4.0831,3.757,2.9891,2.442,2.1936,2.1489,2.1218,2.0919,2.0824,2.0702,2.0539,2.0539,2.0539,2.0539,2.0634,2.0661,2.0648,2.0987,2.1109,2.1109,2.1245,2.1408,2.153,2.153,2.1665,2.1869,2.195,2.2167,2.2452,0.0,0.0,5.6846,5.7901,5.8102,5.8202,5.8252,5.8252,0.0,0.0,0.0,0.0,0.0,0.0,0.0,0.0,6.0528,5.8864,5.7888,5.4391,5.1998,5.1224,4.9731,4.8945,4.8945,4.8984,4.9219,4.9609,4.9609,5.0039,5.0859,5.0859,5.1328,0.0,5.2187,5.2617,5.3281,5.3047,5.2695,5.2383,5.3164,5.3624,5.3589,5.1902,5.0903,4.99,4.7489,4.6237,4.5942,4.7896,5.0057,0.0,0.0,0.0,0.0,0.0,4.6475,4.4134,4.3855,4.2036,0.0,4.1017,3.8915,0.0,3.992,4.0187,4.0481,4.2726,4.3848,4.4623,4.5264,4.5879,4.636,4.66,4.6306,4.6253,4.6921,4.6734,4.652,4.652,4.652,4.644,4.6146,4.6146,4.5874,4.517,4.4418,4.0782,3.3268,2.626,2.2192,2.1625,2.134,2.1055,2.077,2.0756,2.0689,2.0539,2.0539,2.0539,2.0539,2.058,2.0661,2.0783,2.096,2.1109,2.1231,2.1367,2.153,2.1665,2.1665,2.1842,2.2113,2.2127,2.2316,2.2588,5.5942,5.7248,5.8453,5.9056,5.9558,6.001,6.0462,6.0563,6.0563,6.0713,6.1165,0.0,0.0,0.0,0.0,0.0,5.9559,5.7731,5.3818,5.2839,5.1445,4.9537,4.9419,4.9414,4.9414,4.9726,4.9961,5.0039,5.0039,5.0469,5.1328,5.1328,5.1758,5.2617,5.2969,5.3008,5.2891,5.3867,5.4062,5.3711,5.4219,5.3577,5.2198,5.155,4.9883,4.7778,4.7289,4.7197,4.7453,4.7579,4.7154,4.6988,0.0,0.0,0.0,4.802,0.0,0.0,0.0,0.0,0.0,0.0,3.7072,0.0,3.7889,3.837,3.9065,4.0722,4.139,4.2004,4.3073,4.3741,4.4062,4.3901,4.4596,4.5505,4.6547,4.6253,4.5932,4.5932,4.5932,4.5905,4.5825,4.5825,4.4431,4.1219,3.7964,3.3886,2.899,2.7275,2.4874,2.1458,2.1123,2.0946,2.077,2.0648,2.058,2.0539,2.0539,2.0539,2.0539,2.0811,2.0865,2.0783,2.1177,2.1299,2.1231,2.1367,2.153,2.1665,2.1665,2.1842,2.2127,2.2249,2.2479,2.2751,5.6897,5.7951,5.8956,5.9759,6.0111,6.0512,6.1115,6.1165,6.1366,6.1918,6.2722,6.3224,0.0,0.0,0.0,0.0,0.0,0.0,0.0,5.1667,5.0675,4.9272,4.9609,4.9844,4.9844,5.0273,5.0586,5.082,5.1016,5.1445,5.207,5.207,5.2187,5.2422,5.3086,5.3242,5.3086,5.4219,5.4051,5.3134,5.5109,5.5551,5.4647,5.1908,4.9972,4.8423,4.5184,4.5007,4.6055,4.5053,4.5343,0.0,4.7425,4.5497,4.3308,0.0,4.361,4.0793,0.0,0.0,0.0,3.7286,0.0,0.0,0.0,3.829,3.8825,4.0,4.0615,4.1122,4.1871,4.2485,4.2913,4.3046,4.3607,4.4249,4.497,4.5451,4.5745,4.5745,4.5745,4.5665,4.5531,4.3872,4.104,3.6924,3.3011,2.971,2.7488,2.5541,2.3465,2.1123,2.1041,2.0892,2.0661,2.058,2.0539,2.0539,2.0539,2.058,2.0661,2.0824,2.0933,2.1001,2.1231,2.134,2.134,2.1408,2.1584,2.1774,2.1774,2.1923,2.214,2.2357,2.2588,2.2805,5.7901,5.8504,5.9207,6.0311,6.0462,6.0713,6.1416,6.1517,6.1868,6.2873,6.3776,6.4011,6.3244,0.0,0.0,0.0,0.0,0.0,0.0,5.0929,4.9883,4.9531,5.0039,5.0273,5.0195,5.0742,5.1211,5.1562,5.1992,5.2422,5.2851,5.2851,5.2695,5.25,5.3086,5.3437,5.3672,5.4453,5.3678,5.2271,5.5379,5.6162,5.4912,5.082,4.9073,4.792,4.2724,4.2054,4.3489,4.1945,4.3497,4.5741,4.5128,4.336,0.0,0.0,0.0,0.0,0.0,0.0,0.0,0.0,0.0,3.8103,0.0,0.0,0.0,3.9706,4.0187,4.0535,4.0802,4.1283,4.1737,4.2031,4.2405,4.2699,4.2752,4.4115,4.5104,4.5237,4.5264,4.494,4.4025,4.0022,3.5937,3.2396,2.8569,2.6403,2.5959,2.3068,2.1313,2.1055,2.1014,2.0865,2.0594,2.0553,2.0539,2.0539,2.0539,2.0634,2.077,2.0811,2.096,2.1218,2.1245,2.1313,2.1435,2.1435,2.1597,2.1842,2.1869,2.2004,2.2221,2.2466,2.2683,2.2846,5.8604,5.9056,5.9759,6.0864,6.1065,6.1416,6.2471,6.2621,6.2873,6.3525,6.3726,6.3126,6.1298,0.0,0.0,0.0,0.0,0.0,5.2146,0.0,4.957,4.9531,5.0312,5.0547,5.0195,5.1328,5.1953,5.1992,5.2422,5.2851,5.3281,5.3281,5.3476,5.3789,5.3476,5.3789,5.457,5.5039,5.4093,5.2483,5.4048,5.1222,4.6043,4.5735,4.404,4.1599,4.0751,4.0724,4.0897,0.0,4.012,4.0861,0.0,4.1114,3.8909,4.1846,0.0,0.0,0.0,0.0,0.0,0.0,3.8397,0.0,3.8718,0.0,3.8825,3.9081,0.0,3.8985,3.9012,0.0,0.0,3.8531,3.9974,4.0909,4.0134,4.1523,4.2806,4.334,4.3634,4.2559,3.9424,3.291,2.8633,2.8161,2.4428,2.2153,2.1993,2.1581,2.1367,2.119,2.1068,2.0919,2.0756,2.0607,2.0539,2.0539,2.0539,2.0634,2.077,2.0919,2.1055,2.1218,2.1353,2.1421,2.1435,2.1435,2.1543,2.1706,2.1828,2.2127,2.2506,2.2534,2.2723,2.2995,5.9106,5.9608,6.0211,6.1065,6.1466,6.1918,6.2722,6.3927,6.468,6.463,6.4482,6.4045,6.3359,0.0,0.0,0.0,0.0,5.3883,0.0,0.0,0.0,5.0625,5.1445,5.1719,5.1289,5.2031,5.2578,5.2812,5.3008,5.332,5.375,5.375,5.3711,5.3672,5.3984,5.3486,5.2382,5.3014,5.1173,4.7866,4.8629,4.6243,4.2685,4.4751,4.3573,4.0695,4.0535,4.0481,4.0374,3.9599,3.9466,0.0,0.0,0.0,0.0,4.0666,0.0,0.0,0.0,0.0,0.0,0.0,0.0,0.0,3.9225,0.0,3.9279,0.0,0.0,0.0,0.0,0.0,0.0,0.0,3.9466,4.0027,3.9626,4.0508,4.1577,4.2485,4.2833,4.0849,3.5283,3.007,2.6141,2.3858,2.232,2.1408,2.1313,2.1394,2.134,2.1082,2.1041,2.0878,2.0648,2.058,2.0539,2.0539,2.0539,2.0661,2.0919,2.096,2.1123,2.1353,2.1408,2.1435,2.1435,2.153,2.1652,2.1815,2.2059,2.2276,2.2466,2.2723,2.29,2.3022,5.9859,0.0,6.0512,6.1065,6.1617,6.227,6.2973,6.4429,6.5228,6.4691,6.4432,6.4131,6.3729,6.1586,0.0,0.0,5.6819,5.5223,0.0,0.0,5.2148,0.0,0.0,0.0,0.0,5.2539,5.3047,5.3359,5.3476,5.3711,5.4023,5.4023,5.3906,5.375,5.4531,5.3977,5.263,5.2417,5.0085,4.6427,4.5623,4.3687,4.1396,4.3813,4.3088,4.0882,4.0668,4.0535,4.0374,3.9626,3.9599,3.9786,3.9412,3.9493,3.9733,0.0,0.0,0.0,3.968,0.0,0.0,0.0,0.0,0.0,0.0,0.0,0.0,0.0,3.9546,0.0,0.0,0.0,3.8825,3.8798,0.0,3.9306,3.9118,3.9626,4.0374,4.139,4.0158,3.6964,3.0792,2.7139,2.3945,2.1219,2.1055,2.1136,2.1163,2.1258,2.1245,2.1068,2.1923,2.1754,2.0607,2.1442,2.1428,2.0539,2.058,2.0729,2.1001,2.1041,2.119,2.1435,2.1435,2.1462,2.1516,2.1625,2.1774,2.1977,2.2289,2.2425,2.2493,2.2873,2.3022,2.3076,6.1014,6.0713,6.0512,6.1065,6.1617,6.237,6.3475,6.3726,6.3637,6.31,6.2937,6.236,6.0606,5.963,0.0,0.0,0.0,5.5691,5.6367,0.0,5.2734,0.0,0.0,5.2305,0.0,0.0,5.3359,5.3359,5.3789,5.4023,5.4023,5.4023,0.0,0.0,5.5078,5.6211,5.7484,5.4763,5.2742,5.1262,4.7773,4.4544,4.171,4.1567,4.1176,4.0909,4.0909,4.0722,4.0428,4.0107,4.0214,4.0321,3.9786,3.9786,3.992,3.9332,0.0,3.9599,0.0,0.0,0.0,4.0027,0.0,0.0,0.0,0.0,4.0027,0.0,0.0,0.0,0.0,0.0,0.0,0.0,3.837,0.0,0.0,3.8397,3.9012,3.9599,3.4384,2.9404,2.6202,2.2801,2.0762,2.077,2.0526,2.0553,2.0987,2.1014,2.1068,2.119,2.4256,2.4212,2.077,2.3881,2.3677,2.0539,2.0702,2.0838,2.1001,2.1136,2.1299,2.1435,2.1435,2.153,2.1665,2.1665,2.1842,2.2127,2.2425,2.2642,2.2778,2.2954,2.3103,2.3225,0.0,6.1316,6.1517,6.1667,6.2169,6.3023,6.453,6.2856,6.259,6.5872,6.4162,6.3128,6.4061,6.2405,6.138,0.0,0.0,5.9023,5.8711,5.7226,0.0,0.0,0.0,5.457,0.0,0.0,0.0,0.0,5.4375,5.4453,5.4453,5.4453,5.4844,0.0,5.5976,5.5989,5.5428,5.2684,5.0468,4.8572,4.5039,4.3283,4.2592,4.1897,4.1443,4.1149,4.0989,4.0829,4.0775,4.0642,4.0535,4.0481,4.0481,4.0401,4.0294,4.008,4.0107,4.0214,0.0,0.0,4.0615,4.0615,0.0,0.0,0.0,0.0,0.0,0.0,0.0,0.0,0.0,0.0,0.0,0.0,0.0,0.0,0.0,3.8584,3.8035,3.6247,3.2301,2.8603,2.5618,2.2062,2.0064,2.0309,2.0132,2.1171,2.3519,2.4133,2.5432,2.7394,2.8724,2.7777,2.431,2.5146,2.385,2.0702,2.0756,2.0892,2.1136,2.119,2.1353,2.1597,2.1597,2.1665,2.1828,2.2018,2.2167,2.2303,2.2696,2.2886,2.2954,2.3103,2.3185,2.3225,6.237,6.2621,6.2672,6.2119,6.2184,6.2784,6.421,6.2781,6.2637,6.556,6.4551,6.424,6.5848,6.4394,6.3555,0.0,6.332,6.1992,6.039,5.9765,0.0,5.6875,5.6992,0.0,0.0,0.0,0.0,0.0,0.0,5.4596,5.3615,5.4545,5.5351,0.0,5.6797,5.687,5.6391,5.2659,5.0602,4.9466,4.4752,4.2939,4.302,4.2485,4.2004,4.1603,4.131,4.1149,4.1042,4.1042,4.0935,4.0802,4.1016,4.0882,4.0615,4.0508,4.0561,4.0668,4.0722,4.0909,0.0,4.1042,4.1042,0.0,4.0695,0.0,4.0989,0.0,0.0,0.0,0.0,0.0,0.0,0.0,0.0,0.0,0.0,3.8718,3.7581,3.4418,3.1277,2.8217,2.5155,2.1749,2.0213,2.1144,2.128,2.2815,2.606,2.7002,2.8332,3.0464,3.2132,3.0679,2.6075,2.7018,2.5246,2.077,2.0878,2.1041,2.1218,2.1313,2.1475,2.1665,2.172,2.1869,2.2059,2.2249,2.2411,2.2534,2.2873,2.3008,2.3022,2.3171,2.3225,2.3225,6.458,6.453,6.4128,6.2621,6.1777,6.1759,6.2984,6.3475,6.3386,6.2582,6.424,6.5563,6.5755,6.543,6.5703,6.6914,6.6289,6.457,6.168,6.2187,0.0,0.0,5.875,5.8789,5.75,0.0,0.0,0.0,0.0,5.4451,5.1586,5.4177,5.5859,5.668,5.7539,5.8906,6.0089,5.4767,5.3139,5.3747,4.6823,4.3634,4.3127,4.3127,4.2779,4.2245,4.1924,4.163,4.139,4.139,4.1363,4.1363,4.1363,4.1176,4.0909,4.0588,4.0695,4.0829,4.0588,4.0909,4.1336,4.1336,4.1336,0.0,0.0,0.0,4.1283,0.0,0.0,0.0,0.0,0.0,0.0,0.0,0.0,0.0,3.8718,3.8718,3.7529,3.451,3.1386,2.8322,2.4915,2.2024,2.1148,2.3423,2.3927,2.5398,2.8364,2.9341,3.017,3.074,3.4471,3.3224,2.6346,2.9558,2.7777,2.0783,2.1082,2.1231,2.1245,2.1543,2.1692,2.1706,2.1842,2.2072,2.2357,2.2371,2.2534,2.2818,2.2954,2.3022,2.3049,2.3171,2.3225,2.3225,6.458,6.5484,6.6438,6.684,6.4236,6.3212,6.6062,6.408,6.3203,6.5868,6.6389,6.6999,6.8242,6.8633,6.8867,6.9219,6.875,0.0,0.0,0.0,0.0,6.3515,6.2539,6.1719,6.1055,5.9805,0.0,5.3245,0.0,5.5326,5.2416,5.532,5.7031,5.7578,5.8437,5.9648,6.0746,5.7634,5.4121,5.0451,4.5774,4.3901,4.3741,4.3501,4.3447,4.342,4.2432,4.2058,4.1951,4.1737,4.1684,4.1684,4.1684,4.163,4.147,4.0935,4.0829,4.0909,4.0802,4.1042,4.1336,4.1336,4.1497,4.1603,0.0,0.0,0.0,0.0,0.0,0.0,0.0,0.0,0.0,0.0,0.0,0.0,0.0,3.8718,3.8369,3.7529,3.4363,3.1006,2.8226,2.6664,2.6131,2.6922,2.6961,2.8383,3.1721,3.3156,3.5023,3.7848,3.9264,3.6822,3.0172,3.0839,2.7775,2.1109,2.1299,2.1435,2.157,2.1747,2.195,2.2167,2.2194,2.2398,2.2669,2.2805,2.2886,2.2954,2.3117,2.3171,2.3171,2.3198,2.3225,2.3225,6.5814,6.7643,6.9501,7.0606,6.8671,6.7093,6.7677,6.4102,6.2577,6.5779,6.6931,6.7851,6.8789,7.0078,7.1015,7.1211,7.082,7.0195,6.9453,0.0,0.0,6.6211,6.5234,6.4258,6.3242,6.1523,0.0,5.44,0.0,5.601,5.3209,5.5929,5.7539,5.8203,5.8672,5.9531,6.0281,5.7091,5.3346,4.9076,4.571,4.4382,0.0,4.4195,4.4222,4.4302,4.3501,4.302,4.2752,4.2619,4.2485,4.2325,4.2218,4.2165,4.2031,4.147,4.1283,4.1283,4.1122,4.1229,4.1336,4.1336,4.1443,4.155,4.139,4.1497,4.1577,0.0,4.1416,4.131,0.0,0.0,0.0,0.0,0.0,0.0,0.0,0.0,3.9065,3.8931,3.7051,3.5066,3.3571,2.9889,2.844,3.004,3.0225,3.1477,3.4543,3.6329,3.8069,3.9987,3.9491,3.6728,3.1631,3.0115,2.6678,2.1313,2.1475,2.1611,2.1774,2.1923,2.2113,2.2344,2.2411,2.2601,2.2886,2.2981,2.3049,2.3117,2.3185,2.3225,2.3225,2.3225,2.3225,2.3225,6.7454,6.9954,7.2146,7.3043,7.2516,7.107,6.8544,6.4956,6.3208,6.4805,6.7344,6.8945,6.8945,7.0976,7.25,7.2969,7.2578,7.1836,7.0742,7.082,6.9844,6.7578,6.7265,6.6116,6.4114,6.2295,5.9,0.0,0.0,5.6064,5.3484,5.6162,5.789,5.8594,5.8672,5.8917,5.9092,5.506,5.1699,4.8958,4.604,4.489,4.489,4.4917,4.4943,4.4917,4.4703,4.4195,4.3634,4.3607,4.3394,4.31,4.2833,4.2726,4.2565,4.2004,4.179,4.1684,4.139,4.1283,4.1283,4.1283,4.131,4.1336,4.139,4.1416,4.1497,4.179,4.1603,4.1416,0.0,0.0,0.0,0.0,0.0,0.0,0.0,0.0,0.0,3.9199,3.8714,0.0,3.8735,3.2757,2.9987,3.3052,3.3596,3.4666,3.6812,3.8611,3.9309,3.9005,3.7379,3.4747,3.1069,2.8357,2.5188,2.153,2.1665,2.1801,2.1923,2.2072,2.2221,2.2371,2.252,2.2751,2.3008,2.3022,2.3117,2.3225,2.3225,2.3225,2.3225,2.3225,2.3225,2.3225,6.7583,6.9932,7.1658,7.1318,6.9538,6.8718,7.0214,7.0295,6.9832,6.9127,7.1367,7.293,7.293,7.3672,7.4297,7.4765,7.4062,7.3672,7.3789,7.25,0.0,7.0625,6.9219,6.6642,6.259,6.0444,5.5862,0.0,0.0,5.3636,5.033,5.6141,5.8906,5.9062,5.9414,5.8634,5.6791,5.4318,5.1542,4.8466,4.598,4.489,4.4917,4.5131,4.5237,4.5264,4.5451,4.497,4.4249,4.4008,4.3714,4.3447,4.3394,4.3046,4.2592,4.2245,4.179,4.1336,4.1042,4.0989,4.0989,4.0989,4.1149,4.1416,4.163,4.171,4.179,4.2084,4.1897,4.171,4.171,0.0,0.0,0.0,0.0,0.0,0.0,0.0,0.0,0.0,3.6338,3.5821,3.9149,3.7307,3.6266,3.6858,3.6963,3.7058,3.7301,3.8531,3.8007,3.5538,3.5714,3.3272,2.7759,2.7184,2.5251,2.1991,2.2018,2.2045,2.2072,2.2235,2.2371,2.252,2.2683,2.2846,2.3022,2.313,2.3198,2.3225,2.3225,2.3225,2.3225,2.3225,2.3225,2.3225,7.0729,7.118,7.1863,7.4218,7.1881,7.0534,7.2829,7.3264,7.2646,7.0641,7.1875,7.293,7.293,7.4297,7.543,7.5859,7.5117,7.4687,7.4883,7.3515,7.2305,7.1406,6.835,6.5213,6.2322,5.8351,5.4127,4.9711,0.0,0.0,5.1896,5.4903,5.7415,5.918,5.7493,5.5516,5.3198,5.0885,4.9368,4.8288,4.5958,4.5291,4.5585,4.5718,4.5745,4.5799,4.5932,4.5611,4.505,4.4756,4.4356,4.3928,4.3634,4.3233,4.2779,4.2191,4.1684,4.131,4.1149,4.0909,4.0722,4.0882,4.0909,4.1016,4.1443,4.155,4.171,4.2325,4.2325,4.2191,4.2031,4.1283,0.0,0.0,0.0,0.0,0.0,0.0,0.0,0.0,0.0,0.0,3.9214,3.8718,3.829,3.829,3.829,3.8023,3.7408,3.8664,3.7796,3.4534,3.3771,3.1238,2.6937,2.544,2.3825,2.2344,2.2344,2.2344,2.2344,2.2411,2.2534,2.2683,2.2751,2.29,2.313,2.3185,2.3225,2.3225,2.3225,2.3225,2.3225,2.3225,2.3225,2.3225,7.2876,7.1942,7.2006,7.6091,7.4056,7.2399,7.4024,7.4639,7.4062,7.1953,7.2422,7.2969,7.2969,7.4883,7.6289,7.6601,7.5859,7.5351,7.5351,7.4062,7.2812,7.1719,6.7151,6.3619,6.1395,5.5949,5.211,0.0,0.0,0.0,5.2925,5.3556,5.5428,5.794,5.4673,5.183,4.9482,4.7834,4.7323,4.7478,4.6019,4.5745,4.6306,4.6306,4.6306,4.6253,4.6226,4.6039,4.5772,4.5505,4.5024,4.4436,4.3901,4.342,4.2939,4.2191,4.171,4.1443,4.1443,4.1016,4.0615,4.0829,4.0722,4.0695,4.1229,4.1443,4.1737,4.2512,4.2699,4.2646,4.2298,4.163,0.0,0.0,0.0,0.0,0.0,0.0,0.0,0.0,0.0,0.0,3.9054,3.84,3.8126,3.8522,3.8584,3.821,3.7515,3.7942,3.6696,3.3161,3.1043,2.8761,2.5791,2.3595,2.2547,2.2642,2.2588,2.2547,2.2547,2.252,2.2588,2.2723,2.2764,2.2954,2.3225,2.3225,2.3225,2.3225,2.3225,2.3225,2.3225,2.3225,2.3225,2.3225,7.0165,7.0749,7.1684,7.2194,7.1493,7.1143,7.2125,7.4202,7.5508,7.4883,7.5547,7.6094,7.6094,7.668,7.707,7.7148,7.6328,7.582,7.582,7.4258,7.3086,7.2578,6.7486,6.2756,5.8656,5.3294,4.8172,0.0,0.0,4.7569,4.9255,5.2825,5.4483,5.4382,5.1851,4.9062,4.6526,4.7322,4.6757,4.5186,4.5587,4.6066,4.6573,4.6573,4.6573,4.6547,4.6306,4.6199,4.6119,4.5825,4.5318,4.4783,4.4436,4.3795,4.302,4.2699,4.2191,4.1737,4.1737,4.131,4.0882,4.0909,4.0882,4.0935,4.1256,4.1737,4.2218,4.2592,4.2886,4.2886,4.2325,4.2138,4.1817,0.0,0.0,0.0,0.0,0.0,4.0267,3.968,0.0,0.0,3.8846,3.6703,3.6006,3.8229,3.805,3.7863,3.7782,3.5325,3.2449,2.9317,2.7289,2.5061,2.2382,2.2318,2.2574,2.2954,2.2696,2.2547,2.2547,2.2411,2.2452,2.2588,2.2723,2.2954,2.3225,2.3225,2.3225,2.3225,2.3225,2.3225,2.3225,2.3225,2.3225,2.3225,7.2746,7.1607,7.1453,7.4857,7.3312,7.2109,7.4023,7.539,7.6211,7.6015,7.6719,7.7187,7.6953,7.7305,7.7461,7.7187,7.6406,7.5742,7.5508,7.1916,6.9523,6.889,6.2225,5.7457,5.5153,5.024,4.6256,0.0,0.0,0.0,0.0,4.8271,4.9115,4.9515,4.8487,4.6729,4.4585,4.545,4.555,4.5211,4.5959,4.652,4.6894,4.6894,4.676,4.6627,4.6467,4.6226,4.5905,4.5772,4.5344,4.4837,4.4543,4.3821,4.2993,4.2539,4.2111,4.179,4.179,4.1497,4.1149,4.1149,4.1149,4.1203,4.131,4.179,4.2352,4.2833,4.302,4.302,4.2806,4.2325,4.1844,4.1497,0.0,0.0,0.0,0.0,0.0,0.0,0.0,3.7889,3.8815,3.7944,3.7708,3.8708,3.8691,3.7501,3.5185,3.4223,3.1332,2.6439,2.5989,2.4616,2.1882,2.2452,2.2873,2.313,2.3008,2.29,2.2818,2.2764,2.2778,2.2832,2.2981,2.3117,2.3225,2.3225,2.3225,2.3225,2.3225,2.3225,2.3225,2.3225,2.3225,2.3499,7.4323,7.2659,7.2254,7.6727,7.5136,7.3789,7.5742,7.6328,7.6562,7.668,7.7344,7.7656,7.7265,7.7461,7.7539,7.7187,7.6484,7.539,7.3818,7.0042,6.7106,6.5159,5.8452,5.4804,5.511,4.9386,4.6239,4.5829,4.3805,0.0,4.6248,4.5799,4.6159,4.681,4.6136,4.5232,4.4088,4.4703,4.5344,4.6012,4.6547,4.6921,4.7215,4.7215,4.7028,4.6734,4.6654,4.6306,4.5852,4.5772,4.5424,4.4943,4.4543,4.3901,4.3127,4.2619,4.2218,4.1924,4.2004,4.1737,4.1497,4.1497,4.1497,4.1497,4.1497,4.2004,4.2619,4.3127,4.3153,4.3073,4.2993,4.2485,4.2004,4.1817,0.0,0.0,0.0,0.0,0.0,0.0,3.9493,3.9332,3.8771,3.8218,3.776,3.7488,3.6689,3.5407,3.3455,3.2729,2.9978,2.4729,2.4725,2.3893,2.195,2.2656,2.3076,2.3225,2.3185,2.3103,2.3008,2.3008,2.3008,2.3008,2.3171,2.3225,2.3225,2.3225,2.3225,2.3225,2.3225,2.3225,2.3225,2.3225,2.3929,2.5062,7.3047,7.3633,7.4336,7.5729,7.582,7.5976,7.6445,7.6484,7.668,7.7148,7.7539,7.7656,7.7265,7.7187,7.7187,7.7187,7.6797,7.466,7.0351,6.9263,6.6741,6.2416,5.7642,5.6641,6.0058,5.1502,4.8494,5.1273,0.0,0.0,4.7568,4.7213,4.7398,4.7627,4.5428,4.473,4.5318,4.5932,4.6654,4.7455,4.7161,4.7241,4.7509,4.7509,4.7322,4.7028,4.6734,4.644,4.6146,4.5852,4.5558,4.5211,4.4623,4.4008,4.3447,4.318,4.2646,4.2298,4.2592,4.2218,4.179,4.179,4.179,4.179,4.179,4.2432,4.318,4.3447,4.3314,4.302,4.2726,4.2672,4.2485,4.1897,0.0,0.0,0.0,0.0,0.0,0.0,4.0294,4.0,3.8825,3.6341,3.4583,3.3853,3.117,3.0651,3.3339,3.0452,2.7481,2.4729,2.279,2.1815,2.2113,2.271,2.3076,2.3225,2.3076,2.3008,2.3008,2.3008,2.3008,2.3008,2.3171,2.3225,2.3225,2.3225,2.3225,2.3225,2.3225,2.3225,2.3225,2.3225,2.5634,2.8312,7.4531,7.5156,7.582,7.6211,7.6562,7.6797,7.6953,7.6953,7.7031,7.7187,7.7305,7.7344,7.7187,7.7422,7.75,7.7187,7.4204,7.1741,7.0308,6.4482,6.0341,5.8903,5.4479,5.2476,5.3347,5.027,4.87,4.8994,4.7077,4.6104,4.5732,4.6035,4.6256,4.6367,4.5994,4.636,4.7108,4.7322,4.7535,4.7776,4.7669,4.7616,4.7509,4.7509,4.7215,4.6734,4.6654,4.6306,4.5852,4.5772,4.5665,4.5505,4.4917,4.4329,4.3821,4.3741,4.3287,4.2886,4.318,4.2993,4.2592,4.2191,4.2218,4.2271,4.1897,4.2298,4.2886,4.318,4.2993,4.2779,4.2672,4.2512,4.2298,4.2111,4.1684,0.0,0.0,0.0,0.0,0.0,3.9813,3.9626,3.9092,3.647,3.4719,3.4368,3.1542,2.9296,2.7821,2.6773,2.4846,2.2208,2.1868,2.1869,2.2262,2.2846,2.3171,2.3225,2.3171,2.3158,2.3158,2.3158,2.3158,2.3158,2.3198,2.3225,2.3225,2.3225,2.3225,2.3225,2.3225,2.3225,2.3225,2.3225,2.3929,2.5205,7.5664,7.625,7.6797,7.6797,7.7031,7.7187,7.7187,7.7187,7.7187,7.7187,7.7305,7.7383,7.7187,7.7578,7.7656,7.7265,7.3141,7.004,6.8378,6.1614,5.7,5.5357,5.252,5.1556,5.2698,5.0796,5.0227,5.1034,4.8925,4.7322,4.6199,4.644,4.6573,4.6573,4.7054,4.7642,4.8284,4.9817,5.0364,5.0364,5.0252,5.0001,4.958,4.8213,4.7322,4.6814,4.6814,4.6467,4.6066,4.5959,4.5932,4.5799,4.5104,4.4623,4.4302,4.4195,4.3741,4.334,4.3741,4.3661,4.3314,4.2833,4.2833,4.2886,4.2405,4.2485,4.2699,4.2886,4.2779,4.2619,4.2512,4.2325,4.2218,4.2218,4.171,4.1336,4.1336,0.0,0.0,0.0,0.0,3.9813,3.9519,3.6961,3.4658,3.3049,3.1542,2.852,2.374,2.449,2.3819,2.1185,2.1638,2.2113,2.2493,2.2981,2.3225,2.3225,2.3225,2.3225,2.3225,2.3225,2.3225,2.3225,2.3225,2.3253,2.3307,2.3307,2.3307,2.3307,2.3307,2.328,2.3225,2.3225,2.4073,2.5476,7.6445,7.6836,7.7187,7.7187,7.7187,7.7187,7.7187,7.7187,7.7187,7.7187,7.7539,7.7656,7.7265,7.7578,7.7695,7.7265,7.3549,6.9431,6.5269,6.0871,5.6664,5.2566,5.1832,5.3184,5.6734,5.2756,5.2424,5.5939,5.1566,4.9139,4.8524,4.8257,4.807,4.8043,4.8364,4.8631,4.9164,5.2718,5.4131,5.4101,5.3918,5.3591,5.2869,4.937,4.7616,4.7108,4.7108,4.6921,4.6573,4.6306,4.6199,4.6039,4.5157,4.489,4.4837,4.4543,4.4035,4.3714,4.4329,4.4302,4.3982,4.3634,4.3527,4.342,4.3153,4.2886,4.2699,4.2699,4.2699,4.2619,4.2325,4.2245,4.2245,4.2218,4.171,4.1336,4.131,0.0,0.0,4.0481,4.0481,4.0401,4.0107,3.7479,3.4322,3.0906,3.1212,2.8559,2.1611,2.4021,2.4291,2.1376,2.1991,2.252,2.2805,2.3103,2.3239,2.3225,2.3225,2.3225,2.3225,2.3225,2.3225,2.3239,2.3239,2.332,2.347,2.3456,2.3456,2.3456,2.3429,2.3347,2.3225,2.3225,2.5476,2.8011,7.6445,7.6836,7.7187,7.7187,7.7187,7.7187,7.7187,7.7187,7.7187,7.7187,7.7539,7.7656,7.7265,7.789,7.8125,7.7695,7.3997,7.1127,7.0005,6.3283,5.8706,5.7323,5.3956,5.2573,5.348,5.2222,5.2033,5.2931,5.1629,5.0635,5.0074,5.002,4.962,4.8978,4.9486,4.9646,4.9513,5.0741,5.101,5.0763,5.0608,5.0306,4.9858,4.8627,4.7909,4.7428,4.7642,4.7241,4.6627,4.6547,4.636,4.6039,4.5157,4.5024,4.5157,4.4863,4.4516,4.4356,4.4943,4.489,4.4543,4.4035,4.3527,4.318,4.31,4.3046,4.2993,4.2993,4.2993,4.2993,4.2913,4.2699,4.2485,4.2245,4.171,4.1256,4.1042,4.0695,4.0481,4.0481,4.0668,4.0775,4.0722,3.7754,3.5742,3.5496,3.2933,2.9846,2.5977,2.6522,2.5337,2.1868,2.2344,2.2764,2.2954,2.3253,2.3347,2.3225,2.3225,2.3225,2.3225,2.3225,2.3293,2.3402,2.3402,2.3483,2.3605,2.3497,2.3456,2.3429,2.332,2.3253,2.3225,2.3225,2.3772,2.436,7.6719,7.7031,7.7187,7.7187,7.7187,7.7187,7.7187,7.7187,7.7187,7.7187,7.7539,7.7695,7.75,7.8047,7.8476,7.8398,7.4481,7.1141,6.9287,6.3298,5.877,5.6607,5.4255,5.2879,5.2746,5.2585,5.2452,5.2292,5.2024,5.165,5.1169,5.0929,5.0475,4.9913,5.0074,5.0074,5.0063,5.1964,5.2653,5.2512,5.2315,5.1977,5.1409,4.9549,4.8417,4.7936,4.807,4.7749,4.7161,4.6921,4.6627,4.6226,4.5344,4.5157,4.5264,4.5131,4.4943,4.4943,4.5371,4.5398,4.5157,4.473,4.4035,4.3527,4.3688,4.3607,4.3501,4.3501,4.3607,4.3634,4.334,4.3046,4.2726,4.2298,4.171,4.1229,4.0935,4.0668,4.0588,4.0829,4.1122,4.1416,4.1684,4.0261,3.8151,3.5232,3.4802,3.1757,2.5204,2.6748,2.6107,2.2236,2.2669,2.3022,2.3103,2.328,2.3307,2.3225,2.3225,2.3225,2.3225,2.3225,2.3307,2.3456,2.3375,2.347,2.366,2.3524,2.3456,2.3456,2.3361,2.3293,2.3225,2.3225,2.3225,2.3225,7.707,7.7187,7.7187,7.7187,7.7187,7.7187,7.7187,7.7187,7.7187,7.7187,7.7617,7.789,7.7812,7.7689,7.7855,7.8126,7.4171,7.0456,6.7281,6.2742,5.8391,5.4751,5.3949,5.3547,5.328,5.3253,5.3066,5.2773,5.2532,5.2265,5.1971,5.1463,5.1036,5.0662,5.0448,5.0288,5.0358,5.3595,5.5081,5.5081,5.4993,5.4641,5.3967,5.0599,4.8925,4.8364,4.8364,4.815,4.7776,4.7295,4.6921,4.6547,4.5638,4.5424,4.5424,4.5344,4.5344,4.5424,4.5665,4.5718,4.5638,4.5371,4.473,4.4195,4.4436,4.4329,4.4142,4.4142,4.4329,4.4329,4.3768,4.3394,4.2939,4.2325,4.171,4.1229,4.0882,0.0,4.0802,4.1336,4.1737,4.2191,4.2726,4.3287,4.0757,3.3904,3.6655,3.4022,2.3529,2.624,2.6414,2.2591,2.2968,2.3253,2.3253,2.3239,2.3225,2.3225,2.3225,2.3225,2.3225,2.3239,2.3347,2.3483,2.3347,2.3456,2.37,2.3524,2.3456,2.3456,2.3429,2.3347,2.3225,2.3225,2.3225,2.3225,7.707,7.7187,7.7187,7.7187,7.7187,7.7187,7.7187,7.7187,7.7187,7.7187,7.789,7.8242,7.789,7.568,7.404,7.3784,7.0438,6.9348,7.1539,6.4624,5.9866,5.8936,5.5552,5.3628,5.3574,5.3334,5.3066,5.2773,5.2746,5.2559,5.2265,5.2185,5.1704,5.0956,5.1169,5.0982,5.0528,5.135,5.1762,5.1735,5.1517,5.1191,5.0688,4.9756,4.8925,4.8364,4.8364,4.8016,4.7535,4.7455,4.7241,4.6841,4.5959,4.5852,4.5959,4.5451,4.5505,4.5665,4.5745,4.5558,4.5371,4.5318,4.5024,4.4756,4.481,4.4783,4.473,4.473,4.4783,4.4703,4.4356,4.3848,4.3207,4.2352,4.171,4.1149,4.0615,4.0909,4.1336,4.1684,4.2405,4.302,4.334,4.3714,4.2315,3.8458,3.8523,3.5496,2.7938,2.8071,2.6699,2.3055,2.3239,2.3415,2.3415,2.3293,2.3225,2.3225,2.3225,2.3225,2.3225,2.3361,2.3497,2.3646,2.3632,2.37,2.3836,2.3551,2.3456,2.3429,2.3307,2.3239,2.3225,2.3225,2.3225,2.3225,7.7148,7.7187,7.7187,7.7187,7.7187,7.7187,7.7187,7.7187,7.7187,7.7187,7.5741,7.4706,7.4743,7.1916,6.9971,6.9971,6.638,6.4855,6.656,6.3076,5.9717,5.7404,5.5162,5.4055,5.3895,5.3467,5.3147,5.2986,5.2853,5.2692,5.2559,5.2398,5.2105,5.1704,5.1543,5.141,5.1276,5.1276,5.1356,5.1463,5.1169,5.0822,5.0341,4.9753,4.9139,4.8551,4.8257,4.7963,4.7669,4.7348,4.7161,4.6948,4.6413,4.6306,4.6333,4.5905,4.5745,4.5745,4.5745,4.5638,4.5531,4.5531,4.5318,4.5157,4.5318,4.5237,4.5157,4.5318,4.5344,4.5237,4.4943,4.4302,4.3634,4.3233,4.2138,4.1336,4.1416,4.1523,4.1817,4.2405,4.3287,4.4008,4.4436,4.2983,4.0398,3.6909,3.4599,3.102,2.593,2.5521,2.4714,2.3117,2.3253,2.3361,2.3456,2.3293,2.3253,2.3347,2.3253,2.3307,2.347,2.3456,2.3537,2.3687,2.3592,2.3592,2.3646,2.3415,2.332,2.332,2.3253,2.3225,2.3225,2.3225,2.3225,2.3225,7.7187,7.7187,7.7187,7.7187,7.7187,7.7187,7.7187,7.7187,7.7226,7.7305,7.3997,7.1781,7.2328,6.8163,6.5678,6.5936,6.2256,5.9921,5.9921,5.9921,5.8295,5.5075,5.467,5.4402,5.4109,5.3574,5.328,5.32,5.2933,5.2773,5.2773,5.2559,5.2372,5.2238,5.1757,5.165,5.1784,5.157,5.1624,5.1784,5.1543,5.1062,5.0421,4.9833,4.9245,4.8631,4.8043,4.7856,4.7856,4.7428,4.7322,4.7322,4.6948,4.6841,4.676,4.6413,4.6119,4.5932,4.5772,4.5745,4.5745,4.5745,4.5638,4.5558,4.5799,4.5718,4.5665,4.5905,4.5905,4.5745,4.5451,4.4756,4.4115,4.3821,4.2646,4.1844,4.2191,4.2218,4.2485,4.3314,4.4142,4.4837,4.5344,4.2202,3.8618,3.4753,3.0986,2.7078,2.3246,2.3076,2.3117,2.3225,2.3225,2.328,2.3402,2.328,2.328,2.3402,2.3307,2.3402,2.3632,2.3578,2.3592,2.3687,2.3551,2.3483,2.3429,2.3293,2.3225,2.3225,2.3225,2.3225,2.3225,2.3225,2.3198,2.3171,7.7187,7.7187,7.7187,7.7187,7.7187,7.7187,7.7187,7.7187,7.7305,7.7695,7.4444,7.2328,7.2725,6.5952,6.1321,6.1351,5.7693,5.5484,5.5484,5.5484,5.5185,5.4589,5.4563,5.4402,5.4109,5.3788,5.3467,5.32,5.2933,5.2773,5.2773,5.2746,5.2452,5.1944,5.1891,5.173,5.1517,5.1463,5.1463,5.1517,5.1463,5.0956,5.0127,4.9539,4.8925,4.8337,4.7749,4.7722,4.7936,4.7883,4.8043,4.8203,4.7616,4.7428,4.7322,4.676,4.6573,4.644,4.5879,4.5745,4.5745,4.5745,4.5932,4.6119,4.6146,4.6333,4.6547,4.6547,4.6333,4.6066,4.5772,4.5211,4.4436,4.334,4.3046,4.2806,4.2298,4.2913,4.3634,4.4249,4.4863,4.5371,4.5665,4.2672,3.9019,3.4941,3.139,2.7716,2.356,2.3293,2.3198,2.3225,2.3225,2.3225,2.3239,2.3225,2.3225,2.3239,2.3361,2.3456,2.347,2.3727,2.3782,2.3687,2.366,2.3578,2.3429,2.3293,2.3225,2.3225,2.3225,2.3225,2.3225,2.3225,2.313,2.3022,7.7187,7.7187,7.7187,7.7187,7.7187,7.7187,7.7187,7.7187,7.6311,7.3884,7.0501,6.7368,6.5022,6.0241,5.7287,5.7455,5.6141,5.5258,5.5258,5.5097,5.4857,5.4563,5.4563,5.4402,5.4109,5.3788,5.3521,5.32,5.2933,5.2773,5.2773,5.2773,5.2666,5.2425,5.2051,5.2051,5.2238,5.1677,5.1677,5.1971,5.1624,5.1062,5.0368,4.978,4.9165,4.8551,4.7963,4.7963,4.8177,4.8016,4.8123,4.8337,4.8123,4.7909,4.7642,4.7054,4.6627,4.6333,4.6306,4.6146,4.6012,4.6012,4.6119,4.6226,4.6413,4.6547,4.6627,4.6627,4.6413,4.6146,4.6039,4.5398,4.4837,4.4756,4.4142,4.3795,4.4088,4.4249,4.4516,4.4943,4.5505,4.4915,4.2588,3.9256,3.5694,3.1606,2.7844,2.5079,2.3456,2.3307,2.3225,2.3225,2.3225,2.3225,2.3225,2.3225,2.328,2.3361,2.332,2.3415,2.3592,2.3605,2.3592,2.3537,2.3537,2.3456,2.3307,2.3239,2.3225,2.3225,2.3225,2.3225,2.3225,2.3225,2.313,2.3008,7.7187,7.7187,7.7187,7.7187,7.7187,7.7187,7.7187,7.6126,7.4325,7.1657,6.6949,6.2898,6.0349,5.6891,5.4857,5.5124,5.5151,5.5151,5.5151,5.4883,5.4616,5.4402,5.4322,5.4189,5.3975,5.3681,5.3441,5.32,5.2933,5.2773,5.2773,5.2666,5.2585,5.2479,5.1971,5.1971,5.2345,5.173,5.1677,5.2051,5.1624,5.1116,5.0528,4.994,4.9379,4.8871,4.8284,4.8257,4.8471,4.8257,4.8417,4.8631,4.8551,4.8257,4.7829,4.7241,4.6841,4.66,4.6627,4.6547,4.644,4.6333,4.6333,4.6413,4.6707,4.6921,4.7028,4.6921,4.6734,4.66,4.6493,4.5905,4.5505,4.5718,4.5157,4.4863,4.5371,4.5344,4.5398,4.5692,4.6066,4.475,4.0783,3.7262,3.3682,2.9635,2.5763,2.3483,2.3375,2.328,2.3225,2.3225,2.3225,2.3225,2.3225,2.3225,2.328,2.3375,2.332,2.3402,2.3605,2.3551,2.3497,2.3456,2.3456,2.3361,2.3225,2.3225,2.3225,2.3225,2.3225,2.3225,2.3225,2.3171,2.3022,2.2859,7.7187,7.7187,7.7187,7.7187,7.7187,7.7187,7.7187,7.366,7.121,7.1571,6.4431,5.9645,6.0272,5.6611,5.4242,5.4509,5.4563,5.4563,5.4563,5.4269,5.4109,5.4109,5.3841,5.3654,5.3654,5.336,5.32,5.32,5.2933,5.2773,5.2773,5.2479,5.2185,5.1891,5.1624,5.1463,5.1463,5.1463,5.1463,5.1463,5.1463,5.1116,5.0528,4.994,4.9539,4.9219,4.8604,4.8551,4.8818,4.8818,4.9032,4.9219,4.8925,4.8417,4.7829,4.7241,4.7295,4.7348,4.676,4.6841,4.7001,4.6707,4.6627,4.6707,4.7001,4.7509,4.7856,4.7562,4.7509,4.7402,4.7108,4.6814,4.644,4.5852,4.6012,4.6092,4.5772,4.6012,4.6306,4.6573,4.6627,4.5035,4.1018,3.752,3.375,2.9693,2.5926,2.3537,2.3239,2.3225,2.3225,2.3225,2.3225,2.3225,2.3225,2.3225,2.3225,2.3225,2.3375,2.3456,2.3456,2.3605,2.3592,2.3456,2.3456,2.3361,2.3225,2.3225,2.3225,2.3225,2.3225,2.3225,2.3198,2.3063,2.2818,2.2534,7.7187,7.7187,7.7187,7.7187,7.7187,7.6233,7.3364,7.1809,6.9123,6.3429,6.0752,5.8239,5.5649,5.462,5.4242,5.4509,5.475,5.4857,5.4857,5.4189,5.3788,5.3788,5.3681,5.3547,5.336,5.3253,5.3093,5.2933,5.2826,5.2773,5.2773,5.2692,5.2479,5.2185,5.2131,5.1971,5.1757,5.1757,5.1757,5.1757,5.1757,5.1437,5.0849,5.0475,4.9913,4.9245,4.8818,4.8738,4.8818,4.8818,4.9032,4.9219,4.8925,5.0237,5.151,4.8607,4.9244,5.0508,4.7894,4.7001,4.676,4.6921,4.6921,4.7028,4.7322,4.7509,4.7616,4.7509,4.7348,4.7161,4.7054,4.6814,4.6547,4.6413,4.676,4.7054,4.6974,4.7054,4.6118,4.3443,4.2987,4.0138,3.349,3.2099,3.0043,2.5956,2.4398,2.3592,2.3402,2.328,2.3225,2.3225,2.3225,2.3225,2.3225,2.3225,2.3225,2.3225,2.328,2.3293,2.3293,2.3347,2.3334,2.3293,2.3293,2.3253,2.3225,2.3225,2.3225,2.3225,2.3225,2.3225,2.3225,2.3171,2.29,2.2547,7.6914,7.707,7.7187,7.7187,7.5794,7.3992,7.1512,6.8337,6.4521,5.9517,5.7703,5.5862,5.3492,5.3547,5.3868,5.4162,5.4483,5.4696,5.4803,5.4189,5.3788,5.3654,5.3547,5.3334,5.304,5.304,5.296,5.2773,5.2773,5.2773,5.2773,5.2532,5.2345,5.2158,5.2051,5.1891,5.173,5.1864,5.1891,5.1891,5.1891,5.1624,5.1169,5.0742,5.0181,4.9566,4.9139,4.8978,4.8978,4.8978,4.9139,4.9514,5.0625,5.24,5.365,5.2616,5.2567,5.2351,5.0203,4.8345,4.7028,4.7215,4.7135,4.7135,4.7428,4.7562,4.7642,4.7535,4.7455,4.7375,4.7241,4.7108,4.7028,4.7135,4.7348,4.7535,4.7642,4.6251,4.4313,4.2082,4.0141,3.6663,3.0354,2.9946,2.8323,2.4254,2.3782,2.3592,2.3375,2.328,2.3225,2.3225,2.3225,2.3225,2.3225,2.3225,2.3225,2.3225,2.3225,2.3225,2.3225,2.3225,2.3225,2.3225,2.3225,2.3225,2.3225,2.3225,2.3225,2.3225,2.3225,2.3225,2.3198,2.3103,2.2805,2.2452,7.6484,7.6506,7.6564,7.6711,7.3217,7.0434,7.0021,6.3639,5.8772,5.8432,5.5054,5.2879,5.3147,5.32,5.3334,5.3574,5.3948,5.4242,5.4509,5.4269,5.3948,5.3654,5.336,5.304,5.2773,5.2773,5.2773,5.2773,5.2773,5.2773,5.2773,5.2238,5.1971,5.1944,5.1677,5.1543,5.1543,5.1837,5.1971,5.1944,5.1944,5.1757,5.1437,5.0822,5.0394,5.0047,4.9459,4.9245,4.9245,4.9272,4.9272,4.9956,5.3498,5.4406,5.5038,5.8196,5.6455,5.3426,5.3117,5.0203,4.7455,4.7455,4.7241,4.7135,4.7428,4.7722,4.7829,4.7562,4.7722,4.7829,4.7535,4.7535,4.7616,4.7883,4.7749,4.7553,4.7505,4.4249,4.1551,4.1055,3.7601,3.3898,3.0102,2.9506,2.7801,2.4021,2.3687,2.3551,2.3253,2.3225,2.3225,2.3225,2.3225,2.3225,2.3198,2.3198,2.3198,2.3225,2.3225,2.3225,2.3225,2.3225,2.3225,2.3225,2.3225,2.3225,2.3225,2.3225,2.3225,2.3225,2.3225,2.3225,2.3171,2.2886,2.2588,2.2276,7.6445,7.4015,7.2072,7.2403,6.9053,6.5281,6.2076,5.9981,5.781,5.4453,5.3378,5.2826,5.2853,5.3066,5.3253,5.328,5.3788,5.4242,5.4509,5.4055,5.3734,5.3654,5.3147,5.2853,5.2773,5.2773,5.2773,5.2773,5.2773,5.2773,5.2773,5.2639,5.2452,5.2265,5.2425,5.2238,5.1837,5.2372,5.2452,5.2238,5.2238,5.2078,5.173,5.0929,5.0261,4.9726,4.9139,4.8925,4.8952,4.9219,4.9272,5.001,5.3762,5.6443,5.8413,5.9185,5.8416,5.6625,5.354,5.0032,4.7161,4.7161,4.7108,4.7135,4.7428,4.7535,4.7562,4.7509,4.7535,4.7562,4.7509,4.7669,4.7856,4.7936,4.8257,4.7505,4.4283,4.3058,4.0206,3.3985,3.2195,2.9919,2.5963,2.5399,2.4917,2.3863,2.3754,2.3592,2.3415,2.3293,2.3225,2.3225,2.3225,2.3171,2.3063,2.3063,2.3117,2.3225,2.3225,2.3225,2.3225,2.3225,2.3225,2.3225,2.3225,2.3225,2.3225,2.3225,2.3225,2.3225,2.3225,2.3158,2.3022,2.2846,2.252,2.2099,7.6094,7.3021,7.0597,7.0994,6.604,6.1308,5.9177,5.7245,5.5239,5.3089,5.2773,5.2773,5.2773,5.2933,5.3066,5.32,5.3494,5.3788,5.4109,5.3841,5.3574,5.3441,5.3147,5.2933,5.2773,5.2773,5.2773,5.2773,5.2773,5.2773,5.2773,5.2639,5.2398,5.2158,5.2452,5.2292,5.1944,5.2532,5.2585,5.2345,5.2345,5.2078,5.1624,5.0875,5.0288,4.986,4.9245,4.9032,4.9058,4.9219,4.9272,5.0277,5.5605,5.8335,6.0086,6.3533,6.1644,5.803,5.5948,5.1288,4.7054,4.7054,4.7054,4.7135,4.7428,4.7509,4.7535,4.7669,4.7722,4.7749,4.7909,4.8043,4.8177,4.8337,4.686,4.4918,4.3076,3.9208,3.5229,3.1109,2.8739,2.646,2.4379,2.4039,2.3877,2.3809,2.366,2.351,2.3347,2.3253,2.3185,2.3117,2.3117,2.3049,2.29,2.29,2.294,2.3008,2.3076,2.3158,2.3225,2.3225,2.3225,2.3225,2.3225,2.3225,2.3225,2.3225,2.3225,2.3225,2.3158,2.3022,2.2873,2.2656,2.2289,2.1869,7.582,7.2909,7.0265,7.01,6.3944,5.8587,5.7965,5.4925,5.2773,5.2773,5.2773,5.2773,5.2773,5.2773,5.2879,5.3173,5.32,5.3334,5.3628,5.3628,5.3467,5.32,5.3173,5.304,5.2773,5.2773,5.2773,5.2773,5.2773,5.2773,5.2773,5.2532,5.2265,5.2051,5.2292,5.2265,5.1998,5.2559,5.2585,5.2265,5.2265,5.1891,5.133,5.0742,5.0288,4.994,4.9459,4.9272,4.9272,4.9272,4.9715,5.1341,5.796,6.014,6.1576,6.8159,6.4553,5.844,5.8341,5.2757,4.7001,4.6921,4.6921,4.7001,4.7348,4.7455,4.7562,4.7829,4.7856,4.7936,4.8177,4.831,4.8299,4.7782,4.4673,4.1917,4.0955,3.4577,2.9936,2.9469,2.6249,2.4134,2.4053,2.3836,2.37,2.3646,2.3524,2.3375,2.3225,2.3198,2.313,2.3008,2.2995,2.29,2.2751,2.2751,2.2751,2.2751,2.2873,2.3022,2.3185,2.3198,2.3225,2.3225,2.3225,2.3225,2.3225,2.3225,2.3225,2.3198,2.3063,2.29,2.2696,2.2357,2.195,2.1584,7.582,7.2909,6.9375,6.6426,6.1922,5.7654,5.4166,5.322,5.2773,5.2773,5.2773,5.2773,5.2773,5.2773,5.2879,5.3173,5.32,5.3334,5.3628,5.3387,5.3253,5.32,5.296,5.2826,5.2773,5.2773,5.2773,5.2773,5.2773,5.2773,5.2773,5.2746,5.2692,5.2666,5.2692,5.2559,5.2292,5.2639,5.2452,5.1971,5.1971,5.1597,5.1036,5.0448,4.986,4.9379,4.9326,4.9272,4.9272,4.9272,5.1425,5.4921,5.8811,6.1952,6.5041,6.896,6.4553,5.8341,5.7849,5.2385,4.6627,4.636,4.6306,4.644,4.7001,4.7322,4.7509,4.7535,4.7562,4.7562,4.7616,4.8043,4.7202,4.3673,4.3076,4.0583,3.355,3.1497,2.9465,2.5769,2.4721,2.4175,2.3782,2.3822,2.3754,2.3497,2.347,2.3375,2.3225,2.3103,2.3022,2.3008,2.2886,2.2751,2.2588,2.2588,2.2588,2.2588,2.2601,2.2764,2.3049,2.3171,2.3225,2.3225,2.3225,2.3225,2.3225,2.3225,2.3225,2.3198,2.3063,2.2832,2.252,2.1977,2.1543,2.1258,7.5742,7.2722,6.8979,6.5636,6.1615,5.7528,5.3378,5.2773,5.2719,5.2559,5.2666,5.2719,5.2559,5.2666,5.2826,5.296,5.296,5.304,5.3147,5.304,5.296,5.296,5.2853,5.2773,5.2773,5.2773,5.2773,5.2773,5.2773,5.2773,5.2773,5.2585,5.2532,5.2532,5.2372,5.2238,5.2105,5.2238,5.2051,5.165,5.165,5.133,5.0742,5.0288,4.978,4.9245,4.8898,4.9005,4.9245,4.8871,5.1414,5.5197,5.8435,6.1887,6.4889,6.6274,6.2856,5.7964,5.5431,5.0823,4.6547,4.6253,4.6199,4.6253,4.652,4.6814,4.7135,4.7642,4.7616,4.7616,4.7936,4.6414,4.4551,4.291,3.8871,3.4846,3.1415,2.8764,2.6428,2.4502,2.4066,2.389,2.37,2.3578,2.351,2.3456,2.3361,2.3253,2.3117,2.3049,2.294,2.2764,2.2601,2.2466,2.2303,2.2221,2.2181,2.2181,2.2276,2.252,2.2886,2.3022,2.3103,2.3103,2.3103,2.3103,2.3103,2.3008,2.2981,2.2954,2.2818,2.252,2.2113,2.1597,2.134,2.1218]},{"header":{"parameterUnit":"m.s-1","parameterCategory":1,"la1":30.6,"la2":28.766,"lo1":-90.7593,"lo2":-88.6598,"dy":0.0162,"dx":0.0183,"nx":116,"ny":114,"refTime":"2023-10-11T12:00:00:Z","depth":0,"parameterNumber":3,"parameterNumberName":"V-component_of_WINDS"},"data":[0.0,0.0,0.0,0.0,0.0,0.0,0.0,0.0,0.0,0.0,0.0,0.0,0.0,0.0,0.0,0.0,0.0,0.0,0.0,0.0,0.0,0.0,0.0,0.0,0.0,0.0,0.0,0.0,0.0,0.0,0.0,0.0,0.0,0.0,0.0,0.0,0.0,0.0,0.0,0.0,0.0,0.0,0.0,0.0,0.0,0.0,0.0,0.0,0.0,0.0,0.0,0.0,0.0,0.0,0.0,0.0,0.0,0.0,0.0,0.0,0.0,0.0,0.0,0.0,0.0,0.0,0.0,0.0,0.0,0.0,0.0,0.0,0.0,0.0,0.0,0.0,0.0,0.0,0.0,0.0,0.0,0.0,0.0,0.0,0.0,0.0,0.0,0.0,0.0,0.0,0.0,0.0,0.0,0.0,0.0,0.0,0.0,0.0,0.0,0.0,0.0,0.0,0.0,0.0,0.0,0.0,0.0,0.0,0.0,0.0,0.0,0.0,0.0,0.0,0.0,0.0,0.0,0.0,0.0,0.0,0.0,0.0,0.0,0.0,0.0,0.0,0.0,0.0,0.0,0.0,0.0,0.0,0.0,0.0,0.0,0.0,0.0,0.0,0.0,0.0,0.0,0.0,0.0,0.0,0.0,0.0,0.0,0.0,0.0,0.0,0.0,0.0,0.0,0.0,0.0,0.0,0.0,0.0,0.0,0.0,0.0,0.0,0.0,0.0,0.0,0.0,0.0,0.0,0.0,0.0,0.0,0.0,0.0,0.0,0.0,0.0,0.0,0.0,0.0,0.0,0.0,0.0,0.0,0.0,0.0,0.0,0.0,0.0,0.0,0.0,0.0,0.0,0.0,0.0,0.0,0.0,0.0,0.0,0.0,0.0,0.0,0.0,0.0,0.0,0.0,0.0,0.0,0.0,0.0,0.0,0.0,0.0,0.0,0.0,0.0,0.0,0.0,0.0,0.0,0.0,0.0,0.0,0.0,0.0,0.0,0.0,0.0,0.0,0.0,0.0,0.0,0.0,0.0,0.0,0.0,0.0,0.0,0.0,0.0,0.0,0.0,0.0,0.0,0.0,0.0,0.0,0.0,0.0,0.0,0.0,0.0,0.0,0.0,0.0,0.0,0.0,0.0,0.0,0.0,0.0,0.0,0.0,0.0,0.0,0.0,0.0,0.0,0.0,0.0,0.0,0.0,0.0,0.0,0.0,0.0,0.0,0.0,0.0,0.0,0.0,0.0,0.0,0.0,0.0,0.0,0.0,0.0,0.0,0.0,0.0,0.0,0.0,0.0,0.0,0.0,0.0,0.0,0.0,0.0,0.0,0.0,0.0,0.0,0.0,0.0,0.0,0.0,0.0,0.0,0.0,0.0,0.0,0.0,0.0,0.0,0.0,0.0,0.0,0.0,0.0,0.0,0.0,0.0,0.0,0.0,0.0,0.0,0.0,0.0,0.0,0.0,0.0,0.0,0.0,0.0,0.0,0.0,0.0,0.0,0.0,0.0,0.0,0.0,0.0,0.0,0.0,0.0,0.0,0.0,0.0,0.0,0.0,0.0,0.0,0.0,0.0,0.0,0.0,0.0,0.0,0.0,0.0,0.0,0.0,0.0,0.0,0.0,0.0,0.0,0.0,0.0,0.0,0.0,0.0,0.0,0.0,0.0,0.0,0.0,0.0,0.0,0.0,0.0,0.0,0.0,0.0,0.0,0.0,0.0,0.0,0.0,0.0,0.0,0.0,0.0,0.0,0.0,0.0,0.0,0.0,0.0,0.0,0.0,0.0,0.0,0.0,0.0,0.0,0.0,0.0,0.0,0.0,0.0,0.0,0.0,0.0,0.0,0.0,0.0,0.0,0.0,0.0,0.0,0.0,0.0,0.0,0.0,0.0,0.0,0.0,0.0,0.0,0.0,0.0,0.0,0.0,0.0,0.0,0.0,0.0,0.0,0.0,0.0,0.0,0.0,0.0,0.0,0.0,0.0,0.0,0.0,0.0,0.0,0.0,0.0,0.0,0.0,0.0,0.0,0.0,0.0,0.0,0.0,0.0,0.0,0.0,0.0,0.0,0.0,0.0,0.0,0.0,0.0,0.0,0.0,0.0,0.0,0.0,0.0,0.0,0.0,0.0,0.0,0.0,0.0,0.0,0.0,0.0,0.0,0.0,0.0,0.0,0.0,0.0,0.0,0.0,0.0,0.0,0.0,0.0,0.0,0.0,0.0,0.0,0.0,0.0,0.0,0.0,0.0,0.0,0.0,0.0,0.0,0.0,0.0,0.0,0.0,0.0,0.0,0.0,0.0,0.0,0.0,0.0,0.0,0.0,0.0,0.0,0.0,0.0,0.0,0.0,0.0,0.0,0.0,0.0,0.0,0.0,0.0,0.0,0.0,0.0,0.0,0.0,0.0,0.0,0.0,0.0,0.0,0.0,0.0,0.0,0.0,0.0,0.0,0.0,0.0,0.0,0.0,0.0,0.0,0.0,0.0,0.0,0.0,0.0,0.0,0.0,0.0,0.0,0.0,0.0,0.0,0.0,0.0,0.0,0.0,0.0,0.0,0.0,0.0,0.0,0.0,0.0,0.0,0.0,0.0,0.0,0.0,0.0,0.0,0.0,0.0,0.0,0.0,0.0,0.0,0.0,0.0,0.0,0.0,0.0,0.0,0.0,0.0,0.0,0.0,0.0,0.0,0.0,0.0,0.0,0.0,0.0,0.0,0.0,0.0,0.0,0.0,0.0,0.0,0.0,0.0,0.0,0.0,0.0,0.0,0.0,0.0,0.0,0.0,0.0,0.0,0.0,0.0,0.0,0.0,0.0,0.0,0.0,0.0,0.0,0.0,0.0,0.0,0.0,0.0,0.0,0.0,0.0,0.0,0.0,0.0,0.0,0.0,0.0,0.0,0.0,0.0,0.0,0.0,0.0,0.0,0.0,0.0,0.0,0.0,0.0,0.0,0.0,0.0,0.0,0.0,0.0,0.0,0.0,0.0,0.0,0.0,0.0,0.0,0.0,0.0,0.0,0.0,0.0,0.0,0.0,0.0,0.0,0.0,0.0,0.0,0.0,0.0,0.0,0.0,0.0,0.0,0.0,0.0,0.0,0.0,0.0,0.0,0.0,0.0,0.0,0.0,0.0,0.0,0.0,0.0,0.0,0.0,0.0,0.0,0.0,0.0,0.0,0.0,0.0,0.0,0.0,0.0,0.0,0.0,0.0,0.0,0.0,0.0,0.0,0.0,0.0,0.0,0.0,0.0,0.0,0.0,0.0,0.0,0.0,0.0,0.0,0.0,0.0,0.0,0.0,0.0,0.0,0.0,0.0,0.0,0.0,0.0,0.0,0.0,0.0,0.0,0.0,0.0,0.0,0.0,0.0,0.0,0.0,0.0,0.0,0.0,0.0,0.0,0.0,0.0,0.0,0.0,0.0,0.0,0.0,0.0,0.0,0.0,0.0,0.0,0.0,0.0,0.0,0.0,0.0,0.0,0.0,0.0,0.0,0.0,0.0,0.0,0.0,0.0,0.0,0.0,0.0,0.0,0.0,0.0,0.0,0.0,0.0,0.0,0.0,0.0,0.0,0.0,0.0,0.0,0.0,0.0,0.0,0.0,0.0,0.0,0.0,0.0,0.0,0.0,0.0,0.0,0.0,0.0,0.0,0.0,0.0,0.0,0.0,0.0,0.0,0.0,0.0,0.0,0.0,0.0,0.0,0.0,0.0,0.0,0.0,0.0,0.0,0.0,0.0,0.0,0.0,0.0,0.0,0.0,0.0,0.0,0.0,0.0,0.0,0.0,0.0,0.0,0.0,0.0,0.0,0.0,0.0,0.0,0.0,0.0,0.0,0.0,0.0,0.0,0.0,0.0,0.0,0.0,0.0,0.0,0.0,0.0,0.0,0.0,0.0,0.0,0.0,0.0,0.0,0.0,0.0,0.0,0.0,0.0,0.0,0.0,0.0,0.0,0.0,0.0,0.0,0.0,0.0,0.0,0.0,0.0,0.0,0.0,0.0,0.0,0.0,0.0,0.0,0.0,0.0,0.0,0.0,0.0,0.0,0.0,0.0,0.0,0.0,0.0,0.0,0.0,0.0,0.0,0.0,0.0,0.0,0.0,0.0,0.0,0.0,0.0,0.0,0.0,0.0,0.0,0.0,0.0,0.0,0.0,0.0,0.0,0.0,0.0,0.0,0.0,0.0,0.0,0.0,0.0,0.0,0.0,0.0,0.0,0.0,0.0,0.0,0.0,0.0,0.0,0.0,0.0,0.0,0.0,0.0,0.0,0.0,0.0,0.0,0.0,0.0,0.0,0.0,0.0,0.0,0.0,0.0,0.0,0.0,0.0,0.0,0.0,0.0,0.0,0.0,0.0,0.0,0.0,0.0,0.0,0.0,0.0,0.0,0.0,0.0,0.0,0.0,0.0,0.0,0.0,0.0,0.0,0.0,0.0,0.0,0.0,0.0,0.0,0.0,0.0,0.0,0.0,0.0,0.0,0.0,0.0,0.0,0.0,0.0,0.0,0.0,0.0,0.0,0.0,0.0,0.0,0.0,0.0,0.0,0.0,0.0,0.0,0.0,0.0,0.0,0.0,0.0,0.0,0.0,0.0,0.0,0.0,0.0,0.0,0.0,0.0,0.0,0.0,0.0,0.0,0.0,0.0,0.0,0.0,0.0,0.0,0.0,0.0,0.0,0.0,0.0,0.0,0.0,0.0,0.0,0.0,0.0,0.0,0.0,0.0,0.0,0.0,0.0,0.0,0.0,0.0,0.0,0.0,0.0,0.0,0.0,0.0,0.0,0.0,0.0,0.0,0.0,0.0,0.0,0.0,0.0,0.0,0.0,0.0,0.0,0.0,0.0,0.0,0.0,0.0,0.0,0.0,0.0,0.0,0.0,0.0,0.0,0.0,0.0,0.0,0.0,0.0,0.0,0.0,0.0,0.0,0.0,0.0,0.0,0.0,0.0,0.0,0.0,0.0,0.0,0.0,0.0,0.0,0.0,0.0,0.0,0.0,0.0,0.0,0.0,0.0,0.0,0.0,0.0,0.0,0.0,0.0,0.0,0.0,0.0,0.0,0.0,0.0,0.0,0.0,0.0,0.0,0.0,0.0,0.0,0.0,0.0,0.0,0.0,0.0,0.0,0.0,0.0,0.0,0.0,0.0,0.0,0.0,0.0,0.0,0.0,0.0,0.0,0.0,0.0,0.0,0.0,0.0,0.0,0.0,0.0,0.0,0.0,0.0,0.0,0.0,0.0,0.0,0.0,0.0,0.0,0.0,0.0,0.0,0.0,0.0,0.0,0.0,0.0,0.0,0.0,0.0,0.0,0.0,0.0,0.0,0.0,0.0,0.0,0.0,0.0,0.0,0.0,0.0,0.0,0.0,0.0,0.0,0.0,0.0,0.0,0.0,0.0,0.0,0.0,0.0,0.0,0.0,0.0,0.0,0.0,0.0,0.0,0.0,0.0,0.0,0.0,0.0,0.0,0.0,0.0,0.0,0.0,0.0,0.0,0.0,0.0,0.0,0.0,0.0,0.0,0.0,0.0,0.0,0.0,0.0,0.0,0.0,0.0,0.0,0.0,0.0,0.0,0.0,0.0,0.0,0.0,0.0,0.0,0.0,0.0,0.0,0.0,0.0,0.0,0.0,0.0,0.0,0.0,0.0,0.0,0.0,0.0,0.0,0.0,0.0,0.0,0.0,0.0,0.0,0.0,0.0,0.0,0.0,0.0,0.0,0.0,0.0,0.0,0.0,0.0,0.0,0.0,0.0,0.0,0.0,0.0,0.0,0.0,0.0,0.0,0.0,0.0,0.0,0.0,0.0,0.0,0.0,0.0,0.0,0.0,0.0,0.0,0.0,0.0,0.0,0.0,0.0,0.0,0.0,0.0,0.0,0.0,0.0,0.0,0.0,0.0,0.0,0.0,0.0,0.0,0.0,0.0,0.0,0.0,0.0,0.0,0.0,0.0,0.0,0.0,0.0,0.0,0.0,0.0,0.0,0.0,0.0,0.0,0.0,0.0,0.0,0.0,0.0,0.0,0.0,0.0,0.0,0.0,0.0,0.0,0.0,0.0,0.0,0.0,0.0,0.0,5.8843,5.894,0.0,0.0,0.0,0.0,0.0,0.0,0.0,0.0,0.0,0.0,0.0,0.0,0.0,0.0,0.0,0.0,0.0,0.0,0.0,0.0,0.0,0.0,0.0,0.0,0.0,0.0,0.0,0.0,0.0,0.0,0.0,0.0,0.0,0.0,0.0,0.0,0.0,0.0,4.3579,4.6371,4.8673,4.8918,0.0,0.0,0.0,0.0,0.0,0.0,0.0,0.0,0.0,0.0,0.0,0.0,0.0,0.0,0.0,0.0,0.0,0.0,0.0,0.0,0.0,0.0,0.0,0.0,0.0,0.0,0.0,0.0,0.0,0.0,0.0,0.0,0.0,0.0,0.0,0.0,0.0,0.0,0.0,0.0,0.0,0.0,0.0,0.0,0.0,0.0,0.0,0.0,0.0,0.0,0.0,0.0,0.0,0.0,0.0,0.0,0.0,0.0,0.0,0.0,0.0,0.0,0.0,0.0,0.0,0.0,0.0,0.0,0.0,0.0,0.0,0.0,6.2173,6.1169,0.0,0.0,0.0,0.0,0.0,0.0,0.0,0.0,0.0,0.0,0.0,0.0,0.0,0.0,0.0,0.0,0.0,0.0,0.0,0.0,0.0,0.0,0.0,0.0,0.0,0.0,0.0,0.0,0.0,0.0,0.0,0.0,0.0,0.0,0.0,0.0,0.0,0.0,4.5236,4.8509,5.1574,5.1925,0.0,0.0,0.0,0.0,0.0,0.0,0.0,0.0,0.0,0.0,0.0,0.0,0.0,0.0,0.0,0.0,0.0,0.0,0.0,0.0,0.0,0.0,0.0,0.0,0.0,0.0,0.0,0.0,0.0,0.0,0.0,0.0,0.0,0.0,0.0,0.0,0.0,0.0,0.0,0.0,0.0,0.0,0.0,0.0,0.0,0.0,0.0,0.0,0.0,0.0,0.0,0.0,0.0,0.0,0.0,0.0,0.0,0.0,0.0,0.0,0.0,0.0,0.0,0.0,0.0,0.0,6.7491,6.8914,7.0675,6.9556,6.9649,7.0542,6.7207,6.498,6.3878,6.78,0.0,0.0,0.0,0.0,0.0,0.0,0.0,0.0,0.0,0.0,0.0,0.0,0.0,0.0,0.0,0.0,0.0,0.0,0.0,0.0,0.0,4.0701,3.9075,3.9474,3.7799,3.6838,0.0,0.0,0.0,0.0,0.0,0.0,0.0,4.0717,4.2707,4.5512,4.8428,5.0822,5.2729,5.2277,5.2277,5.2578,5.2176,0.0,0.0,0.0,0.0,0.0,0.0,0.0,0.0,0.0,0.0,0.0,0.0,0.0,0.0,0.0,0.0,0.0,0.0,0.0,0.0,0.0,0.0,0.0,0.0,0.0,0.0,0.0,0.0,0.0,0.0,0.0,0.0,0.0,0.0,0.0,0.0,0.0,0.0,0.0,0.0,0.0,0.0,0.0,5.6307,5.8489,0.0,0.0,0.0,0.0,0.0,0.0,0.0,0.0,0.0,0.0,0.0,0.0,0.0,6.4394,6.5832,6.8219,7.0513,7.2685,7.3379,7.4106,7.494,7.4738,7.5104,7.5971,7.6439,0.0,6.9617,7.1788,0.0,0.0,0.0,0.0,0.0,0.0,0.0,0.0,0.0,0.0,0.0,0.0,0.0,0.0,0.0,0.0,0.0,0.0,0.0,0.0,0.0,3.9923,3.8626,3.8191,3.7005,3.6484,3.6914,0.0,0.0,0.0,0.0,3.9535,4.0899,4.3252,4.598,4.9067,5.1537,5.313,5.3833,5.4235,5.4386,5.4285,5.3733,5.303,5.2176,5.1875,0.0,0.0,0.0,0.0,0.0,0.0,0.0,0.0,0.0,0.0,0.0,0.0,0.0,0.0,0.0,0.0,0.0,0.0,0.0,0.0,0.0,0.0,0.0,0.0,0.0,0.0,0.0,0.0,0.0,0.0,0.0,0.0,0.0,0.0,0.0,0.0,0.0,0.0,0.0,5.7881,6.025,5.9732,6.1224,6.1762,0.0,0.0,0.0,0.0,0.0,0.0,0.0,0.0,0.0,6.5804,6.8485,7.0432,7.1352,7.4479,7.7144,7.9396,7.9975,8.0674,8.1325,8.0919,8.1102,8.173,8.2436,8.1529,7.9455,7.8091,7.6733,7.5692,0.0,0.0,0.0,0.0,7.8112,7.8185,0.0,0.0,0.0,0.0,0.0,0.0,0.0,0.0,0.0,0.0,0.0,0.0,4.0251,3.9357,3.845,3.7445,3.6836,3.6758,3.7266,3.6914,0.0,0.0,3.9695,4.1334,4.2364,4.6331,4.9701,5.2327,5.4135,5.5189,5.5641,5.6344,5.6445,5.5993,5.544,5.4336,5.2879,5.2477,5.2226,0.0,0.0,0.0,0.0,0.0,0.0,0.0,0.0,0.0,0.0,0.0,0.0,0.0,0.0,0.0,0.0,0.0,0.0,0.0,0.0,0.0,0.0,0.0,0.0,0.0,0.0,0.0,0.0,0.0,0.0,0.0,0.0,0.0,0.0,0.0,0.0,0.0,0.0,6.248,6.3917,6.1642,6.3977,6.4814,0.0,0.0,0.0,0.0,0.0,0.0,6.9423,7.062,7.1478,7.1994,7.4865,7.7121,7.8619,8.1675,8.4067,8.593,8.6365,8.6738,8.6873,8.6695,8.6749,8.7165,8.7947,8.8511,8.8682,8.4135,8.1524,8.0214,8.0162,7.9727,7.9286,7.9874,8.0534,8.1048,0.0,0.0,0.0,0.0,0.0,0.0,0.0,0.0,0.0,0.0,0.0,3.9256,4.0327,3.895,3.8236,3.8984,3.832,3.8164,3.9023,3.7578,3.7226,3.8476,4.0381,4.2505,4.4671,4.9914,5.3462,5.5189,5.5842,5.6947,5.8504,5.8052,5.7801,5.775,5.7148,5.544,5.2929,5.2879,5.2578,5.2126,0.0,0.0,0.0,0.0,0.0,0.0,0.0,0.0,0.0,0.0,0.0,0.0,0.0,0.0,0.0,0.0,0.0,0.0,0.0,0.0,0.0,0.0,0.0,0.0,0.0,0.0,0.0,0.0,0.0,0.0,0.0,0.0,0.0,0.0,0.0,0.0,0.0,0.0,0.0,6.4934,6.8226,0.0,0.0,0.0,0.0,6.9542,7.1398,7.2834,7.3552,7.427,7.6365,8.0027,8.0973,8.3952,8.9153,9.0127,9.0998,9.1966,9.1957,9.1338,9.0042,9.127,9.1871,9.2061,9.3684,9.4885,9.5157,8.9166,8.6192,8.5346,8.4572,8.4278,8.4278,8.4278,8.4352,8.4352,0.0,0.0,0.0,0.0,0.0,0.0,0.0,0.0,0.0,4.0906,4.0362,4.0241,4.0124,3.9273,3.8984,3.9609,3.8594,3.8047,3.8359,3.8909,3.9643,4.0422,4.3713,4.6934,4.9963,5.3002,5.5139,5.6445,5.77,5.8805,5.9759,5.991,5.9809,5.9408,5.8504,5.7349,5.5993,5.4185,5.3331,5.308,5.2377,5.2327,0.0,0.0,0.0,0.0,0.0,0.0,0.0,0.0,0.0,0.0,0.0,0.0,0.0,0.0,0.0,0.0,0.0,0.0,0.0,0.0,0.0,0.0,0.0,0.0,0.0,0.0,0.0,0.0,0.0,0.0,0.0,0.0,0.0,0.0,0.0,0.0,0.0,7.0799,7.421,0.0,7.2894,7.3492,7.451,7.5527,7.6724,7.7801,7.8938,8.1207,8.3128,8.4575,8.7991,9.1011,9.3428,9.5818,9.734,9.8148,9.8597,9.8319,9.7324,9.7847,9.7944,9.7778,9.8398,9.9049,9.9358,9.6091,9.2794,8.9491,8.7655,8.6261,8.5453,8.5967,8.6114,8.6261,0.0,0.0,0.0,0.0,0.0,0.0,0.0,0.0,4.2696,3.962,3.983,4.0584,4.1163,4.1168,4.1329,4.1811,4.0841,3.9792,3.9097,4.0433,4.1418,4.1952,4.6378,5.0065,5.2699,5.5251,5.7047,5.8152,5.9608,6.0613,6.1165,6.1567,6.1416,6.0864,6.0111,5.9408,5.863,5.7299,5.5629,5.3934,5.303,5.307,5.3614,0.0,0.0,0.0,0.0,0.0,0.0,0.0,0.0,0.0,0.0,0.0,0.0,0.0,0.0,0.0,0.0,0.0,0.0,0.0,0.0,0.0,0.0,0.0,0.0,0.0,0.0,0.0,0.0,0.0,0.0,0.0,0.0,0.0,0.0,7.2355,7.5647,7.5886,7.9417,8.0913,7.8699,7.9297,8.0255,8.1392,8.2978,8.4318,8.541,8.8408,9.0428,9.1008,9.4597,9.7259,9.8956,10.127,10.2908,10.356,10.3764,10.3443,10.2501,10.2623,10.2621,10.2414,10.2559,10.2882,10.2999,10.1384,9.8668,9.5217,9.1913,8.9858,8.8757,8.9271,8.9491,8.9638,0.0,0.0,0.0,0.0,0.0,0.0,0.0,4.228,4.1494,3.8351,3.8504,4.0131,4.351,4.4706,4.5426,4.5891,4.5087,4.3629,4.156,4.19,4.2415,4.3067,4.8217,5.1583,5.2634,5.6696,5.9307,6.0412,6.1517,6.237,6.2873,6.2873,6.2571,6.2069,6.215,6.1496,6.0597,6.2028,5.969,5.485,5.4245,5.4569,5.5538,0.0,0.0,0.0,0.0,0.0,0.0,0.0,0.0,0.0,0.0,0.0,0.0,0.0,0.0,0.0,0.0,0.0,0.0,0.0,0.0,0.0,0.0,0.0,0.0,0.0,0.0,0.0,0.0,0.0,0.0,0.0,0.0,0.0,7.2235,7.6125,7.9297,8.0016,8.3547,8.4923,8.2409,8.4504,8.624,8.6997,9.0111,9.2272,9.2893,9.5573,9.7865,9.9695,10.0628,10.2724,10.6016,10.683,10.759,10.8213,10.7487,10.6405,10.502,10.5521,10.5739,10.5761,10.6313,10.6523,10.6302,10.4687,10.3513,10.2338,9.7566,9.5144,9.441,9.441,9.441,9.441,0.0,0.0,0.0,0.0,0.0,0.0,0.0,4.2548,4.1971,3.8826,4.2147,4.5091,4.5715,4.8021,4.9707,5.0117,4.7337,4.5553,4.5692,4.3699,4.43,4.8407,5.1234,5.4144,5.7492,5.9876,6.1617,6.2772,6.3475,6.3877,6.4028,6.4028,6.3927,6.3859,6.4985,6.5082,6.4378,6.5532,6.4672,6.2394,6.0428,5.9288,5.8636,0.0,0.0,0.0,0.0,0.0,0.0,0.0,0.0,0.0,0.0,0.0,0.0,0.0,0.0,0.0,0.0,0.0,0.0,0.0,0.0,0.0,0.0,0.0,0.0,0.0,0.0,0.0,0.0,0.0,0.0,0.0,7.4151,7.6963,7.6305,8.0554,8.4564,8.6718,8.9591,9.1327,9.1087,9.1746,9.2919,9.4626,9.5661,9.6948,9.8634,10.0789,10.2495,10.3591,10.6358,10.8322,10.9206,11.1646,11.2411,11.1415,11.223,11.1793,11.0312,11.0371,10.9896,10.8799,10.8888,10.8725,10.7991,10.6376,10.5201,10.41,10.0429,9.8521,9.7713,9.7126,9.6906,9.68,0.0,0.0,0.0,0.0,0.0,0.0,0.0,4.3619,4.3893,4.1557,4.5055,4.8276,4.9349,5.1839,5.3251,5.3033,5.0552,4.824,4.637,4.4805,4.602,5.0392,5.3531,5.6691,5.9915,6.2413,6.4178,6.5082,6.5383,6.5283,6.4831,6.4831,6.5133,6.5873,6.676,6.7428,6.7939,6.943,6.9471,6.8527,6.7662,6.5298,6.2247,6.2134,6.2125,6.2119,6.1366,6.0935,6.0342,5.8048,0.0,0.0,0.0,0.0,0.0,0.0,0.0,0.0,0.0,0.0,0.0,0.0,0.0,0.0,0.0,0.0,0.0,0.0,0.0,0.0,0.0,0.0,0.0,0.0,7.9357,8.3146,8.4799,8.6566,8.8933,9.2165,9.39,9.5591,9.7533,9.7679,9.8556,10.0689,10.1733,10.3016,10.4998,10.6667,10.8047,10.8722,11.1102,11.2539,11.2828,11.5041,11.5847,11.5529,11.5374,11.4818,11.3864,11.291,11.1882,11.1001,11.0634,10.9973,10.9166,10.8285,10.7404,10.6302,0.0,0.0,0.0,0.0,9.9402,9.926,0.0,0.0,0.0,0.0,0.0,0.0,0.0,4.5189,4.6318,4.5134,4.7518,5.04,5.3207,5.5398,5.6262,5.5321,5.3971,5.0786,4.523,4.6067,4.8056,5.0647,5.5485,5.9165,6.1389,6.4728,6.6913,6.7678,6.7678,6.7294,6.6433,6.6433,6.7214,6.8572,6.8706,6.9846,7.1659,7.3627,7.4037,7.3545,7.4842,7.1732,6.6295,6.6825,6.7495,6.8041,6.6522,6.5599,6.4589,6.1771,0.0,0.0,0.0,0.0,0.0,0.0,0.0,0.0,0.0,0.0,0.0,0.0,0.0,0.0,0.0,0.0,0.0,0.0,0.0,0.0,0.0,0.0,0.0,0.0,8.531,9.0404,9.5412,9.3973,9.3667,9.717,9.7653,9.9009,10.2174,10.2468,10.3412,10.5546,10.7716,10.9663,11.1308,11.2579,0.0,0.0,0.0,11.6188,11.6769,11.7724,11.8679,11.9664,11.7461,11.6287,11.592,11.3717,11.2616,11.2396,11.1588,11.0928,11.012,10.9973,10.9459,10.8431,10.4614,10.2632,10.1898,10.1824,10.1751,10.1677,0.0,0.0,0.0,0.0,0.0,0.0,0.0,4.6154,4.6459,4.5585,5.0104,5.3448,5.3405,5.6263,5.829,5.8567,5.4902,5.0618,4.6079,4.9593,5.2447,5.3829,5.8263,6.236,6.5719,6.7768,6.9777,7.1791,7.1791,7.2314,7.3458,7.3458,7.365,7.3976,7.5216,7.5931,7.6395,7.796,7.7941,7.6944,7.7718,7.5379,7.1414,7.0997,7.0301,6.9662,6.9819,6.9095,6.7889,6.6454,6.6491,6.674,6.5019,0.0,0.0,0.0,0.0,0.0,0.0,0.0,0.0,0.0,0.0,0.0,0.0,0.0,0.0,0.0,0.0,0.0,0.0,0.0,0.0,8.7692,9.1933,9.6426,10.2416,10.3147,10.3285,10.3457,10.3964,10.4826,10.6127,10.619,10.7087,10.9223,11.0998,11.2938,11.499,11.646,11.774,11.8455,11.9991,12.08,12.0888,12.2347,12.2282,12.0618,11.9517,0.0,11.5993,11.4818,11.357,11.2396,11.2176,11.1735,11.0928,11.0267,10.9459,10.8578,10.6523,10.5201,10.432,10.366,10.3366,10.3293,0.0,0.0,0.0,0.0,0.0,0.0,0.0,4.7544,4.8567,4.8458,5.2017,5.4552,5.4402,5.6402,5.775,5.7449,5.4155,5.0856,4.8005,5.1696,5.4682,5.6264,6.0751,6.5169,6.9401,7.1729,7.3611,7.5037,7.631,7.6928,7.6816,7.6816,7.7062,7.7557,7.8308,7.9211,8.0271,8.1018,8.0913,8.0315,8.0674,7.9597,7.7682,7.6006,7.4929,7.439,7.439,7.3971,7.3178,7.1664,7.1036,7.0669,6.9175,6.8368,6.7926,0.0,0.0,0.0,0.0,0.0,0.0,0.0,0.0,0.0,0.0,0.0,0.0,0.0,0.0,7.7804,8.1298,0.0,8.9317,9.5059,9.8614,10.2432,10.7701,10.9043,10.8696,10.6942,10.7293,10.8407,11.0234,11.1543,11.2753,11.4211,11.6164,11.7853,11.8841,11.981,12.0621,12.135,12.2598,12.3101,12.263,12.3927,12.3701,12.2086,12.0765,11.9223,11.7094,11.5189,11.3995,11.3525,11.2415,11.1804,11.1735,11.0928,11.0414,10.99,10.8725,10.7404,10.6302,10.5862,10.5495,10.4981,0.0,0.0,0.0,0.0,0.0,0.0,0.0,4.887,5.0619,5.1222,5.308,5.4587,5.4988,5.5942,5.6093,5.4988,5.352,5.2159,5.0927,5.439,5.7343,5.9197,6.388,6.8444,7.2708,7.5355,7.7433,7.8767,8.0732,8.1118,8.0053,8.0053,8.0456,8.1208,8.1034,8.2017,8.3726,8.3606,8.3427,8.3367,8.3487,8.3427,8.3128,8.0973,7.9896,7.9477,7.8819,7.834,7.7741,7.6185,7.4749,7.3612,7.3193,7.2176,7.1044,7.0769,6.9916,0.0,0.0,0.0,0.0,0.0,0.0,0.0,0.0,7.2518,7.5294,7.8188,8.2111,8.634,9.0725,9.4265,9.7809,10.2097,10.4744,10.7701,11.2025,11.3172,11.2816,11.0543,11.0706,11.2114,11.4752,11.682,11.8328,11.8958,12.1353,12.2702,12.257,12.2814,12.3214,12.3866,12.4395,12.4446,12.3721,12.4395,12.4289,12.3481,12.1622,11.9865,11.8279,11.4969,11.374,11.4024,11.2009,11.1602,11.2322,11.1515,11.1221,11.1074,11.0487,10.9312,10.7991,10.7697,10.7183,10.6376,0.0,0.0,0.0,0.0,0.0,0.0,0.0,0.0,5.0619,5.1222,5.2729,5.3833,5.3884,5.4486,5.4386,5.3281,5.5174,5.6071,5.5343,5.9935,6.3203,6.4205,6.8641,7.2648,7.5799,7.7126,7.994,8.4277,8.4534,8.5429,8.6674,8.6674,8.6695,8.6758,8.6162,8.638,8.7137,8.6479,8.5881,8.5402,8.6,8.5881,8.5342,8.5043,8.3846,8.223,8.1572,8.0195,7.8639,7.84,7.7502,7.6485,7.6963,7.6245,7.5391,7.6143,7.3233,7.0163,7.1352,7.1344,7.1466,7.3138,7.4785,7.7307,0.0,8.3706,8.5053,8.8525,9.1619,9.4394,9.6835,9.9593,10.3024,10.7824,10.9367,11.1363,11.5647,11.7022,11.7622,11.7935,11.7531,11.7805,11.9609,12.0095,12.0916,12.2561,12.421,12.5217,12.5217,12.5874,12.6385,12.6509,12.5927,12.5487,12.541,12.5487,12.517,12.4289,12.1245,11.9433,11.844,11.4534,11.2368,11.1683,11.0665,11.1093,11.2322,11.1515,11.1221,11.1221,11.1074,11.0487,10.9606,10.8064,10.7477,10.7257,0.0,0.0,0.0,0.0,0.0,0.0,0.0,0.0,0.0,5.1674,5.2628,5.3231,5.3231,5.3482,5.3432,5.298,5.544,5.6966,5.6895,6.2377,6.6028,6.6865,7.0739,7.4447,7.7745,7.9645,8.2525,8.6227,8.7651,8.8505,8.8873,8.8873,8.8634,8.8274,8.7975,8.8035,8.8274,8.7975,8.7676,8.7437,8.7736,8.7676,8.7377,8.6539,8.5521,8.4205,8.2409,8.1272,0.0,0.0,7.816,7.7714,7.9311,7.8987,7.8102,7.9129,7.7622,7.5869,7.6606,7.7226,7.7985,7.9378,8.1593,8.4083,8.6791,8.9578,9.245,9.5595,9.9566,10.3304,10.5492,10.755,10.9756,11.2697,11.385,11.5147,11.7921,11.8537,11.8875,11.9214,11.9281,12.0235,12.2379,12.3895,12.5108,12.575,12.7466,12.7987,12.7018,12.7452,12.7372,12.6932,12.6565,12.5697,12.4278,12.4206,12.3413,12.1591,12.0321,11.8975,11.7575,11.4557,11.256,11.1376,11.0992,11.1384,11.2396,11.2029,11.1588,11.1221,11.1735,11.1368,11.0487,10.8872,10.7991,10.7404,0.0,0.0,0.0,0.0,0.0,0.0,0.0,0.0,0.0,0.0,5.2477,5.2929,5.2929,5.2929,5.2929,5.2929,5.5189,5.7095,5.8458,6.3553,6.7384,6.9161,7.2826,7.6408,7.9827,8.2407,8.5149,8.7984,8.9714,9.0429,8.995,8.995,8.9651,8.9232,8.9232,8.9232,8.9232,8.9232,8.9232,8.9232,8.9232,8.8993,8.8514,8.7018,8.5641,8.4325,8.205,8.0853,0.0,0.0,7.7263,7.7114,7.9414,7.9854,7.9787,8.0839,8.0813,8.0472,8.0496,8.2149,8.4131,8.5875,8.8924,9.1861,9.2974,9.6466,10.0185,10.2652,10.6555,11.0147,11.1974,11.353,11.4883,11.5898,11.6778,11.7657,11.874,11.9078,11.9078,11.8875,11.9484,12.0916,12.321,12.5427,12.7194,12.8438,12.9198,12.9065,12.7673,12.7895,12.7684,12.688,12.6661,12.5748,12.3857,12.3246,12.2006,12.0166,11.9381,11.8287,11.6967,11.4128,11.2427,11.1731,11.0999,11.1624,11.2983,11.2616,11.2102,11.1588,11.2176,11.1882,11.1001,10.9606,10.8799,10.8064,0.0,0.0,0.0,0.0,0.0,0.0,0.0,0.0,0.0,0.0,0.0,0.0,0.0,5.2929,5.2929,5.2929,5.4486,5.7047,6.0835,6.3776,6.7292,7.1618,7.5673,7.9278,8.2332,8.5263,8.807,9.0442,9.0526,9.0608,9.0608,9.0608,9.0608,9.0549,9.0549,9.0549,9.0549,9.0549,9.0549,9.0549,9.0549,8.983,8.8454,8.6479,8.4145,8.1751,8.0375,0.0,0.0,7.5467,7.4569,7.433,7.6315,7.846,8.0471,8.1411,8.1863,8.2148,8.2081,8.476,8.8547,9.2234,9.7171,10.1626,10.3657,10.663,10.9199,11.0686,11.2242,11.3666,11.4477,11.5763,11.6778,11.6913,11.7522,11.8131,11.8131,11.874,11.8875,11.8199,11.8808,11.9895,12.1687,12.3212,12.5767,12.9853,12.8619,12.7443,12.6593,12.7374,12.7611,12.6802,12.6007,12.5517,12.5388,12.3077,12.1926,12.1794,11.8664,11.7179,11.6974,11.2539,11.1208,11.2381,11.0244,11.1292,11.4598,11.2983,11.2396,11.2396,11.2396,11.1882,11.1074,11.0267,10.99,10.9753,0.0,0.0,0.0,0.0,0.0,0.0,0.0,0.0,0.0,0.0,0.0,0.0,0.0,0.0,0.0,0.0,5.4436,5.6445,5.8855,6.4721,6.9326,7.1946,7.7708,8.2332,8.5408,8.6512,8.8389,9.1267,9.0848,9.0608,9.0608,9.0608,9.0608,9.0608,9.0608,9.0608,9.0608,9.0608,9.0369,8.989,8.9052,8.7915,8.6419,8.4025,8.1212,7.8363,0.0,0.0,7.564,7.5247,7.537,7.5992,7.8231,8.011,8.1867,8.3846,8.5902,8.785,8.9313,9.3624,9.8224,10.0978,10.4538,10.7576,10.8862,11.0689,11.2312,11.2786,11.2854,11.2921,11.3192,11.3598,11.4274,11.5289,11.7865,11.9454,11.8889,12.087,12.0755,11.6383,11.8266,11.9826,11.9608,12.1756,12.4801,12.8367,12.7984,12.8112,12.9022,12.8773,12.859,12.8547,12.8182,12.6674,12.3861,12.3096,12.1278,11.8644,11.6982,11.5744,11.4721,11.2187,11.1556,11.2395,11.006,11.1004,11.4011,11.3424,11.291,11.2469,11.2983,11.2396,11.1221,11.0928,11.0781,11.0634,0.0,0.0,0.0,0.0,0.0,0.0,0.0,0.0,0.0,0.0,0.0,0.0,0.0,0.0,0.0,0.0,0.0,5.539,5.7449,6.3077,6.7428,6.9934,7.587,8.0363,8.2777,8.3836,8.5508,8.7736,8.7796,8.7915,8.8155,8.8394,8.8514,8.8514,8.8514,8.8514,8.8514,8.8274,8.7915,8.7437,8.5881,8.4444,8.3024,8.0912,7.8165,0.0,7.5306,7.496,7.4509,7.434,7.4703,7.5701,7.782,8.0132,8.2779,8.6083,8.9106,9.215,9.5466,9.9931,10.4329,10.7103,10.9674,11.1703,11.238,11.353,11.4207,11.3733,11.2786,11.1906,11.1365,11.1298,11.1914,11.3629,11.6993,11.9542,12.0091,12.1963,12.1817,11.7818,11.9196,12.0234,11.9422,12.1305,12.3677,12.6246,12.6386,12.6992,12.8375,12.8906,12.9169,12.9296,12.9277,12.7752,12.4263,12.3547,12.0989,11.6913,11.644,11.5289,11.3598,11.2603,11.2485,11.2748,11.1099,11.1897,11.4378,11.4084,11.3717,11.3277,11.3497,11.2763,11.1588,11.1295,11.1221,11.1074,0.0,0.0,0.0,0.0,0.0,0.0,0.0,0.0,0.0,0.0,0.0,0.0,0.0,0.0,0.0,0.0,0.0,0.0,5.6719,5.9191,6.2312,6.6213,7.0975,7.408,7.5211,7.8139,7.9956,8.0674,8.1871,8.2769,8.3367,8.4102,8.4402,8.4325,8.4402,8.4402,8.4325,8.3726,8.3487,8.3247,8.1332,7.9789,7.8506,7.7361,7.5302,7.3316,7.4917,7.4681,7.3525,7.2908,7.3306,7.4261,7.5803,7.9227,8.3669,8.8171,9.1677,9.5195,10.0269,10.3923,10.7103,11.0689,11.2718,11.3936,11.4613,11.5222,11.5222,11.3733,11.2109,11.0553,10.9065,10.8997,10.9814,11.2149,11.5377,11.8603,12.1748,12.228,12.2405,12.2254,12.1696,12.1341,12.12,12.1847,12.2919,12.4184,12.4183,12.4461,12.5295,12.7797,12.9271,12.9445,12.9445,12.8475,12.6728,12.4104,12.0987,11.7207,11.7133,11.5913,11.3818,11.396,11.3902,11.3828,11.2911,11.3927,11.592,11.5112,11.4818,11.4672,11.3864,11.3057,11.2396,11.1515,11.1221,11.1295,0.0,0.0,0.0,0.0,0.0,0.0,0.0,0.0,0.0,0.0,0.0,0.0,0.0,0.0,0.0,0.0,0.0,0.0,5.5715,6.0315,6.4,6.6354,7.2099,7.5579,7.6407,7.7217,7.7921,7.8579,7.84,7.84,7.8579,7.9779,7.983,7.8878,8.0386,8.0557,7.9597,7.9896,7.9776,7.9178,7.7741,7.6999,7.6625,7.5358,7.4184,7.3461,7.4973,7.501,7.4676,7.6138,7.8478,8.1404,8.401,8.6767,8.9865,9.4399,9.824,10.1825,10.5411,10.9335,11.2786,11.4274,11.5425,11.5966,11.5628,11.441,11.2786,11.0689,10.7779,10.5073,10.3652,10.5614,10.8724,11.2198,11.8275,12.3175,12.5247,12.752,12.7815,12.4418,12.5728,12.6296,12.4719,12.5721,12.66,12.6921,12.63,12.6445,12.7783,12.9779,13.1239,13.1923,13.1977,13.1114,12.9397,12.4493,12.1956,12.1433,11.9055,11.7667,11.7224,11.6607,11.6072,11.5405,11.403,11.4363,11.592,11.5112,11.4818,11.4672,11.3864,11.3497,11.3057,11.1735,11.1588,11.2029,0.0,0.0,0.0,0.0,0.0,0.0,0.0,0.0,0.0,0.0,0.0,0.0,0.0,0.0,0.0,0.0,0.0,0.0,0.0,5.9818,6.2928,6.4236,6.8412,7.0979,7.1637,7.1936,7.2415,7.3073,7.3859,7.4431,7.4734,7.6418,7.6798,7.6085,7.7608,7.7854,7.713,7.6831,7.6715,0.0,0.0,7.4059,7.4362,7.3998,7.3708,7.3674,7.5492,7.7389,7.9399,8.1607,8.3761,8.6196,9.0188,9.2962,9.5601,10.0134,10.3923,10.717,11.0147,11.353,11.6169,11.6304,11.6575,11.6304,11.3936,11.238,11.0418,10.6561,10.3787,10.1622,9.9728,10.3,10.7283,11.1348,11.8402,12.4663,12.8401,13.0442,13.1033,12.9487,13.0524,13.0825,12.9573,12.9503,12.9797,13.044,12.9154,12.8806,13.002,13.1397,13.2524,13.3339,13.3392,13.2617,13.0918,12.66,12.4137,12.3555,12.1401,11.9919,11.8942,11.8458,11.7697,11.6567,11.5593,11.5481,11.5993,11.5479,11.5332,11.5185,11.4378,11.4084,11.4011,11.2689,11.2322,11.2322,0.0,0.0,0.0,0.0,0.0,0.0,0.0,0.0,0.0,0.0,0.0,0.0,0.0,0.0,0.0,0.0,0.0,0.0,0.0,0.0,6.0892,6.1895,6.3386,6.4505,6.5283,6.5887,6.643,6.7034,6.9382,7.0838,7.1459,7.337,7.4199,7.397,7.4965,7.5348,7.5178,7.393,7.386,7.4351,7.2046,7.1515,7.2334,0.0,7.3701,7.4138,7.6402,8.0175,8.464,8.782,8.9106,9.0188,9.5127,9.8307,10.1081,10.5547,10.8794,11.1501,11.441,11.671,11.8199,11.7319,11.6913,11.5628,11.1162,10.9674,10.7644,10.1825,9.9931,9.8713,9.6683,10.0601,10.5587,10.999,11.6901,12.4008,13.0861,13.188,13.2959,13.5741,13.5521,13.5081,13.5227,13.3789,13.3395,13.4612,13.2789,13.1659,13.1856,13.2708,13.3612,13.4273,13.4273,13.3458,13.192,12.9297,12.6905,12.4878,12.3778,12.2215,12.0238,12.0064,11.9216,11.7801,11.75,11.6874,11.6213,11.5993,11.5993,11.592,11.5112,11.4892,11.4818,11.3864,11.3203,11.2689,0.0,0.0,0.0,0.0,0.0,0.0,0.0,0.0,0.0,0.0,5.2879,5.2929,0.0,0.0,0.0,0.0,0.0,0.0,0.0,0.0,0.0,6.4382,6.4715,6.5491,6.6786,6.6913,6.7039,6.7166,6.7631,6.7928,6.8108,6.9585,6.965,6.8668,7.0466,7.0961,7.048,7.009,7.0399,7.1119,7.0645,7.1209,7.2466,7.3233,0.0,0.0,7.7911,8.0107,8.3084,9.0932,9.4789,9.6886,10.0269,10.372,10.7238,11.1095,11.2989,11.4477,11.6913,11.8672,11.9552,11.8199,11.6913,11.4816,11.0418,10.6494,10.2502,9.7766,9.5669,9.4383,9.3368,9.6926,10.2344,10.9496,11.4943,12.1615,13.1338,13.321,13.4983,13.8934,13.9779,14.044,14.11,14.0802,14.0192,13.9167,13.8125,13.6317,13.365,13.4404,13.5007,13.5227,13.5227,13.4679,13.3676,13.0602,12.8765,12.8401,12.5526,12.3991,12.3583,12.3034,12.1817,12.0206,11.8835,11.7682,11.6947,11.6287,11.5993,11.592,11.5112,11.5185,11.5626,11.4084,11.3864,11.4305,0.0,0.0,0.0,0.0,0.0,0.0,0.0,5.1774,5.2277,5.2879,5.3181,5.3231,5.298,5.2929,5.3222,0.0,0.0,0.0,0.0,0.0,0.0,6.5032,6.5781,6.6522,6.7196,6.7196,6.7196,6.7196,0.0,6.8256,6.8306,6.9633,6.9982,6.9346,7.0762,7.1398,7.1408,7.0605,7.0903,7.1886,7.1127,7.1488,7.2467,0.0,0.0,0.0,7.828,8.1054,8.4437,8.9918,9.533,10.0608,10.5614,10.8591,11.1027,11.4342,11.5898,11.6778,11.8266,11.9484,11.989,11.8469,11.671,11.3666,10.7712,10.3382,9.9254,9.3977,9.2286,9.1677,9.1338,9.5955,10.1421,10.6394,11.2048,11.9084,12.8563,13.0877,13.3792,13.9465,14.088,14.1688,14.2495,14.1731,14.1117,14.0824,13.919,13.7544,13.5999,13.6019,13.5815,13.5374,13.5374,13.5227,13.4787,13.238,13.0773,12.9942,12.7505,12.5878,12.5096,12.4289,12.282,12.0765,11.959,11.8122,11.6507,11.6213,11.5993,11.5993,11.5626,11.5699,11.592,11.5112,11.4818,11.4745,0.0,0.0,0.0,0.0,0.0,0.0,0.0,5.2226,5.2779,5.3231,5.3632,5.3822,5.3681,5.363,5.4141,0.0,0.0,0.0,0.0,0.0,0.0,0.0,0.0,0.0,6.8057,0.0,0.0,6.8057,6.9088,0.0,0.0,0.0,0.0,0.0,7.1921,7.2665,7.343,7.1923,7.2133,0.0,0.0,7.1866,7.2529,0.0,0.0,0.0,0.0,8.1325,8.5046,8.8091,9.3503,10.0066,10.6697,11.035,11.2786,11.5222,11.671,11.7793,11.8672,11.9484,11.9687,11.8199,11.5898,11.2109,10.5005,10.0675,9.6616,9.1068,8.985,8.985,9.0121,9.4853,9.9744,10.271,10.808,11.5246,12.4815,12.8,13.1964,13.9318,14.1394,14.2422,14.2789,14.1535,14.0919,14.1355,13.935,13.7936,13.7595,13.7063,13.6402,13.5374,13.5594,13.5594,13.5374,13.3686,13.2071,13.0529,12.8914,12.7299,12.5684,12.4876,12.3408,12.1279,12.0104,11.8416,11.6507,11.6066,11.5993,11.5993,11.5993,11.5993,11.5993,11.5993,11.5626,11.5112,0.0,0.0,0.0,0.0,0.0,0.0,0.0,5.3683,5.4336,5.4386,5.4436,5.4867,5.5846,5.5995,5.5852,0.0,0.0,0.0,0.0,0.0,0.0,0.0,0.0,0.0,0.0,0.0,0.0,7.0882,7.1086,0.0,0.0,0.0,0.0,0.0,0.0,7.2191,7.3409,7.1919,0.0,0.0,0.0,0.0,0.0,0.0,0.0,0.0,0.0,7.9228,8.1596,8.7211,9.0053,9.2286,9.8307,10.5411,11.1703,11.2583,11.441,11.6304,11.7793,11.874,11.8875,11.7387,11.4274,11.008,10.399,9.8713,9.3977,8.9985,8.8632,8.8632,8.9985,9.1792,9.4756,9.9707,10.2815,10.8798,12.1048,12.6017,13.1276,13.928,14.2789,14.4404,14.3817,14.3482,14.2895,14.1541,14.0548,13.9007,13.6769,13.7283,13.6989,13.5448,13.6108,13.6108,13.5374,13.3686,13.2071,13.0529,12.8914,12.7299,12.5684,12.4876,12.3995,12.2894,12.0618,11.9076,11.8122,11.658,11.5993,11.5993,11.5993,11.5993,11.5993,11.5993,11.5993,11.592,0.0,0.0,0.0,0.0,0.0,0.0,5.2377,5.308,5.3683,5.3984,5.496,5.5819,5.6235,5.8851,5.9957,5.8571,0.0,0.0,0.0,0.0,0.0,0.0,0.0,0.0,0.0,0.0,7.1312,7.1312,7.1312,0.0,0.0,0.0,0.0,0.0,0.0,7.2124,7.3409,7.1921,0.0,0.0,0.0,0.0,0.0,0.0,0.0,0.0,0.0,0.0,8.0581,8.2949,8.5993,8.9106,9.0594,9.5804,10.2367,10.7576,11.0689,11.3124,11.5898,11.759,11.8266,11.7184,11.3463,10.8591,10.3111,9.7428,9.2421,8.9106,8.782,8.7955,8.985,9.1068,9.3118,9.7446,9.9691,10.4026,11.3217,11.7804,12.3776,13.3482,13.7281,14.0586,14.4184,14.4477,14.389,14.2202,14.1394,14.0073,13.809,13.787,13.7283,13.6182,13.5961,13.5521,13.4567,13.3539,13.185,12.9795,12.862,12.7299,12.5684,12.539,12.4289,12.2527,12.0985,11.959,11.8269,11.6727,11.6287,11.6727,11.6213,11.6299,11.6762,11.6762,11.7181,11.767,0.0,0.0,0.0,0.0,0.0,5.2226,5.2528,5.303,5.3741,5.4581,5.5767,5.7011,5.8263,6.1241,6.3023,6.2549,6.3399,0.0,0.0,0.0,0.0,0.0,0.0,0.0,0.0,0.0,7.1131,7.0699,7.0699,7.0699,0.0,0.0,7.0882,7.1312,0.0,0.0,0.0,0.0,0.0,0.0,0.0,0.0,0.0,0.0,0.0,0.0,0.0,0.0,0.0,0.0,0.0,8.5858,8.5046,8.7955,9.3368,10.1825,10.6494,10.9809,11.353,11.5763,11.6913,11.6101,11.238,10.7373,10.1961,9.6413,9.1609,8.8632,8.7414,8.755,8.9512,9.0459,9.201,9.4997,9.7279,10.1088,10.8104,11.2714,11.8763,12.7932,13.1519,13.5594,14.1614,14.3229,14.3596,14.2715,14.1614,14.0733,13.9779,13.8458,13.7356,13.6622,13.6108,13.5227,13.4126,13.2805,13.119,12.9281,12.818,12.7005,12.5684,12.5684,12.4582,12.2674,12.1499,12.0178,11.9003,11.6874,11.6589,11.745,11.6683,11.7006,11.7826,11.8125,11.858,11.9156,0.0,0.0,0.0,0.0,0.0,0.0,5.3532,5.4185,5.5191,5.6873,5.7025,5.8658,6.2913,6.2901,6.3842,6.6875,6.7145,0.0,0.0,0.0,0.0,0.0,0.0,0.0,0.0,0.0,7.0654,6.9184,6.9184,6.9184,6.9184,6.9184,6.9916,7.1312,0.0,0.0,0.0,0.0,0.0,0.0,0.0,0.0,0.0,0.0,0.0,0.0,0.0,0.0,0.0,0.0,0.0,0.0,0.0,8.349,8.6467,9.5466,10.1825,10.6697,11.0418,11.3057,11.4613,11.3801,11.0824,10.6494,10.0472,9.5669,9.1609,8.8632,8.7414,8.7347,8.8835,8.9715,9.0729,9.2218,9.5571,10.032,10.7308,11.2911,11.8278,12.392,12.6711,13.0088,13.5007,13.9118,14.1835,14.2495,14.11,14.0586,14.1321,13.9118,13.7356,13.6622,13.6622,13.5815,13.4126,13.1703,13.0088,12.9281,12.7739,12.6491,12.5684,12.5684,12.5317,12.4289,12.194,12.0912,12.0618,11.7314,11.6964,11.8503,11.7724,11.7979,11.8929,11.9759,12.0061,12.0247,0.0,0.0,0.0,0.0,0.0,0.0,0.0,5.4262,5.5486,5.6393,5.9114,6.1488,6.3206,6.5638,6.7526,6.8503,6.8552,0.0,0.0,0.0,0.0,0.0,0.0,0.0,0.0,0.0,7.1131,7.0654,7.0654,7.0654,7.0654,7.0654,7.0882,7.1312,7.1312,7.1718,0.0,0.0,0.0,0.0,0.0,0.0,7.3138,0.0,0.0,0.0,0.0,0.0,0.0,0.0,0.0,0.0,0.0,0.0,0.0,8.8226,9.4045,9.9525,10.2299,10.5005,10.6764,10.5614,10.3179,10.0134,9.621,9.2624,8.9579,8.7685,8.7076,8.7482,8.9512,9.0053,9.1478,9.549,9.7141,9.9707,10.5021,11.0797,11.6881,12.3135,13.2689,13.9706,14.1835,14.2569,14.2936,14.2569,14.1614,14.0733,13.9779,13.8971,13.8311,13.7356,13.5815,13.4126,13.2511,13.119,12.9501,12.7666,12.7078,12.6491,12.5684,12.5684,12.4949,12.3628,12.2307,12.1426,12.0666,11.8618,11.8436,11.933,11.8581,11.9294,12.0684,12.0988,12.1778,12.2922,0.0,0.0,0.0,0.0,0.0,0.0,0.0,5.4742,5.6195,5.84,6.1021,6.3347,6.539,6.7719,6.9442,6.9916,7.0029,0.0,0.0,0.0,0.0,0.0,0.0,0.0,0.0,7.1312,7.1019,7.0494,7.0494,7.0494,7.0494,7.0829,7.106,7.1312,7.1582,7.1853,0.0,0.0,0.0,0.0,0.0,0.0,7.3138,0.0,0.0,0.0,0.0,0.0,0.0,0.0,0.0,0.0,0.0,0.0,0.0,0.0,8.8497,9.3233,9.6886,9.9863,10.1622,10.0405,9.8645,9.6345,9.303,9.0391,8.8294,8.6805,8.6738,8.7414,8.9038,8.9959,9.1548,9.4872,9.6973,9.9674,10.4013,10.9936,11.6374,12.3531,13.428,14.1321,14.1835,14.2789,14.3083,14.2569,14.1614,14.0588,13.9654,13.9337,13.8955,13.8622,13.6121,13.3947,13.2322,13.092,12.9197,12.7299,12.6711,12.6197,12.5684,12.5684,12.5392,12.4717,12.3314,12.2702,0.0,12.0509,12.0119,12.0869,12.0447,12.1035,12.208,12.2693,12.3676,12.4639,0.0,0.0,0.0,0.0,0.0,0.0,0.0,5.5683,5.7523,6.1964,6.2886,6.4607,6.8732,6.928,6.9869,7.1222,0.0,0.0,0.0,0.0,0.0,0.0,0.0,0.0,0.0,7.1086,7.0356,6.904,6.9202,6.925,6.9316,7.0187,7.0809,7.1447,7.2124,7.2056,0.0,0.0,0.0,0.0,7.3747,7.3815,0.0,0.0,0.0,0.0,0.0,0.0,0.0,0.0,0.0,0.0,0.0,0.0,0.0,0.0,0.0,0.0,0.0,9.6616,9.8104,9.736,9.6142,9.4248,9.0729,8.8835,0.0,8.6061,8.6399,8.7144,8.8023,8.9697,9.1139,9.1568,9.5569,10.0138,10.4347,11.0594,11.7654,12.551,13.2658,13.6916,13.6916,14.0293,14.2552,14.2461,14.1194,14.0392,14.0449,13.9875,13.9612,13.9571,13.7244,13.5,13.3222,13.0912,12.9127,12.7886,12.6418,12.566,12.5759,12.5759,12.6336,12.7019,12.4707,12.4537,12.5721,12.2734,12.1883,12.2723,12.2706,12.2927,12.3332,12.4793,12.5409,12.5563,0.0,0.0,0.0,0.0,0.0,0.0,0.0,0.0,0.0,0.0,6.5584,6.8027,6.9088,7.017,7.0928,0.0,0.0,0.0,0.0,0.0,0.0,0.0,0.0,0.0,0.0,6.865,6.8007,6.7705,6.9223,7.0089,7.0089,7.1894,7.2523,7.2124,7.2326,7.2326,0.0,0.0,0.0,0.0,7.4153,7.4762,0.0,0.0,0.0,0.0,7.9566,8.0648,0.0,0.0,0.0,0.0,0.0,0.0,0.0,0.0,8.3896,8.4708,8.6738,0.0,9.0324,8.897,8.8835,8.8632,0.0,8.6535,8.6196,8.5858,8.6399,8.7482,8.9376,9.0452,9.1828,9.4349,9.6566,9.9701,10.4792,11.6106,12.6407,13.3192,13.7723,13.9999,13.9412,14.0807,14.1764,14.2009,14.1666,14.1068,14.0007,14.0394,13.9914,13.8209,13.7575,13.5686,13.2373,13.0585,12.8534,12.6271,12.5904,12.6076,12.6787,12.6787,12.6657,12.6438,12.5836,12.4669,12.3267,12.2621,12.2466,12.2676,12.2804,12.3672,12.4793,12.4486,12.5178,12.6178,0.0,0.0,0.0,0.0,0.0,0.0,0.0,0.0,0.0,0.0,0.0,0.0,0.0,0.0,0.0,0.0,0.0,0.0,0.0,0.0,0.0,0.0,0.0,0.0,7.017,6.8797,6.8454,6.9105,7.0552,7.1284,7.1284,7.313,7.3612,7.2868,7.2868,0.0,0.0,0.0,0.0,0.0,7.5574,0.0,0.0,0.0,0.0,0.0,8.0987,8.1934,0.0,8.2881,8.2881,8.2949,0.0,0.0,0.0,0.0,8.4031,8.4031,8.4099,8.552,8.6805,8.5993,8.6061,8.6264,8.5858,8.552,8.5384,8.5723,8.6399,8.7482,8.9376,9.1521,9.3659,9.5914,9.908,10.3764,11.1196,12.0715,12.9281,13.5815,13.8825,14.0586,14.1174,14.1394,14.1706,14.2313,14.1667,14.1321,14.1147,14.1224,14.0603,13.9057,13.8322,13.6267,13.3038,13.1717,12.992,12.765,12.7278,12.7361,12.7875,12.7875,12.787,12.7951,12.7572,12.6669,12.5484,12.521,12.4383,12.3414,12.3878,12.4101,12.4332,12.4562,12.5024,12.5409,0.0,0.0,0.0,0.0,0.0,0.0,0.0,0.0,0.0,0.0,0.0,0.0,0.0,0.0,0.0,0.0,0.0,0.0,0.0,0.0,0.0,0.0,0.0,6.9346,7.0928,6.9394,6.9298,7.0834,7.1892,7.2456,7.2658,7.433,7.4695,7.3815,7.368,7.368,0.0,0.0,0.0,7.5168,7.7266,0.0,0.0,0.0,0.0,0.0,0.0,0.0,0.0,8.3693,8.3693,8.3761,8.4437,0.0,0.0,0.0,0.0,0.0,8.4234,8.5317,8.6264,8.5587,8.5587,8.5723,8.5655,8.5114,8.4843,8.5655,8.6467,8.7617,8.9444,9.3052,9.6302,9.7678,10.2959,11.0121,11.9254,12.4626,12.9721,13.5668,13.787,13.9779,14.1688,14.1394,14.1466,14.2682,14.151,14.1253,14.2504,14.1884,14.1094,14.0385,13.8873,13.6698,13.3783,13.2867,13.16,12.9683,12.9041,12.8814,12.8887,12.8887,12.942,13.0231,12.9315,12.893,12.8717,12.7717,12.6024,12.4178,12.4793,12.4178,12.3178,12.4486,12.4639,12.4178,0.0,0.0,0.0,0.0,0.0,0.0,0.0,0.0,0.0,0.0,0.0,0.0,0.0,0.0,0.0,0.0,0.0,0.0,0.0,0.0,0.0,7.1312,6.7756,6.6938,6.949,6.7042,6.667,6.8761,7.1341,7.2879,7.3541,7.6236,7.6724,7.5303,7.4695,7.4424,7.4559,0.0,7.6657,7.6724,7.828,0.0,0.0,0.0,0.0,0.0,0.0,0.0,0.0,8.4437,8.4437,8.4505,8.4573,0.0,0.0,0.0,0.0,0.0,8.6805,8.8361,8.8632,8.4776,8.4843,8.5587,8.4979,8.4708,8.4843,8.5655,8.6873,8.8835,9.2286,9.5885,9.9246,10.2187,10.893,11.6106,12.305,12.7399,13.1336,13.5081,13.7577,13.8898,13.8604,13.8971,13.9894,14.1178,14.1124,14.1337,14.2005,14.1937,14.1148,13.9488,13.8565,13.6391,13.29,13.2137,13.0688,12.889,12.8815,12.9104,13.0006,13.0006,13.0063,13.041,12.9488,12.8386,12.7025,12.5332,12.4486,12.4024,12.3485,12.3485,12.387,12.3408,12.3639,12.4178,0.0,0.0,0.0,0.0,0.0,0.0,0.0,0.0,0.0,0.0,0.0,0.0,0.0,0.0,0.0,0.0,0.0,0.0,0.0,0.0,0.0,7.1267,6.8446,6.8132,7.0911,6.9382,6.9793,7.2333,7.4456,7.589,7.6626,7.7561,7.7604,7.686,7.5709,7.5642,7.6454,7.6792,7.7333,7.8145,0.0,0.0,0.0,0.0,0.0,0.0,0.0,0.0,0.0,0.0,8.464,8.464,8.464,0.0,0.0,0.0,0.0,0.0,8.5384,8.6941,8.8023,8.6332,8.8204,9.0444,9.0448,8.9766,8.9677,9.1277,9.1834,9.3173,9.6997,10.111,10.597,11.2585,11.7305,12.1708,12.5887,12.8113,13.0602,13.4273,13.6108,13.743,13.8384,13.8825,13.9538,14.0706,14.0018,13.9852,14.078,14.0935,14.016,13.8475,13.7203,13.5291,13.2671,13.0882,12.9841,12.953,13.0071,13.0581,13.1006,13.1006,13.1095,13.1102,13.0333,12.9179,12.8025,12.6717,12.5332,12.4101,12.3716,12.3178,12.2716,12.2331,12.2716,12.3639,0.0,0.0,0.0,0.0,0.0,0.0,0.0,0.0,0.0,0.0,0.0,0.0,0.0,0.0,0.0,0.0,0.0,0.0,0.0,0.0,7.017,7.1267,7.0024,7.0321,7.2619,7.2426,7.3691,7.6521,7.8213,7.9295,7.9837,7.8957,7.8416,7.8213,7.686,7.686,7.7942,7.7604,7.8077,7.916,0.0,0.0,0.0,0.0,0.0,0.0,0.0,0.0,0.0,0.0,0.0,0.0,0.0,0.0,0.0,8.464,8.464,8.464,8.4573,8.6331,8.8246,8.9049,9.1083,9.3429,9.5558,9.4707,9.4358,9.739,9.7674,9.8384,10.1507,10.6616,11.303,12.1134,12.4509,12.7005,12.9501,12.9795,13.119,13.4787,13.5521,13.6622,13.8825,13.8678,13.8905,13.998,13.881,13.8399,13.949,13.9402,13.8736,13.7408,13.565,13.3798,13.2036,13.0236,12.9613,13.0198,13.0978,13.1486,13.1718,13.1718,13.1718,13.1564,13.0564,12.9794,12.9102,12.764,12.587,12.4101,12.3716,12.2716,12.1562,12.1562,12.2331,12.3332,0.0,0.0,0.0,0.0,0.0,0.0,0.0,0.0,0.0,0.0,0.0,0.0,0.0,0.0,0.0,0.0,0.0,0.0,0.0,0.0,7.1222,7.1312,7.1806,7.2481,7.3409,7.4157,7.5954,7.8889,8.1054,8.2137,8.2137,8.0716,7.9701,7.9025,7.8213,7.7874,7.801,7.8686,7.9025,7.916,7.9837,0.0,0.0,0.0,0.0,0.0,0.0,0.0,0.0,0.0,0.0,0.0,0.0,0.0,8.464,8.464,8.464,8.5046,8.7144,8.962,9.1939,9.2753,9.0618,9.018,9.6557,9.6307,9.61,10.1173,10.2848,10.3527,10.4294,11.1155,11.8154,12.2478,12.7666,13.1997,13.4493,13.4934,13.5815,13.8311,13.743,13.7209,13.8825,13.7577,13.7209,13.8342,13.7618,13.7576,13.8585,13.7196,13.6329,13.6178,13.3912,13.1746,12.9954,13.0806,13.0897,13.0198,13.0337,13.0835,13.1718,13.1718,13.1718,13.1564,13.0025,12.9333,12.8871,12.5717,12.4332,12.387,12.2408,12.1716,12.1562,12.1562,12.2562,12.4024,0.0,0.0,0.0,0.0,0.0,0.0,0.0,0.0,0.0,0.0,0.0,0.0,0.0,0.0,0.0,0.0,0.0,0.0,0.0,7.1312,7.1312,7.1312,7.2462,7.3409,7.4153,7.6824,7.9851,8.3287,8.4099,8.4031,8.3016,8.1122,8.004,7.9701,7.8551,7.8483,7.9363,7.916,7.9363,7.9837,8.0581,8.0581,0.0,0.0,0.0,0.0,0.0,0.0,0.0,0.0,8.464,8.464,8.464,8.464,8.464,8.464,8.464,8.4843,8.5655,8.8001,9.0414,9.1165,9.2043,9.4522,10.1345,10.2631,10.3814,10.9064,11.0755,11.1772,11.303,11.752,12.2348,12.639,13.0529,13.4053,13.6475,13.6475,13.6475,13.743,13.6989,13.6769,13.743,13.6989,13.6764,13.7144,13.6458,13.5849,13.58,13.5883,13.5389,13.4416,13.3036,13.1398,12.969,12.9606,12.9494,12.9287,13.0475,13.1303,13.1718,13.1718,13.1718,13.1564,12.9871,12.9179,12.9025,12.6717,12.5101,12.387,12.2331,12.1562,12.1562,12.1562,12.2331,12.3408,0.0,0.0,0.0,0.0,0.0,0.0,0.0,0.0,0.0,0.0,0.0,0.0,0.0,0.0,0.0,0.0,0.0,0.0,7.1312,7.1312,7.1312,7.1312,7.2732,7.4086,7.5303,7.8957,8.2272,8.5046,8.552,8.4979,8.3422,8.146,8.0445,8.0175,7.9363,7.9566,8.0513,8.004,8.0242,8.0919,8.119,8.1122,0.0,0.0,0.0,0.0,0.0,0.0,0.0,0.0,8.464,8.464,8.464,8.464,8.464,8.464,8.489,8.51,8.5018,8.7045,8.9476,9.055,9.3561,9.8232,10.5932,10.7955,11.0175,11.6494,11.7314,11.7314,11.893,12.1205,12.4289,12.862,13.2438,13.5668,13.787,13.7503,13.6989,13.6989,13.6475,13.6329,13.6622,13.6108,13.5815,13.5815,13.5081,13.442,13.3832,13.4246,13.3996,13.2761,13.1474,13.0287,12.9174,12.8704,12.8597,12.8664,13.07,13.1718,13.1718,13.1718,13.1718,13.1564,12.9871,12.9179,12.9025,12.7101,12.5332,12.3639,12.2177,12.1562,12.1562,12.1562,12.2177,12.3024,0.0,0.0,0.0,0.0,0.0,0.0,0.0,0.0,0.0,0.0,0.0,0.0,0.0,0.0,0.0,0.0,0.0,0.0,7.1312,7.1312,7.1312,7.1312,7.2732,7.4559,7.6792,8.0513,8.2746,8.3558,8.5046,8.4979,8.349,8.2002,8.0919,8.0242,8.0987,8.1325,8.1325,8.1325,8.1731,8.234,8.1596,8.1731,8.2475,0.0,0.0,0.0,0.0,0.0,0.0,0.0,8.464,8.464,8.464,8.464,8.464,8.464,8.5447,8.6325,8.5947,8.7661,8.9975,9.1847,9.5075,10.0222,10.9566,11.167,11.4191,12.2844,12.1279,11.9003,12.0691,12.1572,12.3701,12.8547,13.3392,13.7209,13.8825,13.8311,13.7797,13.7797,13.6402,13.5668,13.6475,13.5081,13.4126,13.4126,13.3392,13.2878,13.2878,13.2071,13.1703,13.1703,12.9354,12.8106,12.8157,12.8491,12.8664,12.8702,13.0729,13.1718,13.1718,13.1718,13.1718,13.1564,12.9871,12.9179,12.9025,12.6409,12.4409,12.2793,12.187,12.1562,12.1562,12.1562,12.2177,12.3024,0.0,0.0,0.0,0.0,0.0,0.0,0.0,0.0,0.0,0.0,0.0,0.0,0.0,0.0,0.0,0.0,0.0,0.0,7.1312,7.1312,7.1312,7.1312,7.2191,7.3274,7.4492,7.8145,8.2002,8.5926,8.5249,8.4167,8.2746,8.1731,8.119,8.0987,8.1731,8.2069,8.2069,8.2069,8.2205,8.2408,8.2746,8.2678,0.0,0.0,0.0,0.0,0.0,0.0,0.0,0.0,0.0,0.0,8.464,8.4979,8.5317,8.4776,8.5245,8.5991,8.6147,8.8354,9.1191,9.3848,9.9296,10.5763,11.2706,11.4565,11.7531,12.6092,12.5977,12.4509,12.5023,12.583,12.7152,12.9721,13.3319,13.6475,13.8678,13.8311,13.7797,13.7797,13.5815,13.4567,13.4787,13.3906,13.3319,13.3319,13.3025,13.2731,13.2071,13.1777,13.119,13.0015,12.9281,12.8705,12.8311,12.9088,12.9602,12.9809,13.1111,13.1718,13.1718,13.1718,13.141,13.0794,12.9717,12.8871,12.8102,12.5486,12.4178,12.3639,12.2177,12.1562,12.1562,12.1562,12.2177,12.287,0.0,0.0,0.0,0.0,0.0,0.0,0.0,0.0,0.0,0.0,6.432,0.0,0.0,0.0,0.0,0.0,0.0,0.0,0.0,7.1718,7.165,7.1312,7.2259,7.3747,7.5709,7.7942,8.0919,8.4708,8.3761,8.3016,8.2408,8.1663,8.146,8.1799,8.2543,8.2813,8.2813,8.2813,8.3016,8.3287,8.3422,8.3422,8.3355,0.0,0.0,0.0,0.0,0.0,0.0,0.0,0.0,0.0,8.464,8.4979,8.5384,8.552,8.6111,8.7103,8.872,9.0822,9.3744,9.8706,10.3892,10.9692,11.7202,12.0848,12.3991,12.92,12.9207,12.8473,12.9207,12.8914,12.9428,13.1997,13.4126,13.6035,13.7797,13.7577,13.7209,13.6916,13.5227,13.4126,13.4126,13.3098,13.2438,13.2438,13.2071,13.1703,13.119,13.0896,13.0309,12.9281,12.9123,12.8791,12.8409,12.9531,13.013,13.0198,13.1222,13.1487,13.1179,13.1564,13.1333,13.041,12.8871,12.7871,12.7178,12.4716,12.3793,12.387,12.2331,12.1562,12.1562,12.1562,12.187,12.2408,0.0,0.0,0.0,0.0,0.0,0.0,0.0,0.0,0.0,0.0,6.3079,6.3592,0.0,0.0,0.0,0.0,0.0,0.0,0.0,0.0,7.1874,7.1266,7.2822,7.5303,7.8754,7.8957,7.9701,8.1054,8.119,8.1663,8.2272,8.1663,8.1799,8.2543,8.3287,8.3625,8.3625,8.3625,8.4031,8.4573,8.3896,8.4031,8.464,8.464,0.0,0.0,0.0,0.0,0.0,0.0,0.0,0.0,8.464,8.4708,8.4979,8.6399,8.7549,8.9084,9.2595,9.4527,9.7355,10.542,10.9209,11.3322,12.2698,12.84,13.1777,13.1777,13.141,13.1483,13.3098,13.1483,13.119,13.4934,13.5521,13.5815,13.6475,13.6475,13.6182,13.5521,13.4493,13.3906,13.3906,13.2511,13.1557,13.1483,13.0896,13.0382,13.0309,12.9721,12.9332,12.9214,12.8756,12.8542,12.861,12.9666,13.0229,13.0323,13.1172,13.1179,13.0487,13.1333,13.1102,13.0025,12.7563,12.6486,12.6255,12.387,12.3332,12.3793,12.2177,12.1562,12.1562,12.1562,12.1562,12.1716,0.0,0.0,0.0,0.0,0.0,0.0,0.0,0.0,0.0,0.0,0.0,0.0,0.0,0.0,0.0,0.0,0.0,0.0,0.0,0.0,7.0626,7.0542,7.35,7.5574,7.6386,7.7604,7.8686,7.9566,8.0716,8.1393,8.1528,8.1934,8.2543,8.3287,8.4031,8.437,8.437,8.437,8.4505,8.464,8.4437,8.4505,8.464,8.464,8.464,0.0,0.0,0.0,0.0,0.0,0.0,0.0,8.464,8.5046,8.5587,8.5926,8.7744,9.0373,9.4017,9.7276,10.1528,10.9294,11.6765,12.3088,12.6514,13.0088,13.2584,13.2584,13.4126,13.5594,13.6549,13.5815,13.5301,13.6182,13.6329,13.6402,13.6622,13.6108,13.5594,13.5374,13.3465,13.2217,13.2217,13.1336,13.0529,12.9868,13.0235,12.9868,12.8694,12.9134,12.9074,12.8598,12.8499,12.8931,12.9834,13.0082,13.0581,13.1433,13.1026,13.0718,13.0487,13.0718,12.9563,12.7409,12.6178,12.5332,12.4562,12.3408,12.3024,12.3101,12.2024,12.1562,12.1562,12.1562,12.1562,12.1562,0.0,0.0,0.0,0.0,0.0,0.0,0.0,0.0,0.0,0.0,0.0,0.0,0.0,0.0,0.0,0.0,0.0,0.0,0.0,0.0,7.0069,7.0832,7.396,7.6048,7.6792,7.7942,7.9025,8.0175,8.0919,8.146,8.1866,8.2611,8.3355,8.4031,8.4437,8.464,8.464,8.464,8.464,8.464,8.464,8.464,8.464,8.464,8.464,8.464,8.464,0.0,0.0,0.0,0.0,0.0,0.0,0.0,8.5384,8.6129,8.8209,9.1332,9.5799,10.0511,10.6166,11.4901,12.2013,12.7152,12.84,13.0896,13.3245,13.442,13.5961,13.7283,13.765,13.7503,13.6916,13.6182,13.5668,13.5301,13.4934,13.4787,13.464,13.42,13.3098,13.2071,13.1703,13.0969,13.0309,12.9942,12.9942,12.9575,12.8694,12.8779,12.8737,12.8409,12.9019,12.9598,13.0166,13.0288,13.058,13.1102,13.0333,12.9181,12.8017,12.8017,12.7327,12.592,12.4157,12.3727,12.4024,12.2793,12.2485,12.2793,12.187,12.1562,12.1562,12.1562,12.1562,12.1562,0.0,0.0,0.0,0.0,0.0,0.0,0.0,0.0,0.0,0.0,0.0,0.0,0.0,0.0,0.0,0.0,0.0,0.0,0.0,0.0,0.0,7.1622,7.4168,7.6279,7.7942,7.8754,7.9837,8.1257,8.1393,8.1934,8.2813,8.3287,8.3896,8.464,8.464,8.464,8.464,8.464,8.4708,8.4843,8.4708,8.4708,8.4843,8.4708,8.464,8.464,8.464,8.464,8.464,8.464,0.0,0.0,0.0,0.0,8.4911,8.6467,8.8637,9.1764,9.7221,10.3787,11.1192,11.9884,12.5096,12.8326,12.9134,13.119,13.3612,13.5888,13.6989,13.765,13.8017,13.765,13.6916,13.5594,13.442,13.3465,13.3025,13.3172,13.3319,13.2805,13.2584,13.2217,13.1557,13.0896,13.0382,13.0088,12.9575,12.9236,12.8997,12.8608,12.8511,12.8716,12.9701,13.0261,13.0491,13.0508,13.0487,13.0487,12.9232,12.714,12.441,12.4187,12.431,12.4401,12.2418,12.231,12.3562,12.2177,12.2024,12.2639,12.187,12.1562,12.1562,12.1562,12.1562,12.1562,0.0,0.0,0.0,0.0,0.0,0.0,0.0,0.0,0.0,0.0,6.3558,0.0,0.0,0.0,0.0,0.0,0.0,0.0,6.643,0.0,0.0,7.213,7.3935,7.5855,7.7942,7.8754,7.9837,8.1257,8.1934,8.2949,8.4302,8.3761,8.3896,8.464,8.464,8.464,8.464,8.464,8.4979,8.5587,8.4911,8.5046,8.552,8.4911,8.464,8.464,8.464,8.464,8.464,8.464,8.464,0.0,0.0,0.0,8.4911,8.6467,8.8447,9.1281,9.648,10.622,11.5993,12.0912,12.5096,12.8326,12.9134,13.119,13.3392,13.5227,13.6182,13.7209,13.8604,13.7136,13.5668,13.5374,13.3465,13.2217,13.2805,13.1777,13.119,13.1777,13.119,13.0823,13.0676,13.0602,12.9868,12.8473,12.8987,12.8828,12.7471,12.8141,12.8897,12.9852,13.0071,13.0611,13.1512,13.0821,13.0487,13.0487,12.7293,12.4031,12.0633,11.9959,12.0475,12.196,12.1579,12.1698,12.187,12.1716,12.1716,12.1793,12.1562,12.1562,12.1562,12.1562,12.1562,12.1562,0.0,0.0,0.0,0.0,0.0,0.0,0.0,0.0,0.0,0.0,0.0,6.4629,0.0,0.0,0.0,6.6906,6.6733,6.643,6.6011,6.7375,6.9318,7.1816,7.4091,7.6369,7.8569,7.9769,8.0851,8.1934,8.2678,8.4234,8.6535,8.6602,8.6399,8.5926,8.5926,8.5655,8.5249,8.5249,8.5249,8.5114,8.4776,8.4573,8.4505,8.4573,8.437,8.4031,8.4505,8.464,8.464,8.464,8.464,8.464,8.464,0.0,0.0,0.0,8.8289,9.2558,10.1181,10.851,11.5141,12.1207,12.5096,12.7813,12.8987,13.119,13.3392,13.5081,13.5668,13.6108,13.6916,13.6108,13.4934,13.3612,13.2364,13.1703,13.163,13.1927,13.1831,13.1073,13.1558,13.1707,13.0581,13.0088,12.9501,12.884,12.8755,12.8534,12.7888,12.8803,12.9666,13.0166,13.0317,13.0635,13.1025,12.9333,12.7871,12.6871,12.4878,12.2583,12.0084,11.9727,12.0008,12.0594,12.0228,12.0626,12.1562,12.1562,12.1562,12.1562,12.1562,12.1562,12.1562,12.1562,12.1562,12.1562,0.0,0.0,0.0,0.0,0.0,0.0,0.0,0.0,0.0,0.0,0.0,0.0,0.0,0.0,0.0,0.0,6.649,6.655,6.6071,6.7389,6.9267,7.1666,7.3977,7.6537,7.9313,8.0445,8.1596,8.2678,8.3219,8.5249,8.8564,8.9106,8.9309,8.9106,8.8361,8.7617,8.6873,8.6535,8.6264,8.5993,8.4979,8.437,8.4099,8.4031,8.3693,8.3355,8.4099,8.437,8.437,8.4573,8.464,8.464,8.464,8.5182,0.0,0.0,0.0,9.3186,10.2834,10.7617,11.1698,11.9351,12.3408,12.6271,12.8473,13.0676,13.2805,13.442,13.4787,13.4713,13.4493,13.464,13.4126,13.1997,13.141,13.0969,13.0602,13.1535,13.1779,13.0559,13.1683,13.2001,13.0632,12.9795,12.9207,12.8987,12.8616,12.8392,12.8471,12.963,13.0215,13.0276,13.0355,13.041,13.0179,12.7563,12.5336,12.3087,12.2319,12.0883,11.9224,11.9509,11.9573,11.9724,11.9406,12.009,12.1562,12.1562,12.1562,12.1562,12.1562,12.1562,12.1562,12.1562,12.1562,12.1562,0.0,0.0,0.0,0.0,0.0,0.0,0.0,0.0,0.0,0.0,0.0,0.0,0.0,6.5592,6.6011,6.6011,6.6071,6.6071,6.6011,6.7271,6.9332,7.2324,7.3195,0.0,8.0057,8.0242,8.1325,8.3422,8.349,8.579,9.0121,9.0121,9.2015,9.5195,9.2353,9.0662,8.9918,8.8497,8.87,8.9579,8.6061,8.5046,8.5452,8.3355,8.2475,8.2543,8.3287,8.3558,0.0,0.0,0.0,8.464,8.464,8.5182,8.5926,0.0,0.0,0.0,9.6904,10.1498,10.6502,11.3517,11.8783,12.3408,12.7299,12.9428,13.1116,13.2731,13.3025,13.2805,13.1997,13.2511,13.2731,13.1777,13.0382,12.9721,13.0382,12.992,12.9824,13.0382,13.0581,13.0632,13.0529,12.9795,12.8987,12.818,12.832,12.8514,12.8663,12.9598,13.0305,13.0488,13.0462,13.0102,12.9333,12.6717,12.3804,12.0417,11.9501,11.822,11.6473,11.7383,11.8194,11.9004,11.9825,12.073,12.1562,12.1562,12.1562,12.1562,12.1562,12.1562,12.1562,12.1562,12.1562,12.1562,0.0,0.0,0.0,0.0,0.0,0.0,0.0,0.0,0.0,0.0,0.0,0.0,0.0,6.6251,6.6789,6.7208,6.7687,6.7926,6.7926,6.8345,7.0434,7.4363,7.4797,7.704,8.1544,8.2069,8.2678,8.349,8.3964,8.5993,8.9512,9.0459,9.2421,9.506,9.3436,9.2083,9.0797,8.9309,8.8429,8.7888,8.5587,8.4505,8.4167,8.2881,8.2137,8.1799,8.2543,0.0,0.0,0.0,0.0,0.0,0.0,0.0,8.7347,8.8091,8.902,9.074,9.5245,9.8652,10.2478,10.8917,11.5113,12.0398,12.2894,12.7078,13.0676,13.119,13.2217,13.2731,13.1777,13.1924,13.1924,13.1116,13.0382,13.0235,13.0529,13.0846,13.0894,13.0485,13.1067,13.1116,12.9773,12.8987,12.818,12.7372,12.8081,12.8617,12.8702,13.0337,13.0996,13.0487,12.941,12.7409,12.4409,12.3408,12.1828,11.9533,11.8587,11.7924,11.7306,11.7643,11.7897,11.828,11.9686,12.0808,12.1562,12.1023,12.11,12.1562,12.1562,12.1562,12.1562,12.1562,12.2024,12.2408,0.0,0.0,0.0,0.0,0.0,0.0,0.0,0.0,0.0,0.0,0.0,0.0,0.0,0.0,6.8286,6.8884,6.9363,6.9542,6.9363,7.0233,7.2274,7.5573,7.6661,7.8913,8.2694,8.3016,8.3355,8.3896,8.4099,8.6061,8.9512,9.0459,9.2421,9.506,9.4045,9.3165,9.2353,9.1135,8.9715,8.8158,8.5926,8.4843,8.4573,8.3828,8.3084,8.2543,8.3558,0.0,0.0,0.0,0.0,0.0,0.0,0.0,0.0,8.8835,8.9106,8.9836,9.3269,9.5918,9.9248,10.5717,11.1108,11.592,12.0324,12.4362,12.7739,12.9428,13.0823,13.163,13.1336,13.1263,13.1116,13.0602,13.0529,13.0529,13.0529,13.1067,13.1312,13.0559,13.1117,13.0968,12.9406,12.862,12.7813,12.7005,12.7678,12.828,12.8702,13.0261,13.0715,12.9717,12.7717,12.5024,12.1562,12.1331,12.0331,11.8715,11.7792,11.7407,11.7407,11.7715,11.7792,11.7869,11.9331,12.0408,12.11,12.0869,12.11,12.1562,12.1562,12.1793,12.2024,12.2024,12.2562,12.3332,0.0,0.0,0.0,0.0,0.0,0.0,0.0,0.0,0.0,0.0,0.0,0.0,0.0,0.0,0.0,7.0919,7.0979,7.0679,7.0145,7.2824,7.4863,7.5823,7.8598,8.117,8.3437,8.2813,8.3152,8.464,8.3896,8.579,9.0121,9.0121,9.2083,9.5601,9.4248,9.3977,9.4586,9.3774,9.2624,9.1,8.7347,8.6332,8.6941,8.6129,8.5317,8.4911,8.6399,8.5993,0.0,8.4776,0.0,0.0,0.0,0.0,0.0,0.0,8.9106,8.9373,0.0,0.0,0.0,10.3698,10.6515,10.9973,11.9517,12.1205,12.2086,12.6932,12.862,12.9428,13.0309,13.0529,13.0529,13.0529,13.0529,13.0529,13.0529,13.0382,13.0382,13.0382,13.0382,13.0088,12.9281,12.8473,12.7666,12.6932,12.7107,12.7584,12.8551,12.9632,12.9417,12.7769,12.5332,12.3178,12.1485,12.0716,11.9408,11.7792,11.6869,11.6484,11.6484,11.7407,11.7792,11.7792,11.8715,11.9562,12.0331,12.1177,12.1562,12.1562,12.1562,12.21,12.287,12.287,12.3485,12.4178,0.0,0.0,0.0,0.0,0.0,0.0,0.0,0.0,0.0,0.0,0.0,0.0,0.0,0.0,7.2176,7.2355,7.2355,7.2762,7.3746,7.4622,7.6419,7.9504,8.0471,8.1957,8.4249,8.4099,8.4234,8.464,8.4437,8.552,8.782,8.8361,8.9985,9.2624,9.3842,9.3571,9.2218,9.1474,9.1541,9.1812,8.8632,8.8158,8.9038,8.667,8.5993,8.6332,8.6738,8.7685,8.8564,0.0,8.8903,9.0121,0.0,0.0,0.0,0.0,0.0,9.0052,9.0778,0.0,0.0,0.0,0.0,0.0,11.0707,11.4598,11.8563,12.2894,12.4876,12.6638,12.9207,13.0088,13.0529,13.0529,13.0015,12.9648,12.9648,12.9134,12.8767,12.8767,12.8767,12.84,12.7592,12.7372,12.6932,12.6124,12.681,12.7317,12.7584,12.7509,12.6711,12.5231,12.3332,12.1485,11.9792,11.8869,11.7869,11.6869,11.6561,11.6484,11.6484,11.7407,11.7484,11.7023,11.91,11.9792,11.9485,12.0331,12.1023,12.1562,12.1562,12.21,12.3024,12.3639,12.4716,12.6101,0.0,0.0,0.0,0.0,0.0,6.9004,6.9004,6.9004,0.0,0.0,0.0,0.0,0.0,0.0,0.0,7.3732,7.4342,7.502,7.5615,7.7302,7.9064,8.111,8.2112,8.3293,8.4587,8.464,8.4776,8.5114,8.5114,8.5858,8.7347,8.782,8.9038,9.0932,9.2218,9.2421,9.1744,9.1,9.1,9.1406,9.0324,9.0527,9.1599,9.1451,9.1453,9.1645,9.2556,0.0,9.363,9.1946,9.1636,0.0,0.0,0.0,0.0,0.0,0.0,9.2407,9.2697,9.4027,9.5867,9.7956,0.0,0.0,10.8578,11.1588,11.4892,11.9957,12.26,12.4803,12.7299,12.8694,12.9575,12.9942,12.8987,12.8547,12.9207,12.862,12.8106,12.8106,12.8106,12.7813,12.7005,12.6932,12.6565,12.5757,12.5898,12.6134,12.6328,12.5714,12.4901,12.3615,12.187,12.0331,11.8638,11.81,11.7407,11.6484,11.6484,11.6484,11.6484,11.7023,11.7176,11.71,11.9023,11.9715,11.9715,12.0485,12.1408,12.21,12.21,12.287,12.4024,12.4486,12.5717,12.7332,0.0,0.0,6.7747,6.9004,6.9243,6.9363,6.9423,6.9423,0.0,0.0,0.0,0.0,0.0,0.0,0.0,0.0,7.6436,7.7235,7.6994,8.0259,8.2015,8.1579,8.3591,8.4776,8.4776,8.4843,8.5249,8.5926,8.5926,8.667,8.8091,8.8091,8.8903,0.0,9.0391,9.1135,9.2286,9.188,9.1271,9.0729,9.2083,9.335,9.4719,9.787,9.8833,9.8731,10.0691,10.0585,9.9086,9.6327,9.3896,0.0,0.0,0.0,0.0,0.0,9.4241,9.5188,9.5403,9.6389,0.0,10.0887,10.1047,0.0,10.9679,11.0414,11.1221,11.7388,12.0471,12.26,12.4362,12.6051,12.7372,12.8033,12.7225,12.7078,12.8914,12.84,12.7813,12.7813,12.7813,12.7592,12.6785,12.6785,12.6468,12.5808,12.4999,12.4589,12.4701,12.4207,12.349,12.2639,12.1023,11.9408,11.7792,11.7715,11.733,11.6484,11.6484,11.6484,11.6484,11.6715,11.7176,11.7869,11.8869,11.9715,12.0408,12.1177,12.21,12.287,12.287,12.387,12.5409,12.5486,12.6563,12.8102,6.667,6.8226,6.9662,7.038,7.0979,7.1517,7.2056,7.2176,7.2176,7.2355,7.2894,0.0,0.0,0.0,0.0,0.0,7.7095,7.8376,8.0926,8.1755,8.2731,8.3887,8.4953,8.5587,8.5587,8.6129,8.6535,8.667,8.667,8.7414,8.8903,8.8903,8.9647,9.1135,9.1744,9.1812,9.1609,9.33,9.3639,9.303,9.3909,9.616,9.8951,9.9026,10.0051,10.1591,10.1992,10.2379,10.2346,10.1167,9.8861,9.6339,0.0,0.0,0.0,9.399,0.0,0.0,0.0,0.0,0.0,0.0,10.0489,0.0,10.41,10.5422,10.733,11.1882,11.3717,11.5406,11.8342,12.0178,12.1059,12.0618,12.2527,12.5023,12.7886,12.7078,12.6197,12.6197,12.6197,12.6124,12.5904,12.5904,12.5906,12.5925,12.515,12.4291,12.3117,12.3028,12.2261,12.0923,11.9792,11.8792,11.7792,11.71,11.6715,11.6484,11.6484,11.6484,11.6484,11.8023,11.8331,11.7869,12.01,12.0793,12.0408,12.1177,12.21,12.287,12.287,12.387,12.5486,12.6178,12.7486,12.9025,6.7807,6.9064,7.026,7.1218,7.1637,7.2116,7.2834,7.2894,7.3133,7.3791,7.4749,7.5347,0.0,0.0,0.0,0.0,0.0,0.0,0.0,8.3696,8.4756,8.5128,8.5926,8.6332,8.6332,8.7076,8.7617,8.8023,8.8361,8.9106,9.0188,9.0188,9.0391,9.0797,9.1947,9.2218,9.1947,9.3909,9.5535,9.6851,9.6911,9.8187,10.0386,10.2706,10.4182,10.534,10.677,10.6675,10.529,10.2999,10.1248,0.0,9.7777,9.7569,9.8134,0.0,9.9111,9.9712,0.0,0.0,0.0,10.1409,0.0,0.0,0.0,10.5201,10.667,10.99,11.1588,11.2983,11.5039,11.6727,11.7902,11.8269,11.9811,12.1572,12.3555,12.4876,12.5684,12.5684,12.5684,12.5463,12.5096,12.5191,12.4915,12.4157,12.4284,12.3749,12.21,12.2123,12.1425,11.9792,11.9331,11.8484,11.7176,11.6715,11.6484,11.6484,11.6484,11.6715,11.7176,11.81,11.8715,11.91,12.0408,12.1023,12.1023,12.1408,12.2408,12.3485,12.3485,12.4332,12.5563,12.6794,12.8102,12.9333,6.9004,6.9722,7.056,7.1876,7.2056,7.2355,7.3193,7.3313,7.3732,7.4929,7.6006,7.6624,7.6551,0.0,0.0,0.0,0.0,0.0,0.0,8.5605,8.6399,8.579,8.667,8.7076,8.6941,8.7888,8.87,8.9309,9.0053,9.0797,9.1541,9.1541,9.1271,9.0932,9.1947,9.2556,9.2962,9.4315,9.7087,10.0412,10.0163,10.08,10.2197,10.6547,10.8307,10.8908,11.13,11.0636,10.7977,10.4472,10.3412,10.3038,9.9888,10.0923,0.0,0.0,0.0,0.0,0.0,0.0,0.0,0.0,0.0,10.4687,0.0,0.0,0.0,10.9092,11.0414,11.1368,11.2102,11.3424,11.4672,11.5479,11.6507,11.7314,11.7461,12.1205,12.3922,12.4289,12.4362,12.4314,12.3894,12.4096,12.3795,12.2507,12.3135,12.2899,12.1476,12.1501,12.0869,11.9408,11.9177,11.8331,11.6792,11.6561,11.6484,11.6484,11.6484,11.7023,11.7792,11.8023,11.8869,12.0331,12.0485,12.0869,12.1562,12.1562,12.2485,12.387,12.4024,12.4793,12.6024,12.7409,12.864,12.9563,6.9842,7.038,7.1218,7.2535,7.2774,7.3193,7.445,7.4629,7.4929,7.5707,7.5946,7.6749,7.8812,0.0,0.0,0.0,0.0,0.0,8.8969,0.0,8.5858,8.579,8.7144,8.755,8.6941,8.8903,8.9985,9.0053,9.0797,9.1541,9.2286,9.2286,9.2624,9.3165,9.2624,9.3165,9.4518,9.533,9.7839,10.1358,10.3274,10.5313,10.7168,10.8403,10.9692,11.0892,11.1206,11.1133,11.0486,0.0,10.8024,10.7496,0.0,10.371,10.3723,10.3248,0.0,0.0,0.0,0.0,0.0,0.0,10.5495,0.0,10.6376,0.0,10.667,10.774,0.0,10.711,10.7183,0.0,0.0,10.5862,10.9826,11.2396,11.0267,11.4084,11.7608,11.9076,11.9884,12.0601,12.1334,12.2289,12.28,12.2588,12.2112,12.1751,12.1621,12.1615,12.1177,12.0177,11.9485,11.8638,11.7715,11.6869,11.6484,11.6484,11.6484,11.7023,11.7792,11.8638,11.9408,12.0331,12.11,12.1485,12.1562,12.1562,12.2177,12.3101,12.3793,12.5486,12.764,12.7794,12.8871,13.041,7.044,7.1038,7.1757,7.2774,7.3253,7.3791,7.4749,7.6185,7.7083,7.7023,7.9274,8.1424,8.2944,0.0,0.0,0.0,0.0,8.7286,0.0,0.0,0.0,8.7685,8.9106,8.9579,8.8835,9.0121,9.1068,9.1474,9.1812,9.2353,9.3098,9.3098,9.303,9.2962,9.3503,9.4777,9.6727,9.7895,10.0976,10.5337,10.6707,10.8612,11.0478,11.0416,11.0971,11.1808,11.1368,11.1221,11.0928,10.8799,10.8431,0.0,0.0,0.0,0.0,10.6985,0.0,0.0,0.0,0.0,0.0,0.0,0.0,0.0,10.7771,0.0,10.7918,0.0,0.0,0.0,0.0,0.0,0.0,0.0,10.8431,10.9973,10.8872,11.1295,11.4231,11.6727,11.7682,11.8633,11.9591,12.0604,12.1037,12.0632,12.1164,12.1408,12.0869,12.1331,12.1023,11.9562,11.9331,11.8407,11.71,11.6715,11.6484,11.6484,11.6484,11.7176,11.8638,11.8869,11.9792,12.11,12.1408,12.1562,12.1562,12.21,12.2793,12.3716,12.5101,12.6332,12.7409,12.8871,12.9871,13.0564,7.1338,0.0,7.2116,7.2774,7.3432,7.421,7.5048,7.6784,7.8254,7.9002,8.1915,8.5104,8.812,8.8776,0.0,0.0,9.2268,9.1228,0.0,0.0,9.0324,0.0,0.0,0.0,0.0,9.1,9.188,9.2421,9.2624,9.303,9.3571,9.3571,9.3368,9.3098,9.4451,9.6383,9.8722,10.0424,10.4127,10.9043,10.9805,11.1261,11.2966,11.2303,11.2248,11.2322,11.1735,11.1368,11.0928,10.8872,10.8799,10.9312,10.8285,10.8505,10.9166,0.0,0.0,0.0,10.9019,0.0,0.0,0.0,0.0,0.0,0.0,0.0,0.0,0.0,10.8652,0.0,0.0,0.0,10.667,10.6596,0.0,10.7991,10.7477,10.8872,11.0928,11.3717,11.5399,11.679,11.8001,11.8734,11.9021,11.8823,11.9408,11.9869,12.0023,12.0562,12.0485,11.9485,11.9013,11.8091,11.6869,11.6401,11.6324,11.6484,11.6715,11.7561,11.91,11.9331,12.0177,12.1562,12.1562,12.1716,12.2024,12.2639,12.3485,12.4639,12.6409,12.7178,12.7563,12.9717,13.0564,13.0871,7.2714,7.2355,7.2116,7.2774,7.3432,7.433,7.5647,7.5946,7.7542,8.1863,8.2579,8.5831,9.4222,9.3826,0.0,0.0,0.0,9.6217,9.7631,0.0,9.1338,0.0,0.0,9.0594,0.0,0.0,9.2421,9.2421,9.3165,9.3571,9.3571,9.3571,0.0,0.0,9.5398,9.736,10.0323,10.2454,10.6656,11.1516,11.2206,11.3443,11.4598,11.3819,11.313,11.2396,11.2396,11.1882,11.1074,11.0193,11.0487,11.0781,10.9312,10.9312,10.9679,10.8064,0.0,10.8799,0.0,0.0,0.0,10.9973,0.0,0.0,0.0,0.0,10.9973,0.0,0.0,0.0,0.0,0.0,0.0,0.0,10.5422,0.0,0.0,10.5495,10.7183,10.8799,11.2029,11.4729,11.6384,11.662,11.7,11.7792,11.6407,11.6561,11.9023,11.9177,11.9485,12.0177,11.856,11.7691,11.7792,11.6084,11.5728,11.6484,11.7407,11.8177,11.91,11.9869,12.0793,12.1562,12.1562,12.21,12.287,12.287,12.387,12.5486,12.7178,12.8409,12.9179,13.0179,13.1025,13.1718,0.0,7.3073,7.3313,7.3492,7.4091,7.5108,7.6904,8.0271,8.3818,8.702,9.0787,9.5375,10.1285,10.2588,10.4203,0.0,0.0,10.2231,10.169,9.9119,0.0,0.0,0.0,9.4518,0.0,0.0,0.0,0.0,9.418,9.4315,9.4315,9.4315,9.4992,0.0,9.6954,9.9465,10.3427,10.6249,10.9474,11.3054,11.4339,11.5767,11.7021,11.5112,11.3864,11.3057,11.2616,11.2176,11.2029,11.1662,11.1368,11.1221,11.1221,11.1001,11.0707,11.012,11.0193,11.0487,0.0,0.0,11.1588,11.1588,0.0,0.0,0.0,0.0,0.0,0.0,0.0,0.0,0.0,0.0,0.0,0.0,0.0,0.0,0.0,10.6009,10.7036,10.8726,11.037,11.2112,11.3792,11.35,11.3791,11.5176,11.4176,11.4226,11.56,11.7309,11.7753,11.6911,11.6833,11.6821,11.6873,11.5817,11.5931,11.7407,11.7715,11.8484,11.9869,12.0177,12.11,12.2485,12.2485,12.287,12.3793,12.487,12.5717,12.6486,12.8717,12.9794,13.0179,13.1025,13.1487,13.1718,7.433,7.4629,7.4689,7.4031,7.5603,7.7532,7.9293,8.465,8.9663,9.2765,9.7525,10.2557,10.7717,10.9047,11.008,0.0,10.9674,10.7373,10.4599,10.3517,0.0,9.851,9.8713,0.0,0.0,0.0,0.0,0.0,0.0,9.5765,9.6228,9.5434,9.5872,0.0,9.8375,10.1031,10.495,10.8871,11.2332,11.5136,11.6965,11.7975,11.8195,11.6727,11.5406,11.4305,11.3497,11.3057,11.2763,11.2763,11.2469,11.2102,11.2689,11.2322,11.1588,11.1295,11.1441,11.1735,11.1882,11.2396,0.0,11.2763,11.2763,0.0,11.1808,0.0,11.2616,0.0,0.0,0.0,0.0,0.0,0.0,0.0,0.0,0.0,0.0,10.6376,10.6866,10.8336,10.9528,11.0598,11.1734,11.189,11.1781,11.137,11.1423,11.1518,11.1767,11.4114,11.524,11.4695,11.5375,11.6012,11.6412,11.5876,11.6275,11.7792,11.8407,11.9331,12.0331,12.0869,12.1793,12.287,12.3178,12.4024,12.5101,12.6178,12.7101,12.7794,12.9717,13.0487,13.0564,13.141,13.1718,13.1718,7.6963,7.6904,7.6425,7.4629,7.7839,8.1217,8.2641,8.8784,9.464,9.8708,10.2557,10.7251,11.3319,11.3327,11.3801,11.5898,11.4816,11.1839,10.6832,10.7712,0.0,0.0,10.1758,10.1825,9.9593,0.0,0.0,0.0,0.0,9.7729,9.9096,9.6988,9.6751,9.8172,9.966,10.2028,10.5133,11.0448,11.4608,11.7596,12.0018,11.9884,11.8489,11.8489,11.7535,11.6066,11.5185,11.4378,11.3717,11.3717,11.3644,11.3644,11.3644,11.313,11.2396,11.1515,11.1808,11.2176,11.1515,11.2396,11.357,11.357,11.357,0.0,0.0,0.0,11.3424,0.0,0.0,0.0,0.0,0.0,0.0,0.0,0.0,0.0,10.6376,10.6376,10.6718,10.7404,10.9009,11.0006,11.0107,11.1358,11.0733,10.6757,10.7926,10.8392,10.7735,10.9981,11.2105,11.3731,11.4534,11.539,11.6431,11.6383,11.6821,11.7869,11.9562,12.0408,12.0485,12.2177,12.3024,12.3101,12.387,12.5178,12.6794,12.6871,12.7794,12.941,13.0179,13.0564,13.0718,13.141,13.1718,13.1718,7.6963,7.8041,7.9178,7.9656,8.0575,8.2565,8.6483,9.2371,9.8497,10.4394,10.9675,11.4312,11.8199,11.8875,11.9281,11.989,11.9078,0.0,0.0,0.0,0.0,11.0012,10.8321,10.69,10.575,10.3585,0.0,10.2283,0.0,9.9299,10.0689,9.9034,9.8781,9.9728,10.1216,10.3314,10.5747,11.0127,11.4752,11.9217,12.0422,12.0618,12.0178,11.9517,11.937,11.9297,11.658,11.5553,11.5259,11.4672,11.4525,11.4525,11.4525,11.4378,11.3937,11.2469,11.2176,11.2396,11.2102,11.2763,11.357,11.357,11.4011,11.4305,0.0,0.0,0.0,0.0,0.0,0.0,0.0,0.0,0.0,0.0,0.0,0.0,0.0,10.6376,10.6502,10.6718,10.6549,10.7248,10.9143,10.7444,10.6288,10.6493,10.5677,10.5466,10.5816,10.93,11.1504,11.1897,11.3229,11.5031,11.7194,11.6616,11.7383,11.9715,12.0793,12.1562,12.2331,12.3332,12.4486,12.5717,12.587,12.7025,12.8563,12.9333,12.9794,13.0179,13.1102,13.141,13.141,13.1564,13.1718,13.1718,7.8783,8.0614,8.2828,8.4145,8.6331,8.9035,9.23,9.754,10.3124,10.84,11.3627,11.7522,11.9146,12.1379,12.3002,12.3341,12.2664,12.1582,12.0296,0.0,0.0,11.468,11.2989,11.1298,10.9538,10.6561,0.0,10.4501,0.0,10.0527,10.2214,10.0125,9.966,10.0811,10.1622,10.3111,10.5203,11.0849,11.5717,11.9958,12.1448,12.194,0.0,12.1426,12.1499,12.1719,11.9517,11.8195,11.7461,11.7094,11.6727,11.6287,11.5993,11.5846,11.5479,11.3937,11.3424,11.3424,11.2983,11.3277,11.357,11.357,11.3864,11.4158,11.3717,11.4011,11.4231,0.0,11.3791,11.3497,0.0,0.0,0.0,0.0,0.0,0.0,0.0,0.0,10.733,10.6963,10.6472,10.6731,10.7701,10.5537,10.4317,10.4762,10.4546,10.4176,10.3612,10.7793,11.017,11.0237,11.3481,11.6045,11.7537,11.8579,11.972,12.0869,12.1793,12.2562,12.3485,12.4332,12.5409,12.6717,12.7101,12.8179,12.9794,13.0333,13.0718,13.1102,13.1487,13.1718,13.1718,13.1718,13.1718,13.1718,8.2193,8.4485,8.7133,8.8216,9.3444,9.8044,9.9732,10.3952,10.8384,11.2245,11.6643,11.9417,11.9417,12.2935,12.5573,12.6385,12.5709,12.4423,12.2529,12.2664,12.0973,11.7048,11.6507,11.5096,11.2461,10.9271,10.7266,0.0,0.0,10.1927,10.3568,10.08,10.0269,10.1487,10.1622,10.2563,10.4711,11.1959,11.6804,11.9669,12.2326,12.3334,12.3334,12.3408,12.3481,12.3408,12.282,12.1426,11.9884,11.9811,11.9223,11.8416,11.7682,11.7388,11.6947,11.5406,11.4818,11.4525,11.3717,11.3424,11.3424,11.3424,11.3497,11.357,11.3717,11.3791,11.4011,11.4818,11.4305,11.3791,0.0,0.0,0.0,0.0,0.0,0.0,0.0,0.0,0.0,10.7697,10.7458,0.0,10.6785,10.5091,10.3721,10.2867,10.4169,10.3983,10.1831,10.6082,10.8738,10.9013,11.4194,11.7305,11.801,12.1019,12.2436,12.21,12.287,12.3639,12.4332,12.5178,12.6024,12.6871,12.7717,12.9025,13.0487,13.0564,13.1102,13.1718,13.1718,13.1718,13.1718,13.1718,13.1718,13.1718,8.7285,8.9912,9.2132,9.1901,9.885,10.5816,10.9685,11.2223,11.5079,11.9131,12.3611,12.6318,12.6318,12.7603,12.8686,12.9498,12.828,12.7603,12.7806,12.5573,0.0,12.2326,11.989,11.8391,11.8024,11.3679,11.1736,0.0,0.0,10.4983,10.5223,10.2864,10.2028,10.2299,10.2908,10.4699,10.7657,11.2928,11.6105,11.8098,12.1764,12.3334,12.3408,12.3995,12.4289,12.4362,12.4876,12.3555,12.1572,12.0912,12.0104,11.937,11.9223,11.8269,11.7021,11.6066,11.4818,11.357,11.2763,11.2616,11.2616,11.2616,11.3057,11.3791,11.4378,11.4598,11.4818,11.5626,11.5112,11.4598,11.4598,0.0,0.0,0.0,0.0,0.0,0.0,0.0,0.0,0.0,10.7047,10.7057,10.8297,10.5719,10.385,10.3724,10.4018,10.357,10.2485,10.5862,10.8455,10.9782,11.2842,11.6514,12.0837,12.1368,12.2742,12.4716,12.487,12.5024,12.5178,12.6101,12.6871,12.7717,12.864,12.9563,13.0564,13.1179,13.1564,13.1718,13.1718,13.1718,13.1718,13.1718,13.1718,13.1718,9.3436,9.5539,9.7562,9.8045,10.4832,11.1519,11.5706,11.9849,12.241,12.2046,12.4491,12.6318,12.6318,12.8686,13.0648,13.1392,13.0106,12.9362,12.9701,12.7332,12.5235,12.3679,12.236,12.1051,11.9401,11.6081,11.3799,11.2643,0.0,0.0,10.4372,10.353,10.2785,10.2502,10.3189,10.5239,10.8173,11.2632,11.5603,11.7664,12.2106,12.4436,12.5243,12.561,12.5684,12.583,12.6197,12.5317,12.3775,12.2967,12.1866,12.0691,11.9884,11.8783,11.7535,11.592,11.4525,11.3497,11.3057,11.2396,11.1882,11.2322,11.2396,11.2689,11.3864,11.4158,11.4598,11.6287,11.6287,11.592,11.5479,11.3424,0.0,0.0,0.0,0.0,0.0,0.0,0.0,0.0,0.0,0.0,10.8107,10.6376,10.5201,10.5201,10.5201,10.4467,10.2779,10.6229,10.8611,10.9528,11.4009,11.8127,12.1503,12.366,12.5492,12.6717,12.6717,12.6717,12.6717,12.7101,12.7794,12.864,12.9025,12.9871,13.1179,13.1487,13.1718,13.1718,13.1718,13.1718,13.1718,13.1718,13.1718,13.1718,10.0305,10.2031,10.3797,10.5212,11.1095,11.6711,12.0207,12.5769,12.828,12.4626,12.5438,12.6385,12.6385,12.9701,13.2136,13.2677,13.1392,13.0512,13.0512,12.828,12.6115,12.422,12.4,12.2865,12.0494,11.8295,11.568,0.0,0.0,0.0,10.3591,10.3706,10.3427,10.267,10.3917,10.5973,10.8894,11.269,11.6033,11.9003,12.3084,12.5684,12.7225,12.7225,12.7225,12.7078,12.7005,12.6491,12.5757,12.5023,12.3701,12.2086,12.0618,11.9297,11.7975,11.592,11.4598,11.3864,11.3864,11.2689,11.1588,11.2176,11.1882,11.1808,11.3277,11.3864,11.4672,11.6801,11.7314,11.7168,11.6213,11.4378,0.0,0.0,0.0,0.0,0.0,0.0,0.0,0.0,0.0,0.0,10.7667,10.7321,10.6921,10.6198,10.6009,10.4981,10.3072,10.6406,10.8493,10.889,11.5349,11.9799,12.1991,12.5774,12.7871,12.8409,12.8102,12.7871,12.7871,12.7717,12.8102,12.8871,12.9102,13.0179,13.1718,13.1718,13.1718,13.1718,13.1718,13.1718,13.1718,13.1718,13.1718,13.1718,10.8044,10.9992,11.1713,11.2778,11.7817,12.2297,12.3985,12.8199,13.0783,12.9701,13.0851,13.1798,13.1798,13.2813,13.3489,13.3625,13.2204,13.1324,13.1324,12.8618,12.6588,12.5709,12.4618,12.3834,12.3669,12.148,11.923,0.0,0.0,10.9402,10.4436,10.4518,10.4105,10.3364,10.631,10.8913,11.1291,11.4598,11.8701,12.2894,12.4826,12.6565,12.7959,12.7959,12.7959,12.7886,12.7225,12.6932,12.6711,12.5904,12.4509,12.3041,12.2086,12.0324,11.8195,11.7314,11.592,11.4672,11.4672,11.3497,11.2322,11.2396,11.2322,11.2469,11.335,11.4672,11.5993,11.7021,11.7828,11.7828,11.6287,11.5773,11.4892,0.0,0.0,0.0,0.0,0.0,11.0634,10.9019,0.0,0.0,10.7825,10.8903,10.8395,10.539,10.4541,10.4027,10.3806,10.5575,10.7392,10.8936,11.4769,11.9829,12.3774,12.5769,12.8025,13.0179,12.8717,12.7871,12.7871,12.7101,12.7332,12.8102,12.8871,13.0179,13.1718,13.1718,13.1718,13.1718,13.1718,13.1718,13.1718,13.1718,13.1718,13.1718,11.5296,11.6282,11.775,11.9506,12.2012,12.4897,12.8212,13.058,13.2001,13.1663,13.288,13.3692,13.3286,13.3895,13.4166,13.3692,13.2339,13.1189,13.0783,12.9406,12.8046,12.6879,12.7935,12.7923,12.6465,12.5135,12.2495,0.0,0.0,0.0,0.0,10.7469,10.7773,10.8965,11.0195,11.2814,11.6527,11.8789,12.1425,12.4215,12.6271,12.7813,12.884,12.884,12.8473,12.8106,12.7666,12.7005,12.6124,12.5757,12.4582,12.3188,12.238,12.0398,11.8122,11.6874,11.5699,11.4818,11.4818,11.4011,11.3057,11.3057,11.3057,11.3203,11.3497,11.4818,11.636,11.7682,11.8195,11.8195,11.7608,11.6287,11.4965,11.4011,0.0,0.0,0.0,0.0,0.0,0.0,0.0,10.8496,10.7006,10.7897,10.798,10.6712,10.6302,10.59,10.5539,10.6512,10.8374,11.1197,11.6031,12.032,12.4101,12.7332,12.9717,13.1179,13.0487,12.9871,12.941,12.9102,12.9179,12.9487,13.0333,13.1102,13.1718,13.1718,13.1718,13.1718,13.1718,13.1718,13.1718,13.1718,13.1718,13.159,12.1582,12.2129,12.3276,12.5515,12.6292,12.7806,13.1189,13.2204,13.261,13.2813,13.3963,13.4504,13.3828,13.4166,13.4301,13.3692,13.2475,13.1572,13.1475,13.0696,12.9945,12.9272,13.0901,13.0693,12.8272,12.7822,12.5336,12.0568,11.874,0.0,11.1998,11.1254,11.1782,11.371,11.4912,11.745,12.1132,12.282,12.4582,12.6418,12.7886,12.8914,12.9721,12.9721,12.9207,12.84,12.818,12.7225,12.5977,12.5757,12.4803,12.3481,12.238,12.0618,11.8489,11.7094,11.5993,11.5185,11.5406,11.4672,11.4011,11.4011,11.4011,11.4011,11.4011,11.5406,11.7094,11.8489,11.8563,11.8342,11.8122,11.6727,11.5406,11.4892,0.0,0.0,0.0,0.0,0.0,0.0,10.8505,10.8064,10.6523,10.7552,10.8127,10.7726,10.8083,10.777,10.651,10.747,10.9486,11.2709,11.7585,12.1501,12.4486,12.8486,13.0871,13.1718,13.1487,13.1025,13.0487,13.0487,13.0487,13.0487,13.141,13.1718,13.1718,13.1718,13.1718,13.1718,13.1718,13.1718,13.1718,13.1718,13.1512,13.1222,12.6521,12.7535,12.8753,13.0836,13.1324,13.1595,13.2407,13.2475,13.2813,13.3625,13.4301,13.4504,13.3828,13.3692,13.3692,13.3692,13.3016,13.2974,13.4069,13.2699,13.2412,13.347,13.2965,13.144,12.8795,12.909,12.716,12.3024,0.0,0.0,11.6271,11.5403,11.5496,11.6415,12.0302,12.2894,12.4509,12.6197,12.818,13.0382,12.9575,12.9795,13.0529,13.0529,13.0015,12.9207,12.84,12.7592,12.6785,12.5977,12.517,12.4215,12.26,12.0912,11.937,11.8636,11.7168,11.6213,11.7021,11.5993,11.4818,11.4818,11.4818,11.4818,11.4818,11.658,11.8636,11.937,11.9003,11.8195,11.7388,11.7241,11.6727,11.5112,0.0,0.0,0.0,0.0,0.0,0.0,11.0707,10.99,10.667,10.8612,10.9267,10.7777,10.9152,10.9137,10.6546,10.7975,11.0219,11.2709,11.9327,12.3716,12.5409,12.8794,13.0871,13.1718,13.0871,13.0487,13.0487,13.0487,13.0487,13.0487,13.141,13.1718,13.1718,13.1718,13.1718,13.1718,13.1718,13.1718,13.1718,13.1718,13.1111,13.0399,12.9092,13.0174,13.1324,13.2001,13.261,13.3016,13.3286,13.3286,13.3422,13.3692,13.3895,13.3963,13.3692,13.4098,13.4234,13.3692,13.4212,13.4571,13.5061,13.5952,13.673,13.7101,13.6986,13.626,13.4998,13.4006,13.2006,12.8893,12.7608,12.497,12.1106,12.191,12.2495,12.2787,12.5093,12.7372,12.9428,13.0015,13.0602,13.1263,13.0969,13.0823,13.0529,13.0529,12.9721,12.84,12.818,12.7225,12.5977,12.5757,12.5463,12.5023,12.3408,12.1793,12.0398,12.0178,11.893,11.7828,11.8636,11.8122,11.7021,11.592,11.5993,11.614,11.5112,11.6213,11.7828,11.8636,11.8122,11.7535,11.7241,11.6801,11.6213,11.5699,11.4525,0.0,0.0,0.0,0.0,0.0,10.9386,10.8872,10.7404,10.9393,11.0535,10.9417,11.0914,11.1771,11.1584,11.1518,11.3244,11.6973,12.0929,12.4024,12.6255,12.9563,13.141,13.1718,13.141,13.1333,13.1333,13.1333,13.1333,13.1333,13.1564,13.1718,13.1718,13.1718,13.1718,13.1718,13.1718,13.1718,13.1718,13.1718,13.1512,13.1194,13.1054,13.2069,13.3016,13.3016,13.3422,13.3692,13.3692,13.3692,13.3692,13.3692,13.3895,13.4031,13.3692,13.4369,13.4504,13.3828,13.506,13.5992,13.6398,13.8388,13.9761,14.0084,14.0004,13.928,13.8183,13.7228,13.569,13.3382,13.2173,13.0015,12.6932,12.7592,12.7959,12.7959,12.9281,13.0896,13.2658,13.1923,13.1631,13.1631,13.1339,13.0683,13.0007,13.0687,13.0015,12.862,12.862,12.7666,12.6565,12.6271,12.6197,12.583,12.3922,12.26,12.1719,12.1426,12.0178,11.9076,12.0178,11.9957,11.9003,11.7682,11.7682,11.7828,11.6507,11.6727,11.7314,11.7828,11.7535,11.7094,11.6801,11.6287,11.5993,11.5993,11.4598,11.357,11.357,0.0,0.0,0.0,0.0,10.9386,10.8578,11.0465,11.1618,11.1127,11.2781,11.4389,11.5396,11.46,11.5778,11.9385,12.2716,12.5409,12.7563,13.0333,13.1718,13.1718,13.1718,13.1718,13.1718,13.1718,13.1718,13.1718,13.1718,13.1872,13.2179,13.2179,13.2179,13.2179,13.2179,13.2025,13.1718,13.1718,13.1486,13.1062,13.2407,13.3083,13.3692,13.3692,13.3692,13.3692,13.3692,13.3692,13.3692,13.3692,13.4301,13.4504,13.3828,13.4369,13.4572,13.3828,13.5461,13.7005,13.7999,13.9995,14.1581,14.2487,14.1925,14.0839,13.911,13.9247,13.837,13.6734,13.6106,13.5007,13.3319,13.2584,13.2071,13.1997,13.2878,13.3612,13.4166,13.2558,13.1903,13.183,13.0977,13.0182,12.9633,13.1173,13.0823,12.9428,12.9428,12.8914,12.7959,12.7225,12.6932,12.6491,12.4068,12.3334,12.3188,12.238,12.0985,12.0104,12.1793,12.1719,12.0838,11.9884,11.959,11.9297,11.8563,11.7828,11.7314,11.7314,11.7314,11.7094,11.6287,11.6066,11.6066,11.5993,11.4598,11.357,11.3497,0.0,0.0,11.1221,11.1221,11.1001,11.0193,11.1609,11.2702,11.2876,11.4979,11.6713,11.8038,11.7411,11.8074,12.0462,12.4716,12.7717,12.9333,13.1025,13.1795,13.1718,13.1718,13.1718,13.1718,13.1718,13.1718,13.1795,13.1795,13.2256,13.3103,13.3026,13.3026,13.3026,13.2872,13.241,13.1718,13.1718,13.1062,13.0384,13.2407,13.3083,13.3692,13.3692,13.3692,13.3692,13.3692,13.3692,13.3692,13.3692,13.4301,13.4504,13.3828,13.491,13.5316,13.4572,13.6285,13.7365,13.7764,14.0893,14.2608,14.2327,14.2886,14.2985,14.2564,14.2031,14.1518,14.1101,14.0418,13.9118,13.7577,13.743,13.6329,13.4567,13.5961,13.6402,13.6035,13.6165,13.5981,13.5323,13.4463,13.3659,13.2909,13.2699,13.163,13.0309,13.0896,12.9795,12.8106,12.7886,12.7372,12.6491,12.4068,12.3701,12.4068,12.3261,12.2307,12.1866,12.3481,12.3334,12.238,12.0985,11.959,11.8636,11.8416,11.8269,11.8122,11.8122,11.8122,11.8122,11.7902,11.7314,11.6727,11.6066,11.4598,11.335,11.2763,11.1808,11.1221,11.1221,11.1735,11.2029,11.1882,11.2835,11.4226,11.6101,11.6286,11.7519,12.0273,12.1514,12.2485,12.3231,12.6717,12.9102,13.0179,13.1872,13.241,13.1718,13.1718,13.1718,13.1718,13.1718,13.2102,13.2718,13.2718,13.318,13.3872,13.3256,13.3026,13.2872,13.2256,13.1872,13.1718,13.1718,13.1461,13.1433,13.288,13.3422,13.3692,13.3692,13.3692,13.3692,13.3692,13.3692,13.3692,13.3692,13.4301,13.4572,13.4234,13.5181,13.5925,13.579,13.7178,13.85,13.935,14.217,14.4101,14.4629,14.5111,14.5285,14.4918,14.4477,14.411,14.367,14.2936,14.1908,14.0586,13.9926,13.8678,13.7136,13.7577,13.7577,13.7082,13.6707,13.6275,13.5911,13.5401,13.4526,13.3489,13.3858,13.3025,13.1703,13.2071,13.119,12.9575,12.8914,12.8106,12.7005,12.4582,12.4068,12.4362,12.3995,12.3481,12.3481,12.4656,12.4729,12.4068,12.2894,12.0985,11.959,12.0031,11.9811,11.9517,11.9517,11.9811,11.9884,11.9076,11.8269,11.7388,11.6213,11.4598,11.3277,11.2469,11.1735,11.1515,11.2176,11.2983,11.3791,11.4525,11.5695,11.6983,11.8465,11.8918,12.009,12.2512,12.4503,12.5516,12.5308,12.8563,13.0564,13.1025,13.2025,13.2179,13.1718,13.1718,13.1718,13.1718,13.1718,13.2179,13.3026,13.2564,13.3103,13.418,13.341,13.3026,13.3026,13.2487,13.2102,13.1718,13.1718,13.1718,13.1718,13.3489,13.3692,13.3692,13.3692,13.3692,13.3692,13.3692,13.3692,13.3692,13.3692,13.4437,13.491,13.4775,13.5927,13.6911,13.7387,13.8764,14.0163,14.1455,14.344,14.5434,14.6927,14.7223,14.712,14.6386,14.6313,14.5799,14.4991,14.4331,14.3596,14.2789,14.1394,14.0219,13.9192,13.8604,13.8164,13.7889,13.6495,13.5903,13.5903,13.5685,13.4816,13.3572,13.4884,13.442,13.2878,13.2878,13.2291,13.1263,12.9942,12.8914,12.7886,12.539,12.4803,12.4803,12.4582,12.4582,12.4803,12.5463,12.561,12.539,12.4656,12.2894,12.1426,12.2086,12.1793,12.1279,12.1279,12.1793,12.1793,12.0251,11.9223,11.7975,11.6287,11.4598,11.3277,11.2322,0.0,11.2102,11.357,11.4672,11.592,11.7388,11.893,12.0067,12.072,12.1791,12.3201,12.4674,12.6845,12.7687,12.7308,13.0256,13.1872,13.1872,13.1795,13.1718,13.1718,13.1718,13.1718,13.1718,13.1795,13.241,13.318,13.241,13.3026,13.4411,13.341,13.3026,13.3026,13.2872,13.241,13.1718,13.1718,13.1718,13.1718,13.3489,13.3692,13.3692,13.3692,13.3692,13.3692,13.3692,13.3692,13.3692,13.3692,13.491,13.5519,13.491,13.7947,13.9985,13.9501,14.2442,14.2975,14.0403,14.346,14.5425,14.4961,14.6626,14.7341,14.7194,14.6533,14.5799,14.4991,14.4918,14.4404,14.3596,14.3376,14.2055,13.9999,14.0586,14.0073,13.8825,13.9189,13.937,13.9297,13.8711,13.7832,13.6935,13.578,13.442,13.2878,13.2878,13.1924,13.0602,13.0382,12.9795,12.8694,12.6271,12.5977,12.6271,12.4876,12.5023,12.5463,12.5684,12.517,12.4656,12.4509,12.3701,12.2967,12.3114,12.3041,12.2894,12.2894,12.3041,12.282,12.1866,12.0471,11.8709,11.636,11.4598,11.3057,11.1588,11.2396,11.357,11.4525,11.6507,11.8195,11.9076,12.0104,12.1597,12.3854,12.3588,12.4816,12.8002,12.8612,12.9064,12.9923,13.1795,13.2795,13.2795,13.2102,13.1718,13.1718,13.1718,13.1718,13.1718,13.2487,13.3256,13.4103,13.4026,13.4411,13.518,13.3564,13.3026,13.2872,13.2179,13.1795,13.1718,13.1718,13.1718,13.1718,13.3625,13.3692,13.3692,13.3692,13.3692,13.3692,13.3692,13.3692,13.3692,13.3692,13.5592,13.6878,13.6946,14.0385,14.2671,14.2671,14.5237,14.6095,14.438,14.5936,14.7342,14.8091,14.8524,14.8515,14.8075,14.69,14.6019,14.5579,14.5212,14.4771,14.4404,14.3964,14.3156,14.2055,14.1614,14.1247,14.088,14.088,14.11,14.1394,14.0586,13.9632,13.8311,13.6696,13.5007,13.3392,13.2584,13.1777,13.0969,13.0088,12.9575,12.8987,12.7519,12.7225,12.7299,12.6124,12.5684,12.5684,12.5684,12.539,12.5096,12.5096,12.4509,12.4068,12.4509,12.4289,12.4068,12.4509,12.4582,12.4289,12.3481,12.1719,11.9884,11.8783,11.5773,11.357,11.3791,11.4084,11.4892,11.6507,11.893,12.0912,12.2086,12.3516,12.4796,12.6116,12.6364,12.737,12.9619,12.978,13.0174,13.1102,13.1872,13.2487,13.3026,13.2102,13.1872,13.241,13.1872,13.2179,13.3103,13.3026,13.3487,13.4334,13.3795,13.3795,13.4103,13.2795,13.2256,13.2256,13.1872,13.1718,13.1718,13.1718,13.1718,13.1718,13.3692,13.3692,13.3692,13.3692,13.3692,13.3692,13.3692,13.3692,13.376,13.3895,13.6285,13.8258,13.8942,14.2506,14.4955,14.5524,14.756,14.8777,14.8777,14.8777,14.9421,15.0804,15.0204,14.947,14.8662,14.7194,14.6386,14.6166,14.5432,14.4991,14.4991,14.4404,14.389,14.3523,14.2202,14.1908,14.2275,14.1688,14.1835,14.2275,14.1614,14.0293,13.8531,13.6916,13.5301,13.3612,13.1997,13.1483,13.1483,13.0309,13.0015,13.0015,12.8987,12.8694,12.8473,12.7519,12.6711,12.6197,12.5757,12.5684,12.5684,12.5684,12.539,12.517,12.583,12.561,12.5463,12.6124,12.6124,12.5684,12.4876,12.2967,12.1205,12.0398,11.7168,11.4965,11.592,11.5993,11.6727,11.9003,12.1279,12.3188,12.4582,12.6588,12.7808,12.8023,12.9067,13.0182,13.1,13.0871,13.1102,13.1718,13.1718,13.2025,13.2718,13.2025,13.2025,13.2718,13.2179,13.2718,13.4026,13.3718,13.3795,13.4334,13.3564,13.318,13.2872,13.2102,13.1718,13.1718,13.1718,13.1718,13.1718,13.1718,13.1564,13.141,13.3692,13.3692,13.3692,13.3692,13.3692,13.3692,13.3692,13.3692,13.3895,13.4572,13.7109,13.8942,13.9704,14.3886,14.6682,14.6754,14.932,15.0904,15.0904,15.0904,15.0598,14.9983,14.991,14.947,14.8662,14.7781,14.69,14.6166,14.5432,14.4991,14.4991,14.4918,14.411,14.2715,14.2569,14.2128,14.1541,14.1394,14.1394,14.1541,14.1394,13.9999,13.7723,13.6108,13.442,13.2805,13.119,13.1116,13.1703,13.1557,13.1997,13.2438,13.0823,13.0309,13.0015,12.8473,12.7959,12.7592,12.6051,12.5684,12.5684,12.5684,12.6197,12.6711,12.6785,12.7299,12.7886,12.7886,12.7299,12.6565,12.5757,12.4215,12.2086,11.9076,11.8269,11.7608,11.6213,11.7902,11.9884,12.1572,12.3261,12.4656,12.5463,12.7996,12.9646,12.9833,13.138,13.2523,13.2769,13.2102,13.1564,13.1718,13.1718,13.1718,13.1795,13.1718,13.1718,13.1795,13.2487,13.3026,13.3103,13.4564,13.4872,13.4334,13.418,13.3718,13.2872,13.2102,13.1718,13.1718,13.1718,13.1718,13.1718,13.1718,13.1179,13.0564,13.3692,13.3692,13.3692,13.3692,13.3692,13.3692,13.3692,13.3692,13.4195,13.5724,13.874,14.124,14.2679,14.6791,14.9727,15.0165,15.1161,15.1819,15.1819,15.1378,15.0718,14.991,14.991,14.947,14.8662,14.7781,14.7047,14.6166,14.5432,14.4991,14.4991,14.4991,14.4698,14.4037,14.3009,14.3009,14.3523,14.1981,14.1981,14.2789,14.1835,14.0293,13.8384,13.6769,13.5081,13.3392,13.1777,13.1777,13.2364,13.1924,13.2217,13.2805,13.2217,13.163,13.0896,12.9281,12.8106,12.7299,12.7225,12.6785,12.6418,12.6418,12.6711,12.7005,12.7519,12.7886,12.8106,12.8106,12.7519,12.6785,12.6491,12.4729,12.3188,12.2967,12.1279,12.0324,12.1132,12.1572,12.2307,12.3481,12.5023,12.6397,12.7283,12.9411,13.0924,13.1649,13.2416,13.2888,13.3026,13.2179,13.1718,13.1718,13.1718,13.1718,13.1718,13.1718,13.2025,13.2487,13.2256,13.2795,13.3795,13.3872,13.3795,13.3487,13.3487,13.3026,13.2179,13.1795,13.1718,13.1718,13.1718,13.1718,13.1718,13.1718,13.1179,13.0487,13.3692,13.3692,13.3692,13.3692,13.3692,13.3692,13.3692,13.421,13.5126,13.656,13.9968,14.2946,14.4802,14.8206,15.0718,15.1452,15.1525,15.1525,15.1525,15.0791,15.0057,14.947,14.9249,14.8882,14.8295,14.7487,14.6827,14.6166,14.5432,14.4991,14.4991,14.4698,14.4477,14.4184,14.2789,14.2789,14.3817,14.2128,14.1981,14.3009,14.1835,14.044,13.8825,13.7209,13.5668,13.4273,13.2658,13.2584,13.3172,13.2584,13.3025,13.3612,13.3392,13.2584,13.141,12.9795,12.8694,12.8033,12.8106,12.7886,12.7592,12.7299,12.7299,12.7519,12.8326,12.8914,12.9207,12.8914,12.84,12.8033,12.7739,12.6124,12.5023,12.561,12.4068,12.3261,12.4656,12.4582,12.4729,12.5537,12.6565,12.7698,12.8856,13.0487,13.2021,13.2988,13.3314,13.318,13.2564,13.2025,13.1718,13.1718,13.1718,13.1718,13.1718,13.1718,13.2025,13.2564,13.2256,13.2718,13.3872,13.3564,13.3256,13.3026,13.3026,13.2487,13.1718,13.1718,13.1718,13.1718,13.1718,13.1718,13.1718,13.141,13.0564,12.964,13.3692,13.3692,13.3692,13.3692,13.3692,13.3692,13.3692,13.5312,13.6793,13.7486,14.0973,14.3995,14.5511,14.7476,14.9029,14.9763,14.991,14.991,14.991,14.9102,14.8662,14.8662,14.7928,14.7414,14.7414,14.6606,14.6166,14.6166,14.5432,14.4991,14.4991,14.4184,14.3376,14.2569,14.1835,14.1394,14.1394,14.1394,14.1394,14.1394,14.1394,14.044,13.8825,13.7209,13.6108,13.5227,13.3539,13.3392,13.4126,13.4126,13.4713,13.5227,13.442,13.3025,13.141,12.9795,12.9942,13.0088,12.8473,12.8694,12.9134,12.8326,12.8106,12.8326,12.9134,13.0529,13.1483,13.0676,13.0529,13.0235,12.9428,12.862,12.7592,12.5977,12.6418,12.6638,12.5757,12.6418,12.7225,12.7959,12.8106,12.8509,12.9601,13.1388,13.289,13.3935,13.4158,13.3487,13.1795,13.1718,13.1718,13.1718,13.1718,13.1718,13.1718,13.1718,13.1718,13.1718,13.2564,13.3026,13.3026,13.3872,13.3795,13.3026,13.3026,13.2487,13.1718,13.1718,13.1718,13.1718,13.1718,13.1718,13.1564,13.0794,12.941,12.7794,13.3692,13.3692,13.3692,13.3692,13.3692,13.4059,13.5473,13.6127,13.751,14.0399,14.2258,14.4148,14.592,14.7559,14.9029,14.9763,15.0424,15.0718,15.0718,14.8882,14.7781,14.7781,14.7487,14.712,14.6606,14.6313,14.5872,14.5432,14.5138,14.4991,14.4991,14.4771,14.4184,14.3376,14.3229,14.2789,14.2202,14.2202,14.2202,14.2202,14.2202,14.1321,13.9706,13.8678,13.7136,13.5301,13.4126,13.3906,13.4126,13.4126,13.4713,13.5227,13.442,13.2599,13.0767,13.0874,12.955,12.8223,12.9389,12.9134,12.8473,12.8914,12.8914,12.9207,13.0015,13.0529,13.0823,13.0529,13.0088,12.9575,12.9281,12.862,12.7886,12.7519,12.8473,12.9281,12.9061,12.9281,12.9784,13.0786,13.0361,13.0775,13.2473,13.3701,13.4818,13.5903,13.4921,13.3795,13.2718,13.2025,13.1718,13.1718,13.1718,13.1718,13.1718,13.1718,13.1718,13.1718,13.2025,13.2102,13.2102,13.241,13.2333,13.2102,13.2102,13.1872,13.1718,13.1718,13.1718,13.1718,13.1718,13.1718,13.1718,13.141,12.9871,12.7871,13.3219,13.3489,13.3692,13.3692,13.4308,13.522,13.6283,13.7815,13.9556,14.1932,14.3269,14.4583,14.5976,14.712,14.8001,14.8809,14.969,15.0277,15.0571,14.8882,14.7781,14.7414,14.712,14.6533,14.5725,14.5725,14.5505,14.4991,14.4991,14.4991,14.4991,14.4331,14.3817,14.3303,14.3009,14.2569,14.2128,14.2495,14.2569,14.2569,14.2569,14.1835,14.0586,13.9412,13.787,13.6182,13.5007,13.4567,13.4567,13.4567,13.5007,13.512,13.3622,13.1759,13.0326,12.9821,12.8491,12.7566,12.9097,12.9304,12.9207,12.9721,12.9501,12.9501,13.0309,13.0676,13.0896,13.0602,13.0382,13.0162,12.9795,12.9428,12.9207,12.9501,13.0088,13.0602,13.0896,13.1063,13.1483,13.246,13.2327,13.2765,13.4828,13.5079,13.5429,13.582,13.4872,13.3795,13.2564,13.2025,13.1718,13.1718,13.1718,13.1718,13.1718,13.1718,13.1718,13.1718,13.1718,13.1718,13.1718,13.1718,13.1718,13.1718,13.1718,13.1718,13.1718,13.1718,13.1718,13.1718,13.1718,13.1718,13.1564,13.1025,12.9333,12.7332,13.2475,13.3183,13.396,13.3876,13.5553,13.6756,13.7055,14.0047,14.2327,14.2382,14.389,14.5285,14.6019,14.6166,14.6533,14.7194,14.8221,14.9029,14.9763,14.9102,14.8221,14.7414,14.6606,14.5725,14.4991,14.4991,14.4991,14.4991,14.4991,14.4991,14.4991,14.3523,14.2789,14.2715,14.1981,14.1614,14.1614,14.2422,14.2789,14.2715,14.2715,14.2202,14.1321,13.9632,13.8458,13.7503,13.5888,13.5301,13.5301,13.5374,13.5374,13.4957,13.2413,13.0944,12.9661,12.7331,12.7173,12.7797,12.7841,12.9097,13.0382,13.0382,12.9795,12.9501,13.0309,13.1116,13.141,13.0676,13.1116,13.141,13.0602,13.0602,13.0823,13.1557,13.119,13.1095,13.186,13.2246,13.2791,13.3763,13.3882,13.4706,13.6485,13.5896,13.5138,13.4512,13.4334,13.3564,13.1872,13.1718,13.1718,13.1718,13.1718,13.1718,13.1564,13.1564,13.1564,13.1718,13.1718,13.1718,13.1718,13.1718,13.1718,13.1718,13.1718,13.1718,13.1718,13.1718,13.1718,13.1718,13.1718,13.1718,13.141,12.9794,12.8102,12.6332,13.2407,13.387,13.5191,13.5812,13.7371,13.9202,14.0661,14.1737,14.2636,14.4201,14.4686,14.5138,14.5212,14.5799,14.6313,14.6386,14.7781,14.9029,14.9763,14.8515,14.7634,14.7414,14.6019,14.5212,14.4991,14.4991,14.4991,14.4991,14.4991,14.4991,14.4991,14.4624,14.411,14.3596,14.4037,14.3523,14.2422,14.389,14.411,14.3523,14.3523,14.3083,14.2128,13.9926,13.809,13.6622,13.5007,13.442,13.4493,13.5227,13.5374,13.5103,13.3065,13.0589,12.8176,12.7649,12.6714,12.607,12.6902,12.8242,12.9575,12.9575,12.9428,12.9501,13.0309,13.0602,13.0676,13.0529,13.0602,13.0676,13.0529,13.0969,13.1483,13.1703,13.2584,13.3685,13.4787,13.5019,13.5733,13.7583,13.6729,13.6365,13.7571,13.7041,13.6097,13.5334,13.4718,13.3795,13.2795,13.2102,13.1718,13.1718,13.1718,13.141,13.0794,13.0794,13.1102,13.1718,13.1718,13.1718,13.1718,13.1718,13.1718,13.1718,13.1718,13.1718,13.1718,13.1718,13.1718,13.1718,13.1718,13.1333,13.0564,12.9563,12.7717,12.5332,13.1798,13.3792,13.5615,13.6378,13.8844,14.0998,14.199,14.3032,14.3902,14.4876,14.4991,14.4991,14.4991,14.5432,14.5799,14.6166,14.6973,14.7781,14.8662,14.7928,14.7194,14.6827,14.6019,14.5432,14.4991,14.4991,14.4991,14.4991,14.4991,14.4991,14.4991,14.4624,14.3964,14.3303,14.411,14.367,14.2715,14.4331,14.4477,14.3817,14.3817,14.3083,14.1835,13.9779,13.8164,13.6989,13.5301,13.4713,13.4787,13.5227,13.5374,13.4921,13.1797,12.9498,12.7401,12.5367,12.5001,12.5516,12.603,12.7745,12.9281,12.9281,12.9281,12.9501,13.0309,13.0529,13.0602,13.0969,13.1116,13.119,13.163,13.1997,13.2364,13.2805,13.325,13.4247,13.5587,13.5618,13.6221,13.8182,13.7417,13.692,13.7385,13.6334,13.5411,13.5026,13.418,13.3333,13.241,13.1872,13.1487,13.1102,13.1102,13.0718,12.9871,12.9871,13.0102,13.0487,13.0871,13.1333,13.1718,13.1718,13.1718,13.1718,13.1718,13.1718,13.1718,13.1718,13.1718,13.1718,13.1333,13.0564,12.9717,12.8486,12.6409,12.4024,13.1324,13.3586,13.57,13.6839,13.9908,14.2319,14.2573,14.4023,14.4991,14.4991,14.4991,14.4991,14.4991,14.4991,14.5285,14.6093,14.6166,14.6533,14.7341,14.7341,14.69,14.6166,14.6093,14.5725,14.4991,14.4991,14.4991,14.4991,14.4991,14.4991,14.4991,14.4331,14.3596,14.3009,14.367,14.3596,14.2862,14.4404,14.4477,14.3596,14.3596,14.2569,14.1027,13.9412,13.8164,13.7209,13.5888,13.5374,13.5374,13.5374,13.5212,13.4185,13.018,12.8239,12.66,12.2646,12.3348,12.5325,12.5113,12.6976,12.9134,12.8914,12.8914,12.9134,13.0088,13.0382,13.0676,13.141,13.1483,13.1703,13.2364,13.2731,13.3151,13.4001,13.3999,13.4478,13.608,13.6146,13.6442,13.7902,13.7437,13.6873,13.6411,13.518,13.4411,13.4103,13.341,13.2564,13.1718,13.1564,13.1179,13.0487,13.041,12.9871,12.9025,12.9025,12.9025,12.9025,12.9717,13.0564,13.1487,13.1564,13.1718,13.1718,13.1718,13.1718,13.1718,13.1718,13.1718,13.1564,13.0794,12.9871,12.8717,12.6794,12.4486,12.2408,13.1324,13.3586,13.6157,13.8487,14.0729,14.2699,14.4393,14.4744,14.4991,14.4991,14.4991,14.4991,14.4991,14.4991,14.5285,14.6093,14.6166,14.6533,14.7341,14.668,14.6313,14.6166,14.5505,14.5138,14.4991,14.4991,14.4991,14.4991,14.4991,14.4991,14.4991,14.4918,14.4771,14.4698,14.4771,14.4404,14.367,14.4624,14.411,14.2789,14.2789,14.1761,14.0219,13.8604,13.6989,13.5668,13.5521,13.5374,13.5374,13.5374,13.4404,13.2591,12.9798,12.7373,12.4943,12.2197,12.3348,12.5113,12.3704,12.5692,12.8106,12.7372,12.7225,12.7592,12.9134,13.0015,13.0529,13.0602,13.0676,13.0676,13.0823,13.1997,13.3295,13.4411,13.5587,13.7006,13.8414,13.8494,13.8622,13.9038,13.8435,13.7103,13.4872,13.5103,13.4718,13.3256,13.3103,13.2564,13.1718,13.1025,13.0564,13.0487,12.9794,12.9025,12.8102,12.8102,12.8102,12.8102,12.8179,12.9102,13.0718,13.141,13.1718,13.1718,13.1718,13.1718,13.1718,13.1718,13.1718,13.1564,13.0794,12.9487,12.7717,12.4639,12.2177,12.0562,13.1189,13.3243,13.5745,13.8776,14.0864,14.2834,14.4686,14.4991,14.4844,14.4404,14.4698,14.4844,14.4404,14.4698,14.5138,14.5505,14.5505,14.5725,14.6019,14.5725,14.5505,14.5505,14.5212,14.4991,14.4991,14.4991,14.4991,14.4991,14.4991,14.4991,14.4991,14.4477,14.4331,14.4331,14.389,14.3523,14.3156,14.3523,14.3009,14.1908,14.1908,14.1027,13.9412,13.8164,13.6769,13.5301,13.4346,13.464,13.5301,13.4273,13.3069,13.1629,12.8596,12.6188,12.4318,12.2698,12.3696,12.5374,12.5234,12.6585,12.7886,12.7078,12.6932,12.7078,12.7813,12.862,12.9501,13.0896,13.0823,13.0823,13.1703,13.291,13.4122,13.5066,13.6121,13.7206,13.8834,13.829,13.7562,13.7204,13.6488,13.5488,13.4411,13.3718,13.3333,13.3026,13.2487,13.1872,13.1102,13.0718,13.0102,12.9102,12.8179,12.7409,12.6486,12.6024,12.5794,12.5794,12.6332,12.7717,12.9794,13.0564,13.1025,13.1025,13.1025,13.1025,13.1025,13.0487,13.0333,13.0179,12.941,12.7717,12.5409,12.2485,12.1023,12.0331]}]]